Date StartTime U_cm/s V_cm/s W_cm/s Ustd_cm/s Vstd_cm/s Wstd_cm/s Uvar_(cm/s)^2 Vvar_(cm/s)^2 Wvar_(cm/s)^2 KE_(m/s)^2 TurbulentKE_(m/s)^2 HorizWindSpeed_cm/s FrictionSpeec_cm/s DragCoef SpeedOfSound_m/s SonicTemperature_C Pressure_mb 
05/10/2013  00:00:00     -133.595      -34.700      -10.622       30.153       35.881       24.222      909.198     1287.448      586.713        1.097        0.139      138.028       13.703        0.010      341.945       17.010      866.231
05/10/2013  00:01:00      -94.356       -8.043       -6.206       45.911       28.825       23.492     2107.792      830.873      551.882        0.625        0.175       94.698       23.792        0.063      341.872       16.887      866.225
05/10/2013  00:02:00     -107.277      -39.878      -14.827       39.497       36.192       20.061     1559.989     1309.892      402.443        0.829        0.164      114.450       19.268        0.028      341.785       16.738      866.218
05/10/2013  00:03:00     -142.658      -35.628       -8.601       47.151       43.838       27.589     2223.251     1921.780      761.161        1.330        0.245      147.040       29.680        0.041      341.730       16.646      866.219
05/10/2013  00:04:00     -171.539      -19.058      -15.903       29.756       21.224       14.649      885.416      450.468      214.579        1.580        0.078      172.595       13.693        0.006      341.869       16.881      866.205
05/10/2013  00:05:00     -163.240        9.424      -16.685       24.728       21.469       13.349      611.460      460.919      178.197        1.413        0.063      163.512       10.481        0.004      341.836       16.825      866.195
05/10/2013  00:06:00     -194.789      -20.675      -14.634       57.913       48.483       33.269     3353.871     2350.579     1106.851        2.270        0.341      195.883       31.038        0.025      341.750       16.676      866.183
05/10/2013  00:07:00     -207.741      -59.007      -14.079       61.424       43.603       34.004     3772.923     1901.237     1156.254        2.683        0.342      215.958       36.969        0.029      341.860       16.862      866.154
05/10/2013  00:08:00     -185.593      -48.839       -9.505       48.704       42.496       29.697     2372.049     1805.897      881.923        2.099        0.253      191.911       28.370        0.022      341.848       16.843      866.134
05/10/2013  00:09:00     -106.617      -53.021        7.110       61.824       43.006       30.038     3822.229     1849.507      902.308        1.040        0.329      119.073       33.567        0.079      341.970       17.053      866.116
05/10/2013  00:10:00      -87.284      -70.810        0.057       42.557       40.413       24.894     1811.109     1633.188      619.687        0.835        0.203      112.395       18.985        0.029      341.993       17.092      866.098
05/10/2013  00:11:00     -141.492     -108.878      -10.838       55.100       49.127       28.319     3035.971     2413.465      801.961        1.912        0.313      178.535       21.526        0.015      342.037       17.165      866.095
05/10/2013  00:12:00     -111.369      -94.931       -1.353       72.188       48.168       34.305     5211.069     2320.186     1176.803        1.506        0.435      146.338       31.569        0.047      341.963       17.040      866.103
05/10/2013  00:13:00     -192.490     -147.531       -6.871       85.591       61.678       41.859     7325.850     3804.191     1752.138        3.587        0.644      242.524       42.175        0.030      342.017       17.129      866.114
05/10/2013  00:14:00     -244.872     -104.158      -13.829       71.555       83.806       39.399     5120.112     7023.389     1552.271        4.235        0.685      266.104       39.843        0.022      342.054       17.192      866.136
05/10/2013  00:15:00     -160.363      -47.924        3.853       83.010       55.359       38.566     6890.605     3064.620     1487.371        1.973        0.572      167.371       41.681        0.062      341.923       16.972      866.154
05/10/2013  00:16:00     -224.187      -91.164        3.094       70.171       65.370       38.932     4924.028     4273.197     1515.702        3.464        0.536      242.014       38.154        0.025      341.894       16.921      866.160
05/10/2013  00:17:00     -220.917     -109.628       -8.285       75.402       56.313       37.071     5685.431     3171.207     1374.235        3.556        0.512      246.623       32.983        0.018      341.847       16.839      866.171
05/10/2013  00:18:00     -122.669      -95.734        4.242       88.527       67.417       47.270     7837.037     4545.030     2234.447        1.942        0.731      155.604       45.018        0.084      341.811       16.781      866.169
05/10/2013  00:19:00     -164.654      -99.009       -9.626       98.975       69.454       46.701     9796.102     4823.859     2180.962        2.690        0.840      192.130       47.298        0.061      341.821       16.798      866.161
05/10/2013  00:20:00     -217.715     -154.200       -7.904       88.041       80.052       48.594     7751.270     6408.275     2361.363        4.388        0.826      266.791       43.101        0.026      341.810       16.776      866.161
05/10/2013  00:21:00     -241.629     -100.953       -2.702       93.908       68.009       46.990     8818.664     4625.282     2208.020        4.212        0.783      261.870       51.441        0.039      341.869       16.877      866.163
05/10/2013  00:22:00     -154.397     -109.992       -0.855      108.216       78.380       48.485    11710.740     6143.470     2350.788        2.807        1.010      189.570       38.423        0.041      341.855       16.853      866.178
05/10/2013  00:23:00     -219.309      -60.198        4.098       85.045       86.263       40.663     7232.609     7441.322     1653.507        3.403        0.816      227.421       41.625        0.033      341.883       16.902      866.190
05/10/2013  00:24:00     -210.758      -31.680       -1.879       63.046       56.200       38.117     3974.765     3158.495     1452.931        2.700        0.429      213.125       35.155        0.027      341.809       16.775      866.198
05/10/2013  00:25:00     -186.068      -60.354       -1.066       90.104       52.404       35.180     8118.795     2746.200     1237.647        2.518        0.605      195.611       41.753        0.046      341.832       16.814      866.201
05/10/2013  00:26:00     -166.831      -32.882        7.306       86.634       74.006       40.068     7505.516     5476.898     1605.409        2.178        0.729      170.041       46.033        0.073      341.833       16.819      866.198
05/10/2013  00:27:00     -163.295      -39.693        2.560       91.127       60.038       36.886     8304.184     3604.620     1360.558        2.076        0.663      168.050       42.847        0.065      341.799       16.761      866.211
05/10/2013  00:28:00     -142.932      -62.911        7.528       70.248       61.662       32.407     4934.792     3802.226     1050.186        1.711        0.489      156.164       33.406        0.046      341.809       16.777      866.200
05/10/2013  00:29:00     -186.665      -64.429       -0.849       57.684       50.861       29.367     3327.466     2586.853      862.415        2.289        0.339      197.471       30.520        0.024      341.814       16.787      866.195
05/10/2013  00:30:00     -127.325      -74.208        5.168       64.276       47.226       33.479     4131.429     2230.285     1120.821        1.461        0.374      147.372       35.714        0.059      341.785       16.738      866.185
05/10/2013  00:31:00     -169.017     -127.060      -12.299       71.080       73.575       41.800     5052.338     5413.255     1747.226        2.854        0.611      211.450       44.905        0.045      341.805       16.770      866.160
05/10/2013  00:32:00     -232.007      -91.133      -11.463       68.106       72.725       42.157     4638.384     5288.871     1777.221        3.698        0.585      249.264       31.664        0.016      341.798       16.757      866.129
05/10/2013  00:33:00     -232.559      -93.327       -0.616      100.761       71.922       47.214    10152.868     5172.797     2229.196        4.017        0.878      250.587       47.387        0.036      341.850       16.845      866.118
05/10/2013  00:34:00     -204.494      -35.781       -7.489       77.520       79.312       43.950     6009.386     6290.392     1931.602        2.869        0.712      207.601       33.328        0.026      341.763       16.698      866.101
05/10/2013  00:35:00     -145.385      -73.549        3.007       94.545       65.518       41.977     8938.774     4292.566     1762.049        2.077        0.750      162.931       48.634        0.089      341.787       16.740      866.069
05/10/2013  00:36:00     -229.973      -96.657      -12.116       75.956       55.493       41.305     5769.380     3079.526     1706.136        3.646        0.528      249.460       41.511        0.028      341.773       16.714      866.045
05/10/2013  00:37:00     -264.555      -85.230      -14.509       61.488       59.063       41.076     3780.723     3488.455     1687.271        4.321        0.448      277.945       32.548        0.014      341.751       16.676      866.017
05/10/2013  00:38:00     -273.329      -46.480       -4.674       93.628       68.475       55.232     8766.165     4688.833     3050.564        4.670        0.825      277.253       56.177        0.041      341.731       16.643      865.986
05/10/2013  00:39:00     -290.502      -66.214       -5.302       98.525       76.415       41.140     9707.122     5839.205     1692.502        5.302        0.862      297.952       45.397        0.023      341.742       16.662      865.965
05/10/2013  00:40:00     -294.389      -68.719      -10.615       77.256       74.902       44.770     5968.541     5610.352     2004.366        5.254        0.679      302.303       38.305        0.016      341.737       16.652      865.949
05/10/2013  00:41:00     -223.369      -55.501        3.117       92.024       67.535       44.982     8468.456     4560.969     2023.400        3.402        0.753      230.161       44.243        0.037      341.704       16.597      865.942
05/10/2013  00:42:00     -200.857      -32.610       -0.999      106.246       67.906       39.737    11288.197     4611.214     1579.016        2.944        0.874      203.487       51.119        0.063      341.679       16.558      865.948
05/10/2013  00:43:00     -198.324      -47.759       -2.391       69.068       52.633       33.549     4770.339     2770.220     1125.548        2.514        0.433      203.994       31.403        0.024      341.712       16.611      865.949
05/10/2013  00:44:00     -157.333      -30.876       10.718       88.069       69.737       41.145     7756.076     4863.244     1692.918        2.006        0.716      160.334       42.512        0.070      341.686       16.569      865.954
05/10/2013  00:45:00     -162.980      -37.396        0.635       90.141       71.617       43.604     8125.315     5129.056     1901.329        2.156        0.758      167.215       48.951        0.086      341.721       16.628      865.945
05/10/2013  00:46:00     -161.677      -38.521        3.132      103.639       67.609       46.788    10740.971     4570.978     2189.078        2.256        0.875      166.203       59.388        0.128      341.729       16.641      865.938
05/10/2013  00:47:00     -216.358     -103.955       -8.199      108.794       88.295       42.349    11836.058     7795.964     1793.448        3.955        1.071      240.037       48.108        0.040      341.751       16.678      865.928
05/10/2013  00:48:00     -152.087      -42.349       11.165      104.956      102.173       53.192    11015.775    10439.349     2829.404        2.466        1.214      157.873       56.726        0.129      341.737       16.657      865.918
05/10/2013  00:49:00     -151.258      -74.642        5.314       91.268       70.243       44.997     8329.910     4934.031     2024.725        2.188        0.764      168.673       47.114        0.078      341.777       16.724      865.915
05/10/2013  00:50:00     -160.338     -121.265       -4.403       97.555       68.355       49.836     9516.893     4672.359     2483.663        2.855        0.834      201.031       55.001        0.075      341.778       16.725      865.916
05/10/2013  00:51:00     -144.358      -78.088        1.374       63.314       82.997       46.221     4008.702     6888.477     2136.341        1.998        0.652      164.124       43.530        0.070      341.838       16.826      865.922
05/10/2013  00:52:00     -169.574      -69.590        2.403       90.561       67.324       40.802     8201.330     4532.486     1664.778        2.400        0.720      183.298       39.498        0.046      341.814       16.785      865.924
05/10/2013  00:53:00     -169.254      -54.476        0.053       94.095       68.431       42.411     8853.862     4682.754     1798.721        2.347        0.767      177.805       41.174        0.054      341.815       16.787      865.922
05/10/2013  00:54:00     -144.801      -44.867       -9.911       69.792       63.696       29.851     4870.912     4057.177      891.071        1.645        0.491      151.593       24.610        0.026      341.804       16.770      865.914
05/10/2013  00:55:00     -217.472      -64.241      -11.098      106.719       85.798       47.946    11389.046     7361.322     2298.828        3.629        1.052      226.762       49.292        0.047      341.873       16.886      865.900
05/10/2013  00:56:00     -181.488     -103.712        5.826      113.491       76.552       55.226    12880.314     5860.220     3049.954        3.276        1.090      209.031       47.380        0.051      341.903       16.936      865.877
05/10/2013  00:57:00     -209.021      -62.015      -11.724       72.758       65.894       36.811     5293.696     4341.989     1355.041        2.933        0.550      218.027       34.526        0.025      341.906       16.941      865.863
05/10/2013  00:58:00     -260.802     -140.387      -11.220      101.928       73.870       41.832    10389.412     5456.755     1749.941        5.272        0.880      296.186       33.905        0.013      341.987       17.078      865.860
05/10/2013  00:59:00     -186.497     -110.651       -5.196      138.144       88.259       68.255    19083.859     7789.578     4658.809        3.929        1.577      216.852       70.315        0.105      341.969       17.049      865.860
05/10/2013  01:00:00     -195.763      -69.267       -2.369      107.128       92.518       55.654    11476.421     8559.673     3097.357        3.313        1.157      207.656       57.101        0.076      341.939       16.998      865.855
05/10/2013  01:01:00     -195.466     -131.305       -1.691      104.087       88.177       51.182    10834.069     7775.191     2619.607        3.834        1.061      235.474       50.398        0.046      341.931       16.983      865.847
05/10/2013  01:02:00     -139.198      -74.085        7.897      103.623       80.991       53.355    10737.691     6559.576     2846.803        2.253        1.007      157.685       43.508        0.076      341.979       17.066      865.833
05/10/2013  01:03:00     -132.794     -103.791       15.435      107.690       98.239       60.565    11597.152     9650.831     3668.061        2.678        1.246      168.543       58.800        0.122      341.950       17.017      865.816
05/10/2013  01:04:00     -185.277     -109.200        6.004      135.555      100.878       53.046    18375.104    10176.396     2813.843        3.882        1.568      215.063       61.489        0.082      341.949       17.015      865.815
05/10/2013  01:05:00     -202.803     -122.524        3.150      130.722       99.467       72.261    17088.176     9893.657     5221.679        4.417        1.610      236.942       74.884        0.100      341.989       17.082      865.799
05/10/2013  01:06:00     -267.848     -171.730       -5.384      130.291      120.958       59.590    16975.726    14630.839     3550.954        6.820        1.758      318.172       64.730        0.041      342.005       17.107      865.789
05/10/2013  01:07:00     -226.474     -135.300      -12.333      145.823      110.129       56.081    21264.235    12128.328     3145.065        5.314        1.827      263.812       69.041        0.068      342.006       17.110      865.796
05/10/2013  01:08:00     -244.478     -134.696        2.317      151.532      127.597       69.134    22961.863    16280.925     4779.559        6.096        2.201      279.128       84.669        0.092      342.060       17.203      865.777
05/10/2013  01:09:00     -231.745     -103.851        0.924      125.038      102.016       68.491    15634.525    10407.242     4691.047        4.761        1.537      253.951       74.149        0.085      342.021       17.137      865.772
05/10/2013  01:10:00     -223.656     -171.135       -3.587      117.725      103.936       62.335    13859.068    10802.747     3885.700        5.393        1.427      281.619       69.764        0.061      342.040       17.167      865.775
05/10/2013  01:11:00     -248.845     -165.005        4.921      107.481      110.372       55.938    11552.117    12182.011     3129.016        5.801        1.343      298.581       52.090        0.030      342.049       17.183      865.772
05/10/2013  01:12:00     -127.642     -100.941        7.879      107.012       85.592       48.496    11451.506     7325.943     2351.856        2.383        1.056      162.731       55.204        0.115      342.014       17.127      865.779
05/10/2013  01:13:00     -163.177     -100.665        2.233      101.708       80.716       44.895    10344.555     6515.063     2015.533        2.782        0.944      191.730       58.597        0.093      342.035       17.160      865.783
05/10/2013  01:14:00     -152.858      -84.533       -2.891       88.404       70.010       37.913     7815.339     4901.362     1437.404        2.233        0.708      174.675       44.481        0.065      342.053       17.191      865.801
05/10/2013  01:15:00     -121.590      -48.696        8.796       76.732       86.491       37.094     5887.865     7480.764     1375.987        1.599        0.737      130.979       36.738        0.079      342.037       17.165      865.808
05/10/2013  01:16:00     -154.890      -72.890       -5.293       58.702       55.024       38.802     3445.956     3027.673     1505.587        1.865        0.399      171.183       25.461        0.022      342.099       17.268      865.834
05/10/2013  01:17:00     -161.604      -62.927       -9.609       55.399       55.495       30.733     3069.056     3079.651      944.525        1.863        0.355      173.423       27.329        0.025      342.130       17.324      865.846
05/10/2013  01:18:00      -62.818      -19.011       11.104       76.257       47.572       30.433     5815.198     2263.062      926.192        0.672        0.450       65.632       40.081        0.373      341.994       17.094      865.859
05/10/2013  01:19:00     -115.103       -4.383        1.021       71.708       37.978       28.169     5142.020     1442.304      793.500        1.032        0.369      115.186       34.643        0.090      342.042       17.175      865.873
05/10/2013  01:20:00      -34.712      -12.047        8.052       64.182       23.096       15.995     4119.362      533.427      255.827        0.316        0.245       36.743       21.816        0.353      341.982       17.074      865.892
05/10/2013  01:21:00      -14.032       -9.583        9.490       48.132       14.368       15.920     2316.714      206.438      253.450        0.158        0.139       16.992       22.833        1.806      341.958       17.032      865.906
05/10/2013  01:22:00     -103.299       -3.148       -2.181       40.592       29.662       27.015     1647.704      879.824      729.821        0.697        0.163      103.347       23.353        0.051      342.042       17.174      865.931
05/10/2013  01:23:00       -7.270       18.520       -3.871       23.909       25.713       16.779      571.622      661.145      281.550        0.096        0.076       19.896        7.470        0.141      341.979       17.068      865.947
05/10/2013  01:24:00       12.812       26.002        1.903       22.639       39.462       16.085      512.508     1557.227      258.714        0.159        0.116       28.987       22.921        0.625      341.847       16.844      865.967
05/10/2013  01:25:00       43.128       61.150       -1.331       22.793       17.313       17.695      519.505      299.757      313.127        0.337        0.057       74.829       11.891        0.025      341.853       16.855      865.987
05/10/2013  01:26:00       17.552       49.372       -4.851       17.086       18.146       11.138      291.947      329.290      124.054        0.176        0.037       52.399        8.780        0.028      341.815       16.790      865.988
05/10/2013  01:27:00       38.509       28.948       -4.496       20.318       11.375       12.020      412.829      129.384      144.477        0.151        0.034       48.176        6.336        0.017      341.653       16.516      865.988
05/10/2013  01:28:00       52.007       32.735       -6.669       15.145       11.111       16.131      229.357      123.448      260.204        0.222        0.031       61.452       12.038        0.038      341.482       16.227      865.991
05/10/2013  01:29:00       22.359        6.941       -2.387       17.208        9.956       10.481      296.128       99.123      109.855        0.053        0.025       23.412        5.000        0.046      341.673       16.549      865.988
05/10/2013  01:30:00        5.724      -13.275        1.751        8.628       17.052        7.695       74.450      290.770       59.219        0.032        0.021       14.456        6.777        0.220      341.697       16.589      865.986
05/10/2013  01:31:00        4.017      -36.672       -6.219        8.908       12.295       10.358       79.352      151.162      107.296        0.087        0.017       36.891        4.647        0.016      341.843       16.839      865.979
05/10/2013  01:32:00      -27.853      -60.841       -2.637       22.478       25.197       19.821      505.249      634.872      392.854        0.301        0.077       66.914       20.460        0.093      342.019       17.136      865.973
05/10/2013  01:33:00      -39.603      -66.931       -8.058       30.556       24.242       18.701      933.640      587.698      349.717        0.399        0.094       77.770       17.391        0.050      342.074       17.230      865.969
05/10/2013  01:34:00      -31.696      -81.736       -4.233       41.840       36.100       20.989     1750.553     1303.227      440.528        0.560        0.175       87.666       17.043        0.038      342.100       17.274      865.972
05/10/2013  01:35:00      -26.008      -53.045        1.258       21.646       25.283       15.301      468.549      639.215      234.121        0.242        0.067       59.078       12.397        0.044      342.094       17.262      865.980
05/10/2013  01:36:00      -13.283      -10.972        5.763       25.307       16.866       11.648      640.442      284.476      135.683        0.070        0.053       17.228       13.824        0.644      341.884       16.906      865.988
05/10/2013  01:37:00        8.394       27.817        8.094       13.373       13.275        9.337      178.845      176.230       87.184        0.068        0.022       29.056        7.978        0.075      341.646       16.503      865.999
05/10/2013  01:38:00       -4.392       26.080       -0.121        9.921       17.629        9.620       98.424      310.784       92.546        0.060        0.025       26.448       11.843        0.201      341.610       16.442      866.020
05/10/2013  01:39:00        7.547       43.313       -6.416        7.795       19.791       10.675       60.756      391.690      113.961        0.127        0.028       43.965       12.738        0.084      341.586       16.399      866.038
05/10/2013  01:40:00        3.665       61.134      -13.672       13.567       16.802        8.508      184.071      282.317       72.384        0.224        0.027       61.244        7.986        0.017      341.486       16.231      866.050
05/10/2013  01:41:00      -13.844       14.237      -10.176       16.096       15.802        5.064      259.090      249.696       25.646        0.052        0.027       19.858        2.379        0.014      341.488       16.236      866.056
05/10/2013  01:42:00      -19.251        2.225       -3.867       14.229        6.314        4.728      202.455       39.863       22.354        0.033        0.013       19.379        4.041        0.043      341.534       16.311      866.058
05/10/2013  01:43:00       -1.896       16.961        1.152        7.436       10.563        5.319       55.301      111.578       28.289        0.024        0.010       17.067        5.996        0.123      341.600       16.424      866.056
05/10/2013  01:44:00      -11.897       18.416       -8.149       18.140       18.776       11.707      329.060      352.551      137.046        0.068        0.041       21.925        9.143        0.174      341.808       16.779      866.068
05/10/2013  01:45:00       72.537      134.867       14.842      120.318       83.310       64.723    14476.352     6940.527     4189.100        2.463        1.280      153.136       33.256        0.047      341.882       16.900      866.054
05/10/2013  01:46:00      -49.835       33.324      -12.348       25.386       39.631       17.797      644.444     1570.641      316.739        0.314        0.127       59.950       12.646        0.044      341.817       16.793      866.044
05/10/2013  01:47:00       19.818       37.763        4.082       28.742       24.048       19.523      826.091      578.321      381.163        0.181        0.089       42.647       11.571        0.074      341.709       16.609      866.027
05/10/2013  01:48:00      -11.643        9.092        8.898       24.967       19.442       14.475      623.331      377.990      209.522        0.075        0.061       14.772       14.442        0.956      341.722       16.632      866.025
05/10/2013  01:49:00      -93.045       -9.925      -18.467       47.589       37.085       23.804     2264.700     1375.286      566.641        0.665        0.210       93.573       20.377        0.047      341.653       16.515      866.021
05/10/2013  01:50:00      -45.665      -11.884        0.456       25.063       26.785       16.032      628.158      717.459      257.010        0.191        0.080       47.186       13.288        0.079      341.654       16.517      866.010
05/10/2013  01:51:00      -76.539       65.288      -14.657       42.933       58.958       23.918     1843.282     3476.029      572.052        0.811        0.295      100.602       30.386        0.091      341.574       16.382      865.997
05/10/2013  01:52:00     -116.096      120.326      -32.383       35.140       35.745       24.911     1234.804     1277.702      620.576        1.607        0.157      167.202       21.321        0.016      341.621       16.460      865.991
05/10/2013  01:53:00      -77.318      140.530      -23.711       43.999       74.413       26.498     1935.882     5537.239      702.145        1.723        0.409      160.396       23.480        0.021      341.528       16.302      865.990
05/10/2013  01:54:00      -18.077      144.833      -16.875       75.051      102.771       27.586     5632.719    10561.927      760.972        1.927        0.848      145.957       17.111        0.014      341.572       16.376      865.986
05/10/2013  01:55:00      -73.720       51.362       -7.990       33.718       53.195       19.762     1136.906     2829.667      390.522        0.625        0.218       89.848       15.693        0.031      341.557       16.353      865.992
05/10/2013  01:56:00      -61.571       93.366      -21.238       36.496       27.924       23.919     1331.942      779.777      572.124        0.782        0.134      111.840       22.288        0.040      341.523       16.294      865.995
05/10/2013  01:57:00      -74.546       75.295      -18.769       41.198       36.317       13.439     1697.243     1318.893      180.620        0.739        0.160      105.955       12.546        0.014      341.537       16.319      866.007
05/10/2013  01:58:00      -41.442       73.369       -6.537       49.377       44.513       23.418     2438.091     1981.384      548.393        0.605        0.248       84.264       20.585        0.060      341.429       16.136      866.012
05/10/2013  01:59:00       -7.368       51.377        2.304       22.955       48.947       12.298      526.937     2395.799      151.245        0.289        0.154       51.903       12.114        0.054      341.300       15.917      866.012
05/10/2013  02:00:00       51.741       32.034       -2.316       19.661       22.379       18.661      386.536      500.810      348.228        0.247        0.062       60.855        7.819        0.017      341.292       15.903      866.016
05/10/2013  02:01:00       71.371       62.277       21.661       29.510       21.482       23.674      870.822      461.486      560.437        0.567        0.095       94.722       18.020        0.036      341.237       15.811      866.021
05/10/2013  02:02:00       50.867       34.902       12.674       23.998       26.061       23.075      575.904      679.191      532.435        0.288        0.089       61.690       15.127        0.060      341.241       15.818      866.031
05/10/2013  02:03:00       49.568       45.040       26.362       17.708       12.453       15.608      313.587      155.065      243.601        0.295        0.036       66.975        8.685        0.017      341.178       15.711      866.041
05/10/2013  02:04:00       38.109       -0.762       22.923       30.692       53.189       33.870      942.002     2829.103     1147.170        0.345        0.246       38.117       36.838        0.934      341.210       15.766      866.051
05/10/2013  02:05:00       38.079      -63.673      -16.808       34.485       33.685       25.396     1189.241     1134.671      644.955        0.438        0.148       74.191       20.228        0.074      341.372       16.039      866.060
05/10/2013  02:06:00       13.578       17.899       40.210       18.618       37.066       19.312      346.613     1373.916      372.960        0.211        0.105       22.466       15.573        0.480      341.230       15.800      866.063
05/10/2013  02:07:00       -2.785       22.695       42.199       14.228       26.952       24.008      202.428      726.413      576.397        0.190        0.075       22.865       22.937        1.006      341.229       15.796      866.053
05/10/2013  02:08:00        8.605      -28.344       20.879       24.362       32.099       21.181      593.509     1030.353      448.644        0.169        0.104       29.621       11.637        0.154      341.245       15.825      866.041
05/10/2013  02:09:00        2.619      -25.284       12.134       25.012       26.088       24.384      625.604      680.590      594.556        0.135        0.095       25.419        8.817        0.120      341.220       15.781      866.045
05/10/2013  02:10:00       -4.433      -34.652        8.603       23.515       34.660       19.738      552.954     1201.297      389.607        0.172        0.107       34.935        9.280        0.071      341.246       15.826      866.050
05/10/2013  02:11:00       14.862       -8.869       15.692       20.559       28.483       15.640      422.688      811.258      244.604        0.101        0.074       17.307       11.236        0.421      341.182       15.717      866.055
05/10/2013  02:12:00        9.565       18.457       29.324       18.393       17.695       15.336      338.319      313.099      235.194        0.109        0.044       20.788       15.766        0.575      341.236       15.808      866.048
05/10/2013  02:13:00      -10.060      -35.384      -10.295       14.290       17.428        8.320      204.203      303.735       69.228        0.102        0.029       36.787        6.762        0.034      341.320       15.950      866.057
05/10/2013  02:14:00      -16.957      -20.438       -6.154       15.203       13.349       11.068      231.122      178.189      122.506        0.064        0.027       26.557       11.682        0.193      341.308       15.930      866.066
05/10/2013  02:15:00      -31.522      -19.615       -4.903       14.602       17.367        8.569      213.216      301.606       73.421        0.100        0.029       37.127        9.898        0.071      341.250       15.834      866.077
05/10/2013  02:16:00      -36.864       -8.595       -2.761       25.167       21.750       18.160      633.365      473.053      329.785        0.144        0.072       37.853       12.047        0.101      341.272       15.869      866.080
05/10/2013  02:17:00       -4.751      -13.946       10.492       11.681       12.051        9.829      136.455      145.233       96.619        0.035        0.019       14.733        6.036        0.168      341.167       15.692      866.080
05/10/2013  02:18:00      -42.981      -35.252       11.457       20.171       20.937       13.206      406.875      438.347      174.388        0.212        0.051       55.588        9.673        0.030      341.335       15.977      866.074
05/10/2013  02:19:00      -34.301      -35.605       -7.576       22.009       21.209       16.156      484.413      449.811      261.015        0.185        0.060       49.439       10.924        0.049      341.568       16.370      866.063
05/10/2013  02:20:00      -27.272        4.129       -3.732        8.273        8.525        7.345       68.448       72.683       53.954        0.048        0.010       27.583        6.006        0.047      341.427       16.132      866.072
05/10/2013  02:21:00       -5.803       -2.487        0.472        7.479       10.178        3.180       55.941      103.596       10.111        0.010        0.008        6.313        2.369        0.141      341.347       15.995      866.100
05/10/2013  02:22:00      -17.138      -48.951       -4.109       12.109       24.631       10.896      146.639      606.680      118.729        0.179        0.044       51.864        6.896        0.018      341.488       16.235      866.090
05/10/2013  02:23:00      -12.629      -40.317       -7.107       15.678       10.063       11.044      245.794      101.266      121.968        0.115        0.023       42.248        4.582        0.012      341.413       16.108      866.088
05/10/2013  02:24:00       10.485      -10.061       10.389       19.953       50.180       22.049      398.109     2518.036      486.139        0.186        0.170       14.531       29.150        4.024      341.431       16.139      866.076
05/10/2013  02:25:00       12.762       65.108       60.734       24.454       26.559       16.695      597.998      705.374      278.715        0.484        0.079       66.347       14.196        0.046      341.211       15.766      866.069
05/10/2013  02:26:00       69.463       -3.974       26.159       40.893       43.659       35.314     1672.235     1906.097     1247.053        0.517        0.241       69.577       35.926        0.267      341.499       16.255      866.071
05/10/2013  02:27:00       39.428      -43.538       -2.836       35.199       26.926       22.053     1238.968      724.983      486.336        0.295        0.123       58.738       16.488        0.079      341.580       16.392      866.073
05/10/2013  02:28:00        8.208      -16.228        1.309       19.869       23.716       15.302      394.770      562.447      234.147        0.076        0.060       18.185       11.096        0.372      341.424       16.126      866.076
05/10/2013  02:29:00      -56.066      -32.066        4.613       28.178       23.952       13.891      794.015      573.699      192.956        0.288        0.078       64.589        6.088        0.009      341.227       15.793      866.085
05/10/2013  02:30:00      -59.768      -26.493        4.761       23.817       18.233       12.147      567.238      332.441      147.539        0.267        0.052       65.377        9.166        0.020      341.307       15.929      866.087
05/10/2013  02:31:00      -77.157      -33.259        5.603       21.795       16.811       12.891      475.006      282.614      166.171        0.401        0.046       84.020       10.219        0.015      341.335       15.976      866.095
05/10/2013  02:32:00     -108.920      -61.027        1.278       37.066       22.962       17.313     1373.899      527.249      299.754        0.889        0.110      124.852       17.695        0.020      341.252       15.836      866.114
05/10/2013  02:33:00      -65.964      -54.142        8.441       45.473       35.611       22.352     2067.756     1268.125      499.621        0.559        0.192       85.338       19.475        0.052      341.156       15.674      866.131
05/10/2013  02:34:00      -70.657      -73.733        2.668       45.241       38.666       24.203     2046.719     1495.028      585.797        0.728        0.206      102.122       21.175        0.043      341.187       15.725      866.140
05/10/2013  02:35:00     -102.380      -99.948       -3.270       68.867       46.983       30.538     4742.622     2207.412      932.550        1.418        0.394      143.078       34.818        0.059      341.126       15.622      866.146
05/10/2013  02:36:00     -124.595      -88.099        8.560       69.112       54.834       33.087     4776.485     3006.732     1094.719        1.612        0.444      152.595       28.385        0.035      341.126       15.621      866.146
05/10/2013  02:37:00     -136.094     -120.280       -1.301       53.808       56.452       28.528     2895.325     3186.782      813.831        1.994        0.345      181.629       24.488        0.018      341.086       15.553      866.149
05/10/2013  02:38:00     -132.221      -78.116        7.847       66.802       46.935       36.368     4462.479     2202.874     1322.602        1.582        0.399      153.573       31.418        0.042      341.069       15.526      866.135
05/10/2013  02:39:00     -124.030      -70.780       -0.141       42.128       46.003       25.633     1774.748     2116.299      657.076        1.247        0.227      142.805       19.745        0.019      341.062       15.513      866.118
05/10/2013  02:40:00     -117.653      -70.394       -7.991       28.823       33.319       18.949      830.775     1110.139      359.047        1.058        0.115      137.104       15.025        0.012      341.049       15.492      866.121
05/10/2013  02:41:00      -66.810      -46.942        0.504       38.324       24.944       16.952     1468.747      622.227      287.375        0.452        0.119       81.652       18.358        0.051      341.023       15.448      866.128
05/10/2013  02:42:00      -71.699      -52.297       -4.315       28.023       18.034       12.341      785.295      325.243      152.297        0.458        0.063       88.746        8.522        0.009      341.061       15.512      866.133
05/10/2013  02:43:00      -37.891       -9.459       -1.168       15.934       19.747       12.054      253.906      389.958      145.299        0.116        0.039       39.054        7.637        0.038      340.982       15.378      866.143
05/10/2013  02:44:00      -17.012       29.259        3.754       17.790       22.820       14.731      316.472      520.768      217.007        0.111        0.053       33.845       12.083        0.127      340.794       15.061      866.166
05/10/2013  02:45:00       -5.752       34.821        4.194       21.408       30.505       19.880      458.313      930.567      395.214        0.152        0.089       35.292       23.385        0.439      340.747       14.982      866.172
05/10/2013  02:46:00      -11.991       92.509      -15.767       12.284       17.849       10.101      150.900      318.575      102.033        0.476        0.029       93.283        8.496        0.008      340.812       15.090      866.182
05/10/2013  02:47:00      -18.269       59.574       -7.826       14.371       23.197       12.007      206.519      538.101      144.176        0.242        0.044       62.312       10.742        0.030      340.864       15.179      866.182
05/10/2013  02:48:00       -8.838       14.764        2.757        9.560       12.548        6.071       91.396      157.450       36.852        0.029        0.014       17.207        5.160        0.090      340.895       15.232      866.164
05/10/2013  02:49:00       20.757       -6.324        3.082        8.205       10.581        9.070       67.323      111.962       82.271        0.037        0.013       21.699        5.732        0.070      340.927       15.287      866.148
05/10/2013  02:50:00      -34.402      -40.175       -4.190       35.659       15.733        9.729     1271.598      247.537       94.654        0.221        0.081       52.891        7.488        0.020      340.929       15.289      866.150
05/10/2013  02:51:00      -91.675      -56.318       -4.560       33.112       18.312       13.773     1096.405      335.346      189.694        0.661        0.081      107.592        6.826        0.004      340.923       15.278      866.165
05/10/2013  02:52:00      -28.011      -24.163       -1.769       21.420       17.313       12.099      458.825      299.728      146.387        0.114        0.045       36.993        8.250        0.050      340.932       15.293      866.167
05/10/2013  02:53:00      -17.440      -43.791       -8.794       19.078       21.255       12.617      363.989      451.780      159.179        0.164        0.049       47.136       11.651        0.061      340.957       15.337      866.172
05/10/2013  02:54:00      -14.908       -6.476       10.081       16.247       14.418       10.433      263.979      207.888      108.857        0.047        0.029       16.254       13.391        0.679      340.794       15.061      866.186
05/10/2013  02:55:00       -9.095       10.449       17.149        8.000        9.079        7.750       63.999       82.430       60.067        0.035        0.010       13.853        7.132        0.265      340.737       14.965      866.198
05/10/2013  02:56:00       -8.207       13.871        0.737       11.463        9.936        6.024      131.407       98.728       36.284        0.026        0.013       16.117        5.904        0.134      340.777       15.029      866.220
05/10/2013  02:57:00      -41.585       -3.987       -2.536       28.518       18.729       15.526      813.266      350.777      241.070        0.158        0.070       41.776       15.057        0.130      340.715       14.928      866.235
05/10/2013  02:58:00        0.094        3.923        7.284       11.849        8.732       10.236      140.389       76.254      104.785        0.019        0.016        3.924        7.257        3.419      340.540       14.631      866.235
05/10/2013  02:59:00        4.113       18.651        0.924        9.880        6.034        6.155       97.619       36.411       37.883        0.027        0.009       19.099        5.211        0.074      340.539       14.632      866.229
05/10/2013  03:00:00      -14.958       20.009       -7.466       18.978        6.433        9.615      360.147       41.388       92.456        0.059        0.025       24.982       11.527        0.213      340.580       14.698      866.230
05/10/2013  03:01:00      -40.284        4.533       -9.622        9.883        9.684        8.213       97.672       93.777       67.449        0.100        0.013       40.538        5.322        0.017      340.638       14.796      866.247
05/10/2013  03:02:00      -48.888      -17.225       -9.729       10.705       11.331        7.070      114.601      128.381       49.989        0.154        0.015       51.834        6.150        0.014      340.550       14.649      866.251
05/10/2013  03:03:00      -60.559      -13.596      -12.033        9.626        9.918        7.578       92.665       98.359       57.421        0.212        0.012       62.066        1.851        0.001      340.422       14.431      866.251
05/10/2013  03:04:00      -39.694       -4.956       -6.288       10.330        6.046        6.356      106.708       36.553       40.403        0.091        0.009       40.002        2.782        0.005      340.389       14.376      866.244
05/10/2013  03:05:00      -38.976       -9.475       -7.277        5.960        7.028        6.200       35.522       49.396       38.434        0.089        0.006       40.111        3.652        0.008      340.514       14.588      866.244
05/10/2013  03:06:00      -15.655       -9.637       -7.942       14.935        4.578        5.900      223.069       20.957       34.809        0.034        0.014       18.384        5.088        0.077      340.634       14.792      866.250
05/10/2013  03:07:00        7.059        7.943        5.210        7.755        9.214        5.411       60.147       84.900       29.280        0.016        0.009       10.626        4.597        0.187      340.761       15.004      866.250
05/10/2013  03:08:00      -36.552       -8.867       -1.335       14.829       13.304        9.154      219.897      177.008       83.794        0.095        0.024       37.612       10.231        0.074      340.669       14.848      866.242
05/10/2013  03:09:00      -21.831      -34.295        0.283       20.397       13.211       16.862      416.026      174.518      284.325        0.126        0.044       40.654       13.732        0.114      340.416       14.420      866.258
05/10/2013  03:10:00      -15.893      -26.186       -0.898       10.612       20.356        7.303      112.615      414.354       53.328        0.076        0.029       30.631        7.780        0.065      340.574       14.688      866.270
05/10/2013  03:11:00      -14.881      -19.123        3.670       27.525       14.762       13.527      757.630      217.910      182.992        0.088        0.058       24.231        7.660        0.100      340.620       14.766      866.278
05/10/2013  03:12:00      -18.640       -6.100        3.529       24.814       14.698       11.381      615.745      216.044      129.523        0.068        0.048       19.613        9.309        0.225      340.328       14.274      866.293
05/10/2013  03:13:00      -52.998       37.428       -9.124       13.555       13.033        9.108      183.746      169.848       82.964        0.236        0.022       64.882        8.775        0.018      340.196       14.049      866.304
05/10/2013  03:14:00      -90.111        4.338      -13.087       22.157       19.596       11.212      490.954      383.993      125.716        0.466        0.050       90.215       11.123        0.015      340.133       13.944      866.323
05/10/2013  03:15:00      -72.934      -11.808       -9.206       28.553       20.521       13.652      815.263      421.132      186.388        0.348        0.071       73.883       13.255        0.032      340.038       13.783      866.332
05/10/2013  03:16:00      -95.883      -14.253       -8.194       33.996       19.713       17.066     1155.747      388.584      291.256        0.565        0.092       96.937       17.163        0.031      339.967       13.662      866.331
05/10/2013  03:17:00     -122.698       -8.652       -3.502       38.676       25.939       20.400     1495.842      672.811      416.157        0.886        0.129      123.002       22.605        0.034      339.933       13.606      866.330
05/10/2013  03:18:00     -105.388      -33.837       -2.319       28.043       25.150       17.616      786.393      632.505      310.319        0.699        0.086      110.687       15.120        0.019      339.913       13.571      866.321
05/10/2013  03:19:00     -127.975      -36.132       -7.155       29.966       25.247       16.071      897.934      637.432      258.265        0.976        0.090      132.978       14.976        0.013      339.960       13.652      866.321
05/10/2013  03:20:00     -127.148      -48.111       -3.001       25.675       19.267       18.349      659.181      371.212      336.672        0.993        0.068      135.946       15.131        0.012      340.028       13.766      866.323
05/10/2013  03:21:00     -112.496      -43.852       -5.587       27.319       29.819       16.613      746.331      889.143      275.999        0.826        0.096      120.741       14.131        0.014      340.011       13.738      866.334
05/10/2013  03:22:00     -118.504      -39.791       -1.599       21.681       23.096       15.690      470.062      533.428      246.187        0.844        0.062      125.006       14.176        0.013      340.035       13.778      866.347
05/10/2013  03:23:00     -113.565        1.942      -10.947       26.032       21.512       14.005      677.649      462.783      196.141        0.718        0.067      113.581       10.090        0.008      339.864       13.490      866.354
05/10/2013  03:24:00      -76.192        4.967       -3.649       36.549       20.851       19.192     1335.835      434.776      368.325        0.399        0.107       76.354       22.296        0.085      339.866       13.493      866.357
05/10/2013  03:25:00      -82.575      -31.599       -8.796       12.495       22.679       10.782      156.115      514.359      116.241        0.434        0.039       88.414        6.853        0.006      339.898       13.548      866.356
05/10/2013  03:26:00     -127.657      -34.631       -7.665       21.873       24.952       13.659      478.423      622.612      186.559        0.942        0.064      132.271       12.803        0.009      339.871       13.502      866.368
05/10/2013  03:27:00      -93.581      -26.695      -10.318       34.025       25.533       15.760     1157.710      651.941      248.362        0.582        0.103       97.314       16.135        0.027      339.751       13.300      866.372
05/10/2013  03:28:00     -112.177      -25.891       -2.859       40.625       25.947       19.528     1650.361      673.242      381.352        0.798        0.135      115.126       22.206        0.037      339.710       13.231      866.368
05/10/2013  03:29:00      -58.816        8.670       -4.428       23.526       20.027       13.909      553.495      401.080      193.451        0.235        0.057       59.451        7.622        0.016      339.670       13.164      866.371
05/10/2013  03:30:00      -87.711       27.098       -9.898       23.275       17.495       13.918      541.740      306.080      193.718        0.478        0.052       91.802        6.249        0.005      339.619       13.076      866.383
05/10/2013  03:31:00      -69.672       10.335       -6.018       36.199       23.035       12.588     1310.377      530.599      158.463        0.350        0.100       70.434       12.001        0.029      339.674       13.169      866.369
05/10/2013  03:32:00      -27.965       -3.187      -10.401        9.938       12.044        5.913       98.761      145.052       34.962        0.059        0.014       28.146        4.866        0.030      339.780       13.349      866.352
05/10/2013  03:33:00      -53.189      -35.846       -8.939       21.246       12.140       11.371      451.387      147.368      129.290        0.246        0.036       64.141        9.687        0.023      339.851       13.467      866.343
05/10/2013  03:34:00      -99.596      -47.223      -12.649       19.684       17.182       10.566      387.477      295.214      111.650        0.655        0.040      110.224        4.702        0.002      339.704       13.220      866.346
05/10/2013  03:35:00      -96.309      -30.470       -5.925       26.583       29.415       16.415      706.675      865.238      269.464        0.604        0.092      101.014       11.303        0.013      339.667       13.157      866.357
05/10/2013  03:36:00      -69.797      -34.173       -8.925       22.818       20.630       11.384      520.672      425.592      129.599        0.360        0.054       77.713        8.283        0.011      339.634       13.101      866.361
05/10/2013  03:37:00      -55.755      -20.980       -6.875       15.831       20.952       12.256      250.621      438.992      150.218        0.222        0.042       59.571       11.229        0.036      339.703       13.218      866.362
05/10/2013  03:38:00      -55.220      -29.002      -15.749       20.755       18.570       12.705      430.778      344.828      161.419        0.254        0.047       62.373        8.121        0.017      339.757       13.310      866.378
05/10/2013  03:39:00      -88.334      -11.042      -14.835       20.762       18.624       14.883      431.055      346.849      221.493        0.457        0.050       89.022        9.743        0.012      339.723       13.252      866.374
05/10/2013  03:40:00      -71.157      -19.099      -15.974       14.604        9.655        8.847      213.265       93.223       78.267        0.303        0.019       73.675        5.789        0.006      339.833       13.437      866.373
05/10/2013  03:41:00      -49.807      -31.382      -14.989       21.540       14.760       14.105      463.977      217.858      198.954        0.229        0.044       58.869       11.421        0.038      339.824       13.423      866.371
05/10/2013  03:42:00      -64.657      -50.085      -17.272       16.807       22.622       12.595      282.475      511.758      158.625        0.397        0.048       81.787       10.753        0.017      339.819       13.414      866.376
05/10/2013  03:43:00     -123.438      -54.637       -7.967       21.951       21.088       10.814      481.839      444.687      116.948        0.966        0.052      134.989        9.563        0.005      339.645       13.120      866.378
05/10/2013  03:44:00      -50.928      -37.866        9.122       35.993       19.397       19.170     1295.530      376.248      367.487        0.307        0.102       63.463       17.796        0.079      339.619       13.076      866.375
05/10/2013  03:45:00      -83.526      -65.107       -7.792       33.179       21.679       22.471     1100.828      469.968      504.952        0.668        0.104      105.903       19.653        0.034      339.695       13.206      866.386
05/10/2013  03:46:00      -39.349      -47.542       -5.334       25.093       23.988       21.436      629.661      575.411      459.518        0.275        0.083       61.714       16.726        0.073      339.724       13.254      866.382
05/10/2013  03:47:00      -38.642      -28.498       -4.160       18.528       14.144       13.099      343.271      200.045      171.586        0.152        0.036       48.014       10.194        0.045      339.809       13.396      866.377
05/10/2013  03:48:00      -18.427      -28.440       -2.806       11.876        9.575        6.363      141.030       91.689       40.491        0.071        0.014       33.887        3.494        0.011      339.884       13.522      866.375
05/10/2013  03:49:00      -30.887      -24.524       -1.527       21.045       12.848       11.504      442.881      165.063      132.349        0.115        0.037       39.439        8.747        0.049      339.890       13.534      866.395
05/10/2013  03:50:00      -40.668      -42.391       -3.434       28.382       16.676       16.851      805.510      278.082      283.957        0.241        0.068       58.744       17.580        0.090      339.856       13.477      866.406
05/10/2013  03:51:00      -47.444      -31.665       -1.812       27.578       15.265       14.118      760.573      233.008      199.310        0.222        0.060       57.041       14.147        0.062      339.768       13.328      866.407
05/10/2013  03:52:00     -110.238      -43.753       -6.929       18.000       18.041       11.117      323.988      325.468      123.577        0.744        0.039      118.603        9.161        0.006      339.709       13.229      866.409
05/10/2013  03:53:00     -141.172      -55.614       -6.661       23.007       24.013       15.445      529.300      576.616      238.536        1.221        0.067      151.732        9.424        0.004      339.657       13.141      866.416
05/10/2013  03:54:00     -112.336      -43.322       -3.738       29.452       15.948       11.776      867.424      254.337      138.672        0.789        0.063      120.401        8.596        0.005      339.654       13.136      866.406
05/10/2013  03:55:00      -63.446      -45.158       -0.470       22.082       14.557       12.362      487.612      211.912      152.827        0.346        0.043       77.876       10.552        0.018      339.726       13.258      866.383
05/10/2013  03:56:00      -68.479      -35.501       -2.343       10.356        9.120        7.620      107.247       83.182       58.067        0.310        0.012       77.134        5.775        0.006      339.828       13.429      866.371
05/10/2013  03:57:00      -85.922      -40.537       -5.121       16.074       13.331        8.189      258.387      177.716       67.053        0.478        0.025       95.004        6.027        0.004      339.781       13.349      866.373
05/10/2013  03:58:00     -105.541      -65.329       -4.988       26.099       23.630       18.750      681.148      558.367      351.570        0.851        0.080      124.124       16.965        0.019      339.640       13.112      866.385
05/10/2013  03:59:00     -142.379      -48.996       -5.504       29.145       21.763       14.596      849.460      473.642      213.045        1.212        0.077      150.573        8.193        0.003      339.648       13.124      866.387
05/10/2013  04:00:00      -97.511      -34.977        6.978       32.437       23.567       17.294     1052.139      555.419      299.088        0.634        0.095      103.595       20.109        0.038      339.567       12.989      866.376
05/10/2013  04:01:00      -43.367      -39.600       10.486       35.762       28.037       16.831     1278.940      786.100      283.294        0.295        0.117       58.727       19.397        0.109      339.711       13.231      866.367
05/10/2013  04:02:00      -61.213      -43.833        4.173       27.448       23.641       17.289      753.401      558.896      298.893        0.365        0.081       75.288       17.258        0.053      339.811       13.401      866.368
05/10/2013  04:03:00      -78.494      -40.371        2.849       35.194       23.102       18.973     1238.614      533.683      359.977        0.497        0.107       88.267       20.750        0.055      339.792       13.369      866.365
05/10/2013  04:04:00      -80.490      -38.935       10.732       34.088       24.729       21.095     1161.980      611.513      444.995        0.516        0.111       89.413       18.640        0.043      339.698       13.209      866.372
05/10/2013  04:05:00      -82.072      -56.308        2.531       49.356       27.071       20.197     2436.012      732.823      407.923        0.674        0.179       99.531       14.542        0.021      339.741       13.283      866.384
05/10/2013  04:06:00      -86.978      -60.246        5.842       44.166       27.716       21.810     1950.637      768.166      475.659        0.721        0.160      105.805       23.966        0.051      339.751       13.300      866.393
05/10/2013  04:07:00     -117.249      -91.941       -6.221       39.675       44.527       22.215     1574.104     1982.647      493.513        1.314        0.203      148.998       22.110        0.022      339.821       13.417      866.393
05/10/2013  04:08:00      -64.396      -66.779       11.173       48.068       34.285       24.791     2310.539     1175.428      614.576        0.642        0.205       92.770       21.813        0.055      339.800       13.382      866.382
05/10/2013  04:09:00      -64.388      -97.843        0.770       49.888       56.928       30.692     2488.850     3240.787      941.987        1.019        0.334      117.128       29.643        0.064      339.819       13.414      866.382
05/10/2013  04:10:00      -46.802      -82.221       -1.320       44.747       43.415       31.545     2002.336     1884.845      995.107        0.692        0.244       94.609       19.213        0.041      339.888       13.530      866.374
05/10/2013  04:11:00      -38.235      -59.215       19.134       56.010       42.642       34.561     3137.153     1818.315     1194.489        0.574        0.307       70.486       26.854        0.145      339.843       13.454      866.361
05/10/2013  04:12:00     -105.878      -68.562       -3.573       72.655       52.894       38.316     5278.721     2797.788     1468.090        1.273        0.477      126.138       36.473        0.084      339.813       13.402      866.345
05/10/2013  04:13:00     -125.062      -80.896        9.389       63.781       64.006       42.393     4067.995     4096.784     1797.148        1.612        0.498      148.945       29.544        0.039      339.760       13.314      866.341
05/10/2013  04:14:00     -122.983      -93.479        3.367       84.542       61.300       39.449     7147.316     3757.678     1556.196        1.817        0.623      154.476       38.290        0.061      339.775       13.337      866.345
05/10/2013  04:15:00     -118.254      -96.844        3.410       64.446       57.961       34.125     4153.257     3359.446     1164.530        1.602        0.434      152.849       33.539        0.048      339.772       13.335      866.340
05/10/2013  04:16:00      -87.591      -65.434        7.472       83.768       53.329       39.802     7017.122     2843.954     1584.181        1.173        0.572      109.334       51.237        0.220      339.794       13.370      866.339
05/10/2013  04:17:00     -157.874     -114.238      -14.150       37.104       39.635       29.559     1376.695     1570.930      873.723        2.100        0.191      194.871       18.926        0.009      339.743       13.285      866.350
05/10/2013  04:18:00     -117.350      -25.336       -2.660       39.612       39.394       19.514     1569.120     1551.923      380.788        0.896        0.175      120.054       17.421        0.021      339.685       13.188      866.360
05/10/2013  04:19:00     -115.069       18.928       -8.474       62.096       41.819       26.801     3855.939     1748.793      718.294        1.000        0.316      116.615       30.338        0.068      339.553       12.965      866.379
05/10/2013  04:20:00     -108.612       -1.658       -8.531       44.157       34.728       19.947     1949.846     1206.020      397.883        0.771        0.178      108.625       17.728        0.027      339.477       12.836      866.395
05/10/2013  04:21:00     -122.525      -21.081       -6.333       49.742       40.127       24.758     2474.264     1610.210      612.960        1.010        0.235      124.325       19.613        0.025      339.451       12.792      866.400
05/10/2013  04:22:00     -108.626      -32.175       10.545       66.572       45.118       26.938     4431.775     2035.663      725.632        1.007        0.360      113.291       28.657        0.064      339.459       12.806      866.392
05/10/2013  04:23:00     -150.116      -43.036       -3.305       53.562       45.957       28.787     2868.934     2112.024      828.691        1.510        0.290      156.164       31.115        0.040      339.529       12.924      866.388
05/10/2013  04:24:00     -132.265      -35.365        1.655       50.122       35.623       26.552     2512.175     1269.011      705.016        1.162        0.224      136.912       27.714        0.041      339.490       12.857      866.397
05/10/2013  04:25:00     -119.305      -24.289       -5.354       40.186       36.598       27.112     1614.929     1339.411      735.061        0.927        0.184      121.753       25.497        0.044      339.436       12.768      866.397
05/10/2013  04:26:00     -130.430      -19.919       -5.264       38.802       31.198       24.611     1505.585      973.343      605.680        1.026        0.154      131.942       20.511        0.024      339.385       12.683      866.396
05/10/2013  04:27:00     -169.984      -45.159      -16.607       32.498       25.981       21.403     1056.140      675.027      458.073        1.670        0.109      175.880       17.992        0.010      339.409       12.722      866.407
05/10/2013  04:28:00     -155.002      -75.408       -1.191       38.041       29.971       25.736     1447.123      898.268      662.328        1.636        0.150      172.371       22.855        0.018      339.498       12.871      866.406
05/10/2013  04:29:00     -127.344      -87.870        4.703       54.117       42.648       24.957     2928.682     1818.819      622.840        1.466        0.269      154.718       28.324        0.034      339.619       13.077      866.401
05/10/2013  04:30:00      -99.506      -14.903       -0.356       50.887       27.812       27.955     2589.521      773.512      781.477        0.713        0.207      100.616       31.511        0.098      339.517       12.905      866.411
05/10/2013  04:31:00     -128.488       -2.766       -9.701       43.378       33.518       27.410     1881.682     1123.485      751.328        1.018        0.188      128.518       27.742        0.047      339.390       12.690      866.424
05/10/2013  04:32:00     -109.515       -0.028      -11.818       40.948       29.617       17.054     1676.710      877.171      290.847        0.749        0.142      109.515       19.333        0.031      339.315       12.563      866.418
05/10/2013  04:33:00     -120.302      -25.295      -14.221       39.274       33.065       21.462     1542.462     1093.280      460.632        0.920        0.155      122.933       22.826        0.034      339.289       12.520      866.415
05/10/2013  04:34:00     -156.917      -65.208       -8.751       33.503       32.635       18.344     1122.436     1065.030      336.511        1.574        0.126      169.927       11.878        0.005      339.304       12.545      866.419
05/10/2013  04:35:00     -107.563      -48.676        9.243       46.836       27.985       21.792     2193.621      783.178      474.896        0.874        0.173      118.064       20.363        0.030      339.341       12.608      866.417
05/10/2013  04:36:00     -110.770      -37.843       -5.155       47.478       29.405       20.022     2254.167      864.658      400.899        0.862        0.176      117.055       23.195        0.039      339.409       12.723      866.419
05/10/2013  04:37:00      -99.426      -40.518       -4.841       32.710       26.072       19.259     1069.977      679.771      370.895        0.684        0.106      107.365       11.205        0.011      339.356       12.633      866.425
05/10/2013  04:38:00      -99.906      -30.091       -3.330       32.402       31.853       23.301     1049.900     1014.626      542.954        0.675        0.130      104.339       20.460        0.038      339.326       12.584      866.430
05/10/2013  04:39:00      -95.341      -29.072        1.717       49.216       30.305       24.283     2422.207      918.404      589.682        0.693        0.197       99.674       24.759        0.062      339.241       12.440      866.422
05/10/2013  04:40:00     -124.146      -31.983       -5.684       30.694       31.449       18.812      942.123      989.010      353.875        0.938        0.114      128.200       11.647        0.008      339.293       12.526      866.418
05/10/2013  04:41:00     -119.239      -31.041       -8.392       52.728       38.784       25.099     2780.283     1504.161      629.951        1.008        0.246      123.214       28.341        0.053      339.205       12.378      866.421
05/10/2013  04:42:00     -149.791      -46.735      -21.651       31.810       29.301       26.193     1011.857      858.555      686.052        1.382        0.128      156.913       24.028        0.023      339.083       12.173      866.422
05/10/2013  04:43:00     -121.422      -47.034       -6.925       37.853       36.327       25.718     1432.875     1319.674      661.401        1.021        0.171      130.213       25.507        0.038      339.176       12.330      866.409
05/10/2013  04:44:00     -121.832      -61.394       -4.483       37.430       34.626       21.326     1401.005     1198.977      454.778        1.084        0.153      136.427       20.168        0.022      339.170       12.319      866.414
05/10/2013  04:45:00     -101.397      -51.992        0.037       38.005       32.271       20.747     1444.360     1041.393      430.436        0.795        0.146      113.949       16.160        0.020      339.251       12.458      866.399
05/10/2013  04:46:00      -80.720      -36.659        1.442       22.298       22.093       13.742      497.208      488.118      188.829        0.452        0.059       88.655       12.284        0.019      339.306       12.548      866.384
05/10/2013  04:47:00      -89.946      -41.681        3.630       26.765       40.436       17.690      716.387     1635.078      312.927        0.625        0.133       99.134       17.071        0.030      339.275       12.497      866.378
05/10/2013  04:48:00      -88.764      -22.665       -4.298       35.401       26.292       15.834     1253.260      691.251      250.719        0.530        0.110       91.613       14.640        0.026      339.334       12.596      866.384
05/10/2013  04:49:00     -111.624      -33.057       -6.358       34.273       24.753       15.387     1174.610      612.717      236.765        0.781        0.101      116.416       18.640        0.026      339.342       12.609      866.379
05/10/2013  04:50:00     -112.929      -73.190       -3.831       29.359       18.596       13.826      861.940      345.829      191.158        0.976        0.070      134.572        9.954        0.005      339.459       12.806      866.372
05/10/2013  04:51:00      -81.621      -46.936        0.125       22.583       17.733       12.304      509.984      314.446      151.389        0.492        0.049       94.154       11.289        0.014      339.489       12.855      866.373
05/10/2013  04:52:00      -72.104      -49.473       -9.953       12.808       14.962       11.358      164.033      223.850      129.009        0.413        0.026       87.444        2.440        0.001      339.430       12.759      866.380
05/10/2013  04:53:00      -95.913      -25.352       -5.883       31.492       23.164       13.143      991.725      536.553      172.742        0.579        0.085       99.207       14.036        0.020      339.345       12.614      866.389
05/10/2013  04:54:00      -95.393      -12.576      -11.489       34.628       24.855       18.724     1199.065      617.775      350.598        0.578        0.108       96.218       19.284        0.040      339.132       12.256      866.404
05/10/2013  04:55:00     -120.206       15.551      -10.201       28.165       22.025       11.837      793.246      485.113      140.112        0.811        0.071      121.207        9.906        0.007      339.106       12.213      866.414
05/10/2013  04:56:00     -121.656       -2.341      -10.085       25.566       22.710       12.793      653.627      515.757      163.661        0.812        0.067      121.679        7.514        0.004      339.194       12.360      866.418
05/10/2013  04:57:00     -113.128      -29.942       -9.563       33.865       26.122       14.389     1146.870      682.375      207.057        0.791        0.102      117.024       13.814        0.014      339.189       12.351      866.419
05/10/2013  04:58:00      -98.559      -36.231       -9.826       23.520       31.183       18.239      553.174      972.380      332.667        0.649        0.093      105.008       11.211        0.011      339.124       12.242      866.426
05/10/2013  04:59:00     -121.617      -52.250       -7.307       41.269       33.828       20.515     1703.133     1144.332      420.845        1.042        0.163      132.366       18.739        0.020      339.046       12.112      866.434
05/10/2013  05:00:00      -91.101      -25.339       -4.412       24.379       19.760       14.725      594.321      390.472      216.835        0.508        0.060       94.559       12.157        0.017      339.067       12.148      866.449
05/10/2013  05:01:00      -95.701      -29.558       -4.614       25.806       18.831       17.896      665.930      354.603      320.266        0.570        0.067      100.162       15.926        0.025      339.133       12.256      866.476
05/10/2013  05:02:00      -77.188      -25.401       -1.007       25.730       16.561       11.615      662.009      274.263      134.911        0.384        0.054       81.260       10.242        0.016      339.174       12.326      866.494
05/10/2013  05:03:00      -90.972      -32.353       -1.731       24.899       18.308       14.032      619.977      335.187      196.909        0.524        0.058       96.554       15.510        0.026      339.179       12.335      866.507
05/10/2013  05:04:00      -96.435      -55.686       -0.991       29.724       23.805       16.536      883.491      566.692      273.446        0.706        0.086      111.358       14.748        0.018      339.153       12.292      866.514
05/10/2013  05:05:00      -73.355      -49.302       -2.798       36.800       19.927       15.588     1354.238      397.088      242.993        0.491        0.100       88.383       11.605        0.017      339.177       12.329      866.527
05/10/2013  05:06:00      -62.703      -35.250        3.666       38.555       19.955       13.784     1486.502      398.188      190.012        0.363        0.104       71.932       17.470        0.059      339.220       12.404      866.540
05/10/2013  05:07:00      -45.345      -36.522       10.478       42.164       25.117       20.218     1777.765      630.843      408.757        0.316        0.141       58.224       21.363        0.135      339.298       12.535      866.548
05/10/2013  05:08:00      -55.460      -55.703        5.698       40.097       23.220       19.487     1607.765      539.169      379.760        0.437        0.126       78.604       23.628        0.090      339.373       12.661      866.545
05/10/2013  05:09:00      -81.730      -45.658        0.020       27.480       20.743       12.788      755.172      430.275      163.524        0.506        0.067       93.618       13.864        0.022      339.389       12.690      866.541
05/10/2013  05:10:00     -100.178      -26.383       -2.106       27.391       30.754       15.376      750.278      945.787      236.432        0.633        0.097      103.594       13.766        0.018      339.292       12.526      866.545
05/10/2013  05:11:00     -115.213      -15.784       -2.916       38.961       23.701       21.875     1517.972      561.725      478.527        0.804        0.128      116.290       21.556        0.034      339.133       12.258      866.557
05/10/2013  05:12:00     -143.262      -44.424       -3.089       42.696       33.890       19.182     1822.941     1148.502      367.965        1.292        0.167      149.991       21.590        0.021      339.146       12.280      866.559
05/10/2013  05:13:00     -123.629      -39.472        2.624       43.248       32.494       24.184     1870.383     1055.878      584.860        1.018        0.176      129.777       22.076        0.029      339.115       12.227      866.562
05/10/2013  05:14:00      -80.363      -15.306        2.694       45.654       31.112       20.070     2084.316      967.931      402.796        0.508        0.173       81.808       22.113        0.073      339.061       12.138      866.558
05/10/2013  05:15:00     -126.113      -28.679        0.365       45.635       32.834       21.660     2082.589     1078.078      469.163        1.018        0.181      129.333       17.736        0.019      339.044       12.108      866.565
05/10/2013  05:16:00     -138.960      -43.759       -5.960       43.737       34.209       22.571     1912.957     1170.242      509.432        1.243        0.180      145.687       24.296        0.028      338.990       12.017      866.573
05/10/2013  05:17:00     -170.630      -69.067      -17.642       28.720       29.334       15.628      824.845      860.495      244.244        1.806        0.096      184.078       10.548        0.003      339.013       12.058      866.577
05/10/2013  05:18:00     -176.195      -76.578       -7.790       38.783       31.902       22.727     1504.153     1017.717      516.520        2.000        0.152      192.117       21.436        0.012      338.919       11.898      866.580
05/10/2013  05:19:00     -182.778      -46.503      -11.489       49.914       33.737       25.962     2491.370     1138.217      674.017        2.000        0.215      188.601       25.587        0.018      338.958       11.962      866.574
05/10/2013  05:20:00     -179.536      -53.378       -9.677       41.527       38.852       22.725     1724.451     1509.473      516.440        1.946        0.188      187.303       19.736        0.011      338.987       12.012      866.570
05/10/2013  05:21:00     -149.108      -58.536       -2.058       52.413       38.844       27.704     2747.172     1508.838      767.510        1.534        0.251      160.186       21.282        0.018      338.994       12.024      866.577
05/10/2013  05:22:00     -144.856      -36.197      -11.419       51.535       52.498       30.408     2655.868     2755.988      924.616        1.438        0.317      149.310       27.175        0.033      339.008       12.046      866.583
05/10/2013  05:23:00     -151.181      -55.279      -12.534       39.475       27.722       25.420     1558.294      768.517      646.191        1.452        0.149      160.970       22.187        0.019      339.032       12.088      866.584
05/10/2013  05:24:00     -110.532      -38.269       -8.008       41.021       40.924       20.909     1682.696     1674.800      437.183        0.877        0.190      116.969       18.195        0.024      339.001       12.035      866.592
05/10/2013  05:25:00     -128.096      -32.635       -4.547       45.890       24.853       21.973     2105.870      617.684      482.817        1.035        0.160      132.187       27.089        0.042      339.076       12.160      866.607
05/10/2013  05:26:00      -91.798      -45.376        4.309       47.664       24.274       21.845     2271.861      589.228      477.200        0.692        0.167      102.401       26.529        0.067      339.103       12.208      866.627
05/10/2013  05:27:00     -113.200      -40.117       -6.216       26.676       20.517       19.577      711.632      420.928      383.245        0.799        0.076      120.098       15.088        0.016      339.119       12.233      866.631
05/10/2013  05:28:00      -91.202      -44.600       -4.442       29.871       31.929       18.450      892.261     1019.435      340.403        0.629        0.113      101.523       16.211        0.025      339.125       12.245      866.631
05/10/2013  05:29:00      -92.623      -45.417       -6.997       37.093       28.531       14.867     1375.856      814.040      221.040        0.655        0.121      103.158        2.774        0.001      339.178       12.332      866.643
05/10/2013  05:30:00      -86.234      -48.733       -5.082       44.449       24.028       14.825     1975.681      577.345      219.771        0.630        0.139       99.051       10.652        0.012      339.167       12.314      866.648
05/10/2013  05:31:00      -51.007      -41.666       11.156       37.675       26.957       20.942     1419.403      726.680      438.581        0.352        0.129       65.861       17.359        0.069      339.215       12.396      866.665
05/10/2013  05:32:00     -112.825      -83.553       -0.062       52.851       36.257       25.310     2793.253     1314.564      640.608        1.223        0.237      140.394       26.424        0.035      339.142       12.272      866.676
05/10/2013  05:33:00     -128.199      -34.943       -7.872       30.525       27.810       18.923      931.751      773.402      358.066        0.989        0.103      132.876       17.075        0.017      339.127       12.248      866.677
05/10/2013  05:34:00     -124.423      -46.704       -3.775       43.155       27.120       16.309     1862.372      735.478      265.975        1.027        0.143      132.900       14.055        0.011      339.109       12.216      866.676
05/10/2013  05:35:00     -145.453      -63.625       -4.334       41.769       24.478       19.290     1744.629      599.159      372.088        1.397        0.136      158.760       17.246        0.012      339.077       12.163      866.683
05/10/2013  05:36:00     -156.033      -55.084       -7.487       28.625       22.975       12.172      819.402      527.865      148.148        1.447        0.075      165.471       13.815        0.007      339.072       12.155      866.693
05/10/2013  05:37:00     -147.475      -35.792       -2.702       34.751       29.847       20.802     1207.598      890.847      432.707        1.278        0.127      151.756       20.335        0.018      339.081       12.170      866.690
05/10/2013  05:38:00     -149.284      -75.156       -7.674       25.281       22.631       16.523      639.146      512.168      273.013        1.471        0.071      167.135       12.649        0.006      339.091       12.187      866.685
05/10/2013  05:39:00     -161.707      -44.035      -16.328       17.423       18.751       16.143      303.557      351.606      260.605        1.464        0.046      167.595        9.954        0.004      339.161       12.304      866.678
05/10/2013  05:40:00     -157.743      -32.975      -15.950       20.649       22.076       16.917      426.370      487.350      286.199        1.371        0.060      161.153       13.265        0.007      339.231       12.424      866.672
05/10/2013  05:41:00     -117.039      -40.245        0.212       53.399       29.173       26.662     2851.484      851.083      710.843        0.986        0.221      123.765       26.561        0.046      339.269       12.486      866.675
05/10/2013  05:42:00     -162.575      -46.062      -17.371       30.865       24.939       16.255      952.648      621.948      264.213        1.535        0.092      168.975       14.889        0.008      339.212       12.390      866.685
05/10/2013  05:43:00     -145.234      -62.412       -7.084       20.303       19.844       16.787      412.201      393.798      281.818        1.306        0.054      158.076       13.583        0.007      339.133       12.258      866.692
05/10/2013  05:44:00     -119.720      -56.764       -4.838       36.265       21.492       17.701     1315.178      461.885      313.317        0.983        0.105      132.495       16.574        0.016      339.170       12.321      866.701
05/10/2013  05:45:00     -101.039      -86.399       -7.426       45.622       36.213       27.314     2081.411     1311.386      746.060        1.093        0.207      132.943       24.416        0.034      339.237       12.433      866.704
05/10/2013  05:46:00     -141.564      -96.781       -3.823       47.086       33.170       25.366     2217.096     1100.277      643.426        1.669        0.198      171.485       21.356        0.016      339.368       12.652      866.709
05/10/2013  05:47:00     -134.120      -64.225       -1.249       38.531       41.522       26.670     1484.600     1724.039      711.311        1.302        0.196      148.705       21.059        0.020      339.547       12.955      866.709
05/10/2013  05:48:00      -96.837      -59.552       -0.466       41.919       32.669       16.274     1757.175     1067.264      264.841        0.801        0.154      113.683       22.660        0.040      339.500       12.876      866.717
05/10/2013  05:49:00     -113.764      -55.038       -2.457       38.517       28.456       17.022     1483.529      809.746      289.753        0.928        0.129      126.378       17.966        0.020      339.459       12.806      866.725
05/10/2013  05:50:00      -52.862      -30.929        6.612       54.481       30.625       25.270     2968.191      937.871      638.567        0.417        0.227       61.245       16.438        0.072      339.334       12.595      866.734
05/10/2013  05:51:00      -86.601      -82.532        2.592       52.366       39.554       30.381     2742.238     1564.519      923.019        0.977        0.261      119.630       28.958        0.059      339.452       12.796      866.747
05/10/2013  05:52:00      -63.490      -65.985        5.345       60.821       37.904       32.604     3699.137     1436.683     1063.021        0.731        0.310       91.570       33.327        0.132      339.420       12.741      866.755
05/10/2013  05:53:00      -81.635      -48.955       -3.456       58.562       31.758       23.761     3429.561     1008.593      564.603        0.704        0.250       95.189       26.835        0.079      339.424       12.747      866.759
05/10/2013  05:54:00      -88.436      -67.549       -3.115       49.273       41.456       20.669     2427.801     1718.607      427.197        0.848        0.229      111.282       23.913        0.046      339.479       12.839      866.758
05/10/2013  05:55:00      -77.019      -44.997        1.704       51.288       37.767       22.726     2630.409     1426.376      516.480        0.627        0.229       89.200       24.122        0.073      339.493       12.864      866.764
05/10/2013  05:56:00      -98.031      -55.717        0.920       32.901       28.577       17.758     1082.481      816.642      315.361        0.746        0.111      112.759       18.282        0.026      339.482       12.846      866.770
05/10/2013  05:57:00     -100.938      -53.772       -8.959       20.824       23.830       15.004      433.644      567.852      225.120        0.719        0.061      114.368        4.550        0.002      339.479       12.841      866.783
05/10/2013  05:58:00      -69.156      -49.017       -2.275       38.418       27.927       20.121     1475.916      779.938      404.856        0.493        0.133       84.765       17.623        0.043      339.599       13.044      866.793
05/10/2013  05:59:00      -92.531      -61.222       -9.865       39.382       23.596       16.711     1550.926      556.760      279.267        0.740        0.119      110.950        8.013        0.005      339.560       12.978      866.811
05/10/2013  06:00:00      -98.660      -42.997      -12.638       12.684       16.178       10.887      160.880      261.717      118.530        0.614        0.027      107.622        5.083        0.002      339.544       12.949      866.826
05/10/2013  06:01:00      -72.706      -50.288       -3.915       17.547       16.280       15.484      307.890      265.033      239.769        0.432        0.041       88.403       10.058        0.013      339.521       12.908      866.846
05/10/2013  06:02:00      -47.695      -31.113        1.922       27.929       17.562       14.804      780.037      308.423      219.161        0.228        0.065       56.946       11.760        0.043      339.518       12.905      866.862
05/10/2013  06:03:00      -43.240      -31.543        0.143       31.679       23.638       17.329     1003.552      558.768      300.300        0.236        0.093       53.522       21.543        0.162      339.545       12.951      866.875
05/10/2013  06:04:00        1.893        0.946       20.070       26.971       18.939       17.361      727.418      358.683      301.390        0.090        0.069        2.116       13.354       39.832      339.484       12.850      866.897
05/10/2013  06:05:00      -31.860      -29.069        3.224       26.093       24.945       15.543      680.828      622.274      241.596        0.171        0.077       43.129       14.595        0.115      339.592       13.032      866.915
05/10/2013  06:06:00      -30.107      -28.842        2.143       23.407       17.432       12.473      547.876      303.867      155.582        0.137        0.050       41.692        9.596        0.053      339.626       13.088      866.935
05/10/2013  06:07:00      -46.732      -37.325        2.121       28.299       23.178       15.670      800.822      537.208      245.536        0.258        0.079       59.808       14.973        0.063      339.616       13.072      866.956
05/10/2013  06:08:00      -32.043      -38.382       -2.537       26.516       11.895       12.267      703.104      141.493      150.475        0.175        0.050       49.999        7.708        0.024      339.674       13.169      866.975
05/10/2013  06:09:00      -56.078      -55.907        2.928       36.902       27.242       17.695     1361.767      742.124      313.115        0.435        0.121       79.186       14.672        0.034      339.537       12.939      866.998
05/10/2013  06:10:00      -89.049      -90.841       -1.400       44.433       45.633       23.397     1974.305     2082.413      547.429        1.039        0.230      127.208       20.340        0.026      339.602       13.048      867.020
05/10/2013  06:11:00      -36.918      -52.932        9.674       47.565       53.712       27.089     2262.423     2884.957      733.791        0.507        0.294       64.535       32.879        0.260      339.562       12.980      867.048
05/10/2013  06:12:00      -55.545      -32.951       -7.344       39.709       26.279       21.566     1576.838      690.584      465.104        0.348        0.137       64.583       19.939        0.095      339.574       13.001      867.074
05/10/2013  06:13:00      -23.990      -25.881        8.390       37.017       27.247       21.257     1370.261      742.406      451.856        0.194        0.128       35.289       21.110        0.358      339.523       12.915      867.090
05/10/2013  06:14:00      -58.248      -62.330        9.834       53.142       28.002       26.789     2824.067      784.104      717.653        0.585        0.216       85.310       23.604        0.077      339.426       12.749      867.098
05/10/2013  06:15:00     -106.731      -71.152       -5.813       38.651       39.585       21.459     1493.903     1566.995      460.492        1.000        0.176      128.273       17.964        0.020      339.329       12.590      867.106
05/10/2013  06:16:00      -77.258      -66.504       -2.500       53.663       32.059       24.641     2879.700     1027.801      607.201        0.746        0.226      101.939        7.235        0.005      339.296       12.531      867.111
05/10/2013  06:17:00      -34.996      -17.305       -0.950       29.233       21.563       19.361      854.589      464.951      374.854        0.161        0.085       39.041        6.708        0.030      339.307       12.550      867.111
05/10/2013  06:18:00      -56.645      -16.203       -1.824       29.443       21.083       17.709      866.896      444.510      313.622        0.255        0.081       58.916        8.561        0.021      339.374       12.663      867.100
05/10/2013  06:19:00      -73.161      -59.444      -12.825       29.690       24.871       15.908      881.492      618.573      253.065        0.540        0.088       94.266        7.881        0.007      339.350       12.623      867.090
05/10/2013  06:20:00      -65.030      -52.666      -11.150       30.871       20.244       16.031      953.013      409.814      256.988        0.437        0.081       83.681       11.993        0.021      339.423       12.748      867.091
05/10/2013  06:21:00      -63.993      -39.615        1.602       18.836       20.083       12.450      354.780      403.330      155.006        0.329        0.046       75.263        7.062        0.009      339.339       12.604      867.080
05/10/2013  06:22:00      -43.750      -52.893        0.174       37.175       34.194       24.683     1382.012     1169.262      609.236        0.394        0.158       68.642       20.038        0.085      339.350       12.623      867.089
05/10/2013  06:23:00      -65.218      -88.398        3.168       43.573       40.951       26.775     1898.628     1677.003      716.925        0.818        0.215      109.853       20.903        0.036      339.331       12.589      867.095
05/10/2013  06:24:00     -109.155     -101.489       -0.573       57.549       31.236       32.901     3311.894      975.715     1082.478        1.379        0.269      149.046       24.492        0.027      339.336       12.599      867.094
05/10/2013  06:25:00     -111.987      -46.658        1.054       47.721       40.046       33.156     2277.333     1603.687     1099.325        0.985        0.249      121.318       26.794        0.049      339.345       12.614      867.104
05/10/2013  06:26:00     -102.368      -94.439       -2.421       43.342       38.234       25.823     1878.565     1461.842      666.838        1.170        0.200      139.276       24.333        0.031      339.355       12.632      867.110
05/10/2013  06:27:00      -54.647      -50.825        8.733       57.222       42.330       29.959     3274.357     1791.834      897.540        0.580        0.298       74.629       15.019        0.040      339.401       12.709      867.133
05/10/2013  06:28:00      -61.734      -45.194        2.032       62.945       31.087       24.341     3962.071      966.384      592.460        0.569        0.276       76.509       27.118        0.126      339.385       12.683      867.155
05/10/2013  06:29:00      -95.926      -64.691       -0.221       45.815       39.369       25.355     2098.978     1549.914      642.880        0.884        0.215      115.701       26.127        0.051      339.326       12.582      867.180
05/10/2013  06:30:00     -108.179      -85.776       -0.855       39.113       37.235       28.050     1529.844     1386.423      786.781        1.138        0.185      138.058       23.063        0.028      339.272       12.491      867.203
05/10/2013  06:31:00      -96.964      -80.972      -13.371       38.549       28.968       20.040     1486.015      839.170      401.590        0.943        0.136      126.326       12.385        0.010      339.246       12.448      867.218
05/10/2013  06:32:00      -98.306     -110.283      -17.678       25.205       39.921       23.097      635.270     1593.724      533.487        1.245        0.138      147.737        7.404        0.003      339.258       12.468      867.245
05/10/2013  06:33:00      -65.348      -74.434       -7.914       27.923       33.090       16.076      779.668     1094.932      258.450        0.600        0.107       99.050       10.305        0.011      339.310       12.554      867.265
05/10/2013  06:34:00      -42.561      -45.526       -4.681       20.323       15.802       15.713      413.023      249.713      246.910        0.241        0.045       62.322       13.465        0.047      339.366       12.650      867.271
05/10/2013  06:35:00       25.564       -1.926       24.284       17.325       16.649       10.502      300.152      277.182      110.298        0.097        0.034       25.636        5.839        0.052      339.546       12.953      867.284
05/10/2013  06:36:00      -27.535      -14.100        9.013       28.265       33.988       14.808      798.887     1155.204      219.291        0.161        0.109       30.935       17.796        0.331      339.599       13.043      867.284
05/10/2013  06:37:00      -81.776      -41.092       -7.777       24.505       29.190       15.726      600.487      852.030      247.317        0.507        0.085       91.519       15.542        0.029      339.356       12.633      867.296
05/10/2013  06:38:00      -73.619      -47.224      -12.694       11.886       13.018       10.888      141.274      169.456      118.550        0.412        0.021       87.464        8.515        0.009      339.267       12.483      867.299
05/10/2013  06:39:00      -71.557      -39.206       -4.997       16.308       11.475       10.740      265.943      131.665      115.353        0.360        0.026       81.593        6.801        0.007      339.317       12.567      867.305
05/10/2013  06:40:00      -44.128      -32.275       -3.114       22.185       10.155       12.143      492.194      103.127      147.458        0.187        0.037       54.671       10.116        0.034      339.327       12.584      867.314
05/10/2013  06:41:00      -58.993      -37.439       -8.525       18.949       13.384        9.204      359.057      179.132       84.720        0.279        0.031       69.871        5.996        0.007      339.332       12.592      867.327
05/10/2013  06:42:00      -67.804      -57.593        0.487       26.943       15.142       14.970      725.918      229.283      224.088        0.455        0.059       88.963       14.638        0.027      339.377       12.670      867.337
05/10/2013  06:43:00      -65.349      -62.375       -2.868       26.232       21.124       16.403      688.104      446.230      269.044        0.479        0.070       90.339       14.385        0.025      339.361       12.640      867.347
05/10/2013  06:44:00      -73.323      -55.598       -7.624       20.088       12.531       10.370      403.511      157.032      107.533        0.460        0.033       92.019        6.411        0.005      339.368       12.656      867.361
05/10/2013  06:45:00      -32.064      -43.115       14.330       38.054       35.414       25.819     1448.074     1254.163      666.612        0.323        0.168       53.731       25.704        0.229      339.534       12.934      867.387
05/10/2013  06:46:00      -75.755      -88.196       -4.392       41.952       38.200       21.359     1759.983     1459.216      456.223        0.861        0.184      116.264       17.858        0.024      339.307       12.550      867.418
05/10/2013  06:47:00      -96.229      -79.058       -0.718       47.429       37.526       23.828     2249.469     1408.198      567.777        0.987        0.211      124.540       20.671        0.028      339.347       12.618      867.449
05/10/2013  06:48:00      -93.460      -72.855      -11.815       30.901       27.405       18.808      954.867      751.045      353.748        0.812        0.103      118.502       10.868        0.008      339.320       12.572      867.484
05/10/2013  06:49:00      -85.992      -90.317       -6.577       38.918       29.801       16.327     1514.632      888.121      266.576        0.913        0.133      124.706       17.790        0.020      339.349       12.622      867.505
05/10/2013  06:50:00      -92.084      -76.038       -9.199       23.293       24.862       18.022      542.558      618.098      324.778        0.792        0.074      119.421       13.888        0.014      339.382       12.679      867.527
05/10/2013  06:51:00      -52.796      -85.334       -1.608       30.843       39.209       19.129      951.271     1537.349      365.908        0.646        0.143      100.346       21.913        0.048      339.487       12.853      867.543
05/10/2013  06:52:00      -45.933      -48.799        2.956       36.049       30.727       18.999     1299.533      944.130      360.949        0.355        0.130       67.016       23.176        0.120      339.565       12.985      867.543
05/10/2013  06:53:00      -72.047     -118.501       -8.385       25.458       27.533       20.343      648.095      758.042      413.841        1.056        0.091      138.684        9.460        0.005      339.470       12.825      867.550
05/10/2013  06:54:00      -38.330      -72.029       -1.883       31.530       30.926       20.632      994.121      956.411      425.677        0.452        0.119       81.593       15.939        0.038      339.554       12.966      867.535
05/10/2013  06:55:00      -49.363      -98.404       -4.971       19.212       30.407       16.901      369.120      924.614      285.633        0.686        0.079      110.092       12.392        0.013      339.513       12.896      867.542
05/10/2013  06:56:00      -99.097     -118.674      -12.701       43.030       45.701       23.296     1851.613     2088.601      542.682        1.427        0.224      154.608       19.231        0.015      339.503       12.878      867.534
05/10/2013  06:57:00      -89.504      -82.903       -8.030       52.308       39.223       26.151     2736.132     1538.434      683.898        0.995        0.248      121.999       26.585        0.047      339.515       12.900      867.537
05/10/2013  06:58:00      -96.479      -86.503      -10.139       40.889       44.948       28.733     1671.884     2020.359      825.595        1.071        0.226      129.580       17.629        0.019      339.545       12.952      867.533
05/10/2013  06:59:00      -94.953      -86.877       -7.703       50.315       42.151       24.019     2531.584     1776.682      576.888        1.075        0.244      128.700       30.521        0.056      339.559       12.976      867.531
05/10/2013  07:00:00      -71.644     -112.295      -10.657       53.254       39.498       27.228     2835.965     1560.119      741.350        1.150        0.257      133.203       23.494        0.031      339.588       13.024      867.528
05/10/2013  07:01:00     -101.139     -102.814       -6.911       45.112       39.591       23.858     2035.086     1567.426      569.195        1.251        0.209      144.221       22.607        0.025      339.622       13.081      867.524
05/10/2013  07:02:00     -122.722      -98.804        1.101       39.170       32.744       27.672     1534.283     1072.179      765.724        1.410        0.169      157.553       24.024        0.023      339.635       13.103      867.519
05/10/2013  07:03:00      -95.690      -97.062       -5.799       45.565       54.111       28.294     2076.207     2928.037      800.523        1.221        0.290      136.300       20.259        0.022      339.701       13.216      867.518
05/10/2013  07:04:00      -76.552      -51.755        3.986       67.582       35.754       31.172     4567.384     1278.338      971.684        0.768        0.341       92.405       26.093        0.080      339.738       13.278      867.519
05/10/2013  07:05:00      -62.159      -50.733        3.240       51.207       46.033       28.731     2622.201     2119.048      825.491        0.601        0.278       80.235       24.190        0.091      339.766       13.324      867.521
05/10/2013  07:06:00     -106.718     -127.002       -5.111       58.913       61.169       29.413     3470.694     3741.702      865.115        1.781        0.404      165.886       33.645        0.041      339.786       13.358      867.526
05/10/2013  07:07:00     -111.844     -132.244      -16.550       30.664       36.096       18.176      940.260     1302.934      330.365        1.642        0.129      173.198       18.045        0.011      339.773       13.336      867.548
05/10/2013  07:08:00      -35.078      -74.483        3.890       38.095       36.475       17.982     1451.249     1330.404      323.356        0.495        0.155       82.329       23.014        0.078      339.887       13.530      867.549
05/10/2013  07:09:00      -43.208      -80.191       -1.543       25.124       35.299       17.988      631.198     1246.041      323.561        0.525        0.110       91.091       15.498        0.029      339.870       13.500      867.551
05/10/2013  07:10:00      -11.549      -38.565       10.483       22.682       24.844       14.857      514.484      617.218      220.741        0.154        0.068       40.257       11.863        0.087      340.048       13.801      867.542
05/10/2013  07:11:00      -49.779      -52.527       -2.238       18.080       28.133       16.160      326.899      791.462      261.136        0.331        0.069       72.368        9.675        0.018      339.965       13.660      867.545
05/10/2013  07:12:00      -32.560      -44.300        8.114       44.324       36.645       25.496     1964.641     1342.891      650.063        0.352        0.198       54.979       28.067        0.261      340.072       13.842      867.541
05/10/2013  07:13:00      -71.131      -63.044       -1.715       28.758       22.806       15.613      827.020      520.119      243.754        0.531        0.080       95.048       12.605        0.018      339.976       13.678      867.538
05/10/2013  07:14:00      -84.069      -73.486        0.557       31.236       28.792       20.943      975.693      828.971      438.592        0.736        0.112      111.659       17.117        0.023      340.027       13.764      867.537
05/10/2013  07:15:00      -49.695      -39.712        6.807       43.043       40.671       21.209     1852.705     1654.102      449.824        0.402        0.198       63.613       19.600        0.095      340.124       13.929      867.535
05/10/2013  07:16:00      -50.657      -34.732        1.287       28.784       24.138       15.447      828.493      582.629      238.595        0.271        0.082       61.420       18.831        0.094      340.217       14.086      867.536
05/10/2013  07:17:00      -36.639      -18.835        5.333       30.781       28.189       19.077      947.471      794.626      363.943        0.192        0.105       41.197       21.097        0.262      340.524       14.604      867.537
05/10/2013  07:18:00      -81.179      -29.432       -8.062       38.597       29.965       18.170     1489.712      897.904      330.140        0.512        0.136       86.350       20.756        0.058      340.338       14.290      867.544
05/10/2013  07:19:00      -43.903      -30.927        2.334       38.836       16.326       16.863     1508.227      266.539      284.361        0.247        0.103       53.702       20.927        0.152      340.349       14.306      867.545
05/10/2013  07:20:00     -107.985      -37.974       -0.905       27.200       21.044       16.378      739.864      442.840      268.244        0.728        0.073      114.468       13.469        0.014      340.163       13.993      867.559
05/10/2013  07:21:00     -103.556      -29.015       -8.556       27.522       22.275       12.400      757.462      496.178      153.758        0.652        0.070      107.544        4.406        0.002      340.207       14.067      867.575
05/10/2013  07:22:00     -115.939      -18.242      -13.871       32.333       14.346       12.087     1045.427      205.814      146.084        0.768        0.070      117.365        9.251        0.006      340.203       14.061      867.578
05/10/2013  07:23:00      -38.940      -42.740       -9.779       26.025       18.470       15.087      677.312      341.143      227.623        0.234        0.062       57.819       12.531        0.047      340.403       14.398      867.590
05/10/2013  07:24:00      -25.874      -49.090       -1.002       31.491       35.148       22.796      991.673     1235.387      519.641        0.291        0.137       55.491       19.873        0.128      340.445       14.472      867.605
05/10/2013  07:25:00      -61.567      -56.797       -9.104       27.672       28.923       16.774      765.764      836.544      281.358        0.449        0.094       83.764       12.029        0.021      340.350       14.309      867.617
05/10/2013  07:26:00      -22.960      -71.443       -0.672       19.446       26.586       14.726      378.150      706.827      216.870        0.347        0.065       75.041       12.499        0.028      340.363       14.333      867.643
05/10/2013  07:27:00      -49.275      -56.994        1.502       42.261       24.339       25.188     1785.999      592.365      634.446        0.435        0.151       75.342       26.145        0.120      340.475       14.521      867.659
05/10/2013  07:28:00      -56.256      -53.779       -6.785       17.574       18.345       12.430      308.829      336.523      154.516        0.345        0.040       77.826       11.266        0.021      340.422       14.433      867.671
05/10/2013  07:29:00      -35.250     -113.181       -0.910       15.789       25.485       12.936      249.292      649.489      167.353        0.756        0.053      118.543        9.440        0.006      340.427       14.440      867.685
05/10/2013  07:30:00      -29.097     -109.872       -0.953       17.910       20.811       14.657      320.768      433.095      214.818        0.694        0.048      113.659       13.073        0.013      340.424       14.435      867.687
05/10/2013  07:31:00      -31.401     -105.293        3.945       25.094       33.408       17.504      629.726     1116.086      306.383        0.707        0.103      109.876       15.443        0.020      340.474       14.520      867.705
05/10/2013  07:32:00      -35.998      -83.992       10.315       25.591       34.796       19.590      654.913     1210.730      383.782        0.535        0.112       91.381       17.066        0.035      340.552       14.651      867.714
05/10/2013  07:33:00      -49.195     -138.688       -1.429       16.643       24.444       16.200      277.004      597.487      262.431        1.140        0.057      147.155       13.439        0.008      340.499       14.560      867.720
05/10/2013  07:34:00      -57.356     -146.636       -0.086       17.855       19.461       12.282      318.801      378.739      150.854        1.282        0.042      157.454       10.066        0.004      340.472       14.516      867.731
05/10/2013  07:35:00      -72.859     -105.310       -4.836       22.021       25.727       16.425      484.913      661.853      269.772        0.892        0.071      128.057       15.576        0.015      340.518       14.592      867.734
05/10/2013  07:36:00      -88.229      -66.984       -2.744       22.754       36.792       18.981      517.735     1353.682      360.266        0.725        0.112      110.775       12.270        0.012      340.577       14.694      867.735
05/10/2013  07:37:00      -51.753      -62.154       -2.502       21.549       30.762       19.268      464.376      946.300      371.241        0.416        0.089       80.880       13.137        0.026      340.580       14.699      867.747
05/10/2013  07:38:00      -49.301      -91.409       -4.433       20.221       23.790       17.005      408.886      565.950      289.162        0.603        0.063      103.856       15.295        0.022      340.595       14.723      867.752
05/10/2013  07:39:00      -35.601     -107.071       -1.195       15.412       20.187        9.801      237.540      407.530       96.067        0.674        0.037      112.834        2.772        0.001      340.613       14.755      867.748
05/10/2013  07:40:00      -47.722      -99.864       -3.561       18.749       21.566       10.881      351.531      465.095      118.388        0.660        0.047      110.681        7.601        0.005      340.656       14.826      867.741
05/10/2013  07:41:00      -53.714      -70.632       -2.453       26.203       29.601       14.146      686.594      876.245      200.123        0.482        0.088       88.736       15.344        0.030      340.711       14.920      867.739
05/10/2013  07:42:00      -51.523      -95.533       -6.526       18.822       26.244       14.270      354.284      688.765      203.620        0.654        0.062      108.542       14.864        0.019      340.703       14.909      867.733
05/10/2013  07:43:00      -65.239      -80.449       -2.559       18.998       29.914       13.995      360.921      894.838      195.874        0.609        0.073      103.577       10.752        0.011      340.750       14.986      867.730
05/10/2013  07:44:00      -80.302      -68.190       -8.825       19.358       20.361       15.075      374.740      414.575      227.269        0.610        0.051      105.349        9.806        0.009      340.803       15.076      867.728
05/10/2013  07:45:00      -56.097      -44.152       -2.506       43.017       32.988       18.989     1850.419     1088.232      360.582        0.420        0.165       71.389       21.240        0.089      340.970       15.357      867.722
05/10/2013  07:46:00      -22.467      -24.394       -3.146       21.277       18.216       11.143      452.705      331.817      124.156        0.101        0.045       33.164        5.786        0.030      340.994       15.399      867.720
05/10/2013  07:47:00       -6.274      -59.051       14.393       54.230       37.478       32.995     2940.896     1404.577     1088.663        0.458        0.272       59.383       40.257        0.460      341.091       15.564      867.710
05/10/2013  07:48:00      -77.150      -44.701       -7.304       40.313       27.330       21.300     1625.143      746.932      453.685        0.541        0.141       89.164       18.910        0.045      340.961       15.341      867.707
05/10/2013  07:49:00      -60.605      -65.738       -2.281       38.831       29.869       19.376     1507.864      892.159      375.424        0.539        0.139       89.412       23.542        0.069      340.969       15.356      867.707
05/10/2013  07:50:00      -56.790      -80.561        6.674       31.251       39.264       24.697      976.607     1541.649      609.928        0.644        0.156       98.566       20.621        0.044      341.017       15.438      867.697
05/10/2013  07:51:00      -44.126      -47.560        1.547       42.076       28.152       22.705     1770.367      792.559      515.497        0.364        0.154       64.877       22.975        0.125      341.161       15.682      867.687
05/10/2013  07:52:00      -47.300        7.110        8.859       35.972       36.373       17.493     1293.960     1323.015      305.994        0.264        0.146       47.832        9.553        0.040      341.380       16.054      867.686
05/10/2013  07:53:00      -89.969        3.364        0.552       44.732       40.944       22.826     2000.922     1676.421      521.048        0.615        0.210       90.031       15.422        0.029      341.515       16.281      867.677
05/10/2013  07:54:00     -119.963       -6.106       -0.672       50.597       43.675       25.680     2560.019     1907.493      659.467        0.978        0.256      120.119       21.972        0.033      341.363       16.023      867.658
05/10/2013  07:55:00     -107.763      -29.283       -3.035       45.467       33.943       17.573     2067.209     1152.112      308.805        0.800        0.176      111.671       15.484        0.019      341.151       15.665      867.641
05/10/2013  07:56:00      -81.682      -15.840       -5.470       41.083       39.629       15.760     1687.828     1570.439      248.372        0.523        0.175       83.204       15.874        0.036      341.179       15.713      867.637
05/10/2013  07:57:00      -97.802      -43.354       -0.922       51.532       34.757       24.629     2655.561     1208.035      606.575        0.796        0.224      106.980       30.078        0.079      341.227       15.794      867.629
05/10/2013  07:58:00      -86.051      -40.669       -3.688       31.761       18.318       21.279     1008.764      335.533      452.790        0.543        0.090       95.177       13.329        0.020      341.221       15.785      867.623
05/10/2013  07:59:00      -59.740      -34.453       -3.660       41.427       21.668       23.214     1716.168      469.514      538.877        0.375        0.136       68.963       26.053        0.143      341.382       16.056      867.625
05/10/2013  08:00:00      -20.030      -38.971       11.415       26.340       27.214       16.797      693.781      740.581      282.130        0.188        0.086       43.818       18.172        0.172      341.613       16.448      867.636
05/10/2013  08:01:00      -64.028      -38.446       -0.439       53.191       48.253       20.776     2829.301     2328.322      431.635        0.558        0.279       74.684       25.137        0.113      341.354       16.010      867.643
05/10/2013  08:02:00      -81.977      -11.113      -15.624       46.416       29.632       12.771     2154.468      878.078      163.103        0.514        0.160       82.727       12.681        0.023      341.253       15.838      867.653
05/10/2013  08:03:00      -30.262       -5.875       -3.678       28.120       19.176       15.174      790.719      367.718      230.243        0.118        0.069       30.827        9.272        0.090      341.616       16.453      867.647
05/10/2013  08:04:00      -39.346      -50.819       -9.481       26.944       26.149       19.941      725.999      683.768      397.629        0.301        0.090       64.270       10.855        0.029      341.478       16.219      867.659
05/10/2013  08:05:00      -94.750        2.278       -1.448       25.681       36.331       21.302      659.539     1319.965      453.767        0.571        0.122       94.777       14.155        0.022      341.377       16.046      867.667
05/10/2013  08:06:00      -84.923      -26.914        4.403       25.504       17.410       17.140      650.471      303.098      293.786        0.460        0.062       89.086       13.230        0.022      341.322       15.954      867.675
05/10/2013  08:07:00      -59.893      -44.171        2.042       26.619       33.390       17.336      708.582     1114.916      300.541        0.383        0.106       74.420       13.476        0.033      341.368       16.031      867.680
05/10/2013  08:08:00      -38.294      -56.752        7.189       26.607       21.221       21.915      707.918      450.339      480.257        0.319        0.082       68.464       18.214        0.071      341.441       16.155      867.686
05/10/2013  08:09:00      -30.484       20.588        3.936       46.019       38.953       32.793     2117.752     1517.337     1075.411        0.304        0.236       36.785       22.337        0.369      341.800       16.765      867.691
05/10/2013  08:10:00      -92.206       56.755      -20.807       23.502       31.879       16.748      552.324     1016.278      280.508        0.700        0.092      108.273       14.879        0.019      341.466       16.199      867.687
05/10/2013  08:11:00      -52.612       20.529        5.770       27.525       30.567       19.804      757.620      934.355      392.217        0.265        0.104       56.475       18.118        0.103      341.987       17.083      867.692
05/10/2013  08:12:00      -29.963      -21.032        3.303       17.113       26.251       15.638      292.843      689.113      244.535        0.129        0.061       36.608       11.859        0.105      341.794       16.753      867.701
05/10/2013  08:13:00      -65.191       -8.900       -5.489       43.032        9.911       13.327     1851.752       98.229      177.615        0.324        0.106       65.796       13.932        0.045      341.708       16.609      867.713
05/10/2013  08:14:00      -53.750      -29.007       -3.928       20.562       20.972       14.448      422.778      439.843      208.752        0.241        0.054       61.078       10.454        0.029      341.684       16.568      867.730
05/10/2013  08:15:00      -32.489     -104.543       -0.182       30.296       45.948       23.607      917.859     2111.249      557.299        0.779        0.179      109.475       25.083        0.052      341.603       16.430      867.751
05/10/2013  08:16:00      -50.729      -90.830        1.377       55.311       52.972       19.385     3059.362     2806.062      375.763        0.853        0.312      104.036       18.243        0.031      341.558       16.354      867.752
05/10/2013  08:17:00      -49.238      -40.320       -8.096       42.775       20.281       11.308     1829.719      411.300      127.863        0.324        0.118       63.641       14.037        0.049      341.542       16.326      867.762
05/10/2013  08:18:00      -37.833       14.839        7.314       22.076       22.539       23.131      487.371      508.025      535.032        0.162        0.077       40.640       13.357        0.108      341.798       16.761      867.768
05/10/2013  08:19:00       16.461       22.323       66.003       40.742       52.952       27.217     1659.880     2803.887      740.756        0.516        0.260       27.736       24.233        0.763      342.507       17.965      867.769
05/10/2013  08:20:00        7.480      -15.402       45.166       42.720       63.961       36.002     1824.986     4090.992     1296.137        0.477        0.361       17.122       29.154        2.899      342.272       17.566      867.772
05/10/2013  08:21:00      -36.474       14.112       38.883       31.592       39.512       36.895      998.030     1561.208     1361.205        0.348        0.196       39.109       33.712        0.743      342.191       17.429      867.776
05/10/2013  08:22:00       41.457      -57.355       13.084       60.825       57.764       43.440     3699.667     3336.626     1886.993        0.705        0.446       70.769       35.011        0.245      342.210       17.459      867.778
05/10/2013  08:23:00        4.217       25.773       19.339       37.371       42.321       43.695     1396.596     1791.100     1909.250        0.308        0.255       26.116       31.696        1.473      342.038       17.167      867.769
05/10/2013  08:24:00      -64.332      -17.184      -15.820       39.818       35.110       21.386     1585.484     1232.734      457.355        0.398        0.164       66.588       21.577        0.105      341.759       16.694      867.758
05/10/2013  08:25:00      -91.639      -69.337        4.553       58.540       34.596       27.272     3426.921     1196.888      743.743        0.930        0.268      114.914       28.840        0.063      341.864       16.874      867.757
05/10/2013  08:26:00      -91.143      -54.833        8.183       38.435       32.305       26.722     1477.240     1043.585      714.078        0.731        0.162      106.366       22.411        0.044      341.787       16.742      867.750
05/10/2013  08:27:00      -66.018      -31.142        5.603       47.797       22.349       19.705     2284.519      499.464      388.279        0.427        0.159       72.994       16.027        0.048      341.925       16.976      867.736
05/10/2013  08:28:00     -101.116      -19.320       -5.460       29.185       19.220       18.678      851.748      369.422      348.856        0.610        0.079      102.945        7.671        0.006      341.724       16.635      867.735
05/10/2013  08:29:00      -23.662      -27.602        1.505       22.274       17.543       11.806      496.116      307.764      139.386        0.113        0.047       36.356        9.138        0.063      341.958       17.031      867.734
05/10/2013  08:30:00      -29.775      -27.996       -2.184       17.154       17.943       13.747      294.265      321.963      188.966        0.124        0.040       40.869       11.671        0.082      341.995       17.096      867.720
05/10/2013  08:31:00      -28.295      -21.297       23.812       23.831       31.181       30.970      567.934      972.236      959.122        0.216        0.125       35.414       19.850        0.314      342.232       17.497      867.711
05/10/2013  08:32:00        0.273      -11.020       31.951       32.510       62.411       37.888     1056.879     3895.106     1435.491        0.376        0.319       11.023       36.736       11.107      342.600       18.123      867.715
05/10/2013  08:33:00       20.583       -9.232       38.280       48.792       55.939       42.670     2380.671     3129.156     1820.725        0.465        0.367       22.558       29.657        1.728      342.271       17.565      867.712
05/10/2013  08:34:00       60.139      -28.070       12.237       54.745       67.208       59.618     2996.962     4516.963     3554.338        0.781        0.553       66.367       52.087        0.616      342.429       17.832      867.720
05/10/2013  08:35:00       12.801       14.979       60.635       36.172       66.783       37.904     1308.415     4459.953     1436.723        0.563        0.360       19.704       25.165        1.631      342.457       17.879      867.734
05/10/2013  08:36:00       13.112       22.261       59.222       33.834       37.802       35.583     1144.728     1429.014     1266.116        0.401        0.192       25.835       21.953        0.722      342.556       18.049      867.755
05/10/2013  08:37:00       45.373      -45.537       29.564       32.446       50.836       37.955     1052.716     2584.274     1440.579        0.504        0.254       64.283       35.111        0.298      342.231       17.497      867.772
05/10/2013  08:38:00       47.937       13.451       39.364       43.594       54.649       43.031     1900.431     2986.531     1851.624        0.538        0.337       49.788       40.091        0.648      342.329       17.662      867.788
05/10/2013  08:39:00       49.080       10.369       16.369       39.376       59.000       43.657     1550.481     3480.991     1905.964        0.486        0.347       50.163       34.715        0.479      342.112       17.294      867.796
05/10/2013  08:40:00      -35.187      -60.192       -6.230       38.017       39.085       21.316     1445.286     1527.659      454.383        0.416        0.171       69.722       12.632        0.033      342.091       17.257      867.800
05/10/2013  08:41:00      -24.364      -46.318        5.834       27.311       25.043       16.517      745.866      627.143      272.820        0.221        0.082       52.335       11.350        0.047      341.986       17.079      867.806
05/10/2013  08:42:00      -23.001      -24.802       29.555       28.890       28.048       28.490      834.633      786.702      811.698        0.222        0.122       33.826       11.254        0.111      342.525       17.996      867.802
05/10/2013  08:43:00       40.847      -31.105        4.238       55.554       64.887       50.763     3086.263     4210.370     2576.880        0.626        0.494       51.341       45.702        0.792      342.729       18.344      867.800
05/10/2013  08:44:00       56.968      -22.272       16.343       59.011       48.731       52.245     3482.331     2374.718     2729.573        0.630        0.429       61.167       35.747        0.342      342.430       17.835      867.790
05/10/2013  08:45:00      111.126     -132.913      -12.982       82.449       97.345       54.156     6797.878     9476.085     2932.881        2.469        0.960      173.248       63.977        0.136      342.284       17.583      867.792
05/10/2013  08:46:00       56.363      -24.320       27.817       69.386       65.991       65.712     4814.376     4354.773     4318.125        0.901        0.674       61.386       46.091        0.564      342.569       18.069      867.787
05/10/2013  08:47:00       49.059      -36.897       33.159       52.280       74.566       57.965     2733.186     5560.095     3359.896        0.826        0.583       61.386       60.742        0.979      342.406       17.793      867.792
05/10/2013  08:48:00       17.624      -29.928       22.107       55.463       51.936       38.547     3076.106     2697.334     1485.849        0.448        0.363       34.732       33.287        0.919      342.571       18.073      867.797
05/10/2013  08:49:00       32.217      -86.599       26.041       44.885       59.702       42.472     2014.638     3564.373     1803.896        0.830        0.369       92.398       37.889        0.168      342.567       18.068      867.801
05/10/2013  08:50:00       66.057      -28.670       27.698       49.690       68.216       47.763     2469.103     4653.369     2281.313        0.768        0.470       72.011       43.094        0.358      342.394       17.774      867.802
05/10/2013  08:51:00       72.938      -25.944       35.981       72.609       77.867       73.663     5272.071     6063.318     5426.234        1.202        0.838       77.415       55.090        0.506      342.542       18.023      867.789
05/10/2013  08:52:00       47.976        5.759       60.616       59.927       48.929       50.821     3591.276     2394.024     2582.808        0.729        0.428       48.320       27.348        0.320      342.624       18.163      867.801
05/10/2013  08:53:00       15.228      -28.920       20.092       49.746       48.585       42.645     2474.678     2360.530     1818.563        0.406        0.333       32.684       25.362        0.602      342.514       17.978      867.809
05/10/2013  08:54:00       47.249      -29.871       28.622       50.164       67.050       43.371     2516.422     4495.705     1881.055        0.642        0.445       55.899       37.064        0.440      342.443       17.857      867.821
05/10/2013  08:55:00       15.878      -46.728       21.041       32.994       52.771       30.256     1088.597     2784.733      915.406        0.383        0.239       49.352       19.637        0.158      342.400       17.784      867.817
05/10/2013  08:56:00       15.486      -96.538        5.186       26.738       33.524       33.325      714.914     1123.868     1110.547        0.627        0.147       97.772       16.790        0.029      342.564       18.062      867.821
05/10/2013  08:57:00       37.265      -61.862       14.871       45.075       58.563       41.771     2031.775     3429.655     1744.821        0.632        0.360       72.219       40.396        0.313      342.692       18.280      867.812
05/10/2013  08:58:00       -5.792      -16.218       43.270       22.948       36.008       21.648      526.600     1296.592      468.650        0.223        0.115       17.221       16.502        0.918      343.086       18.949      867.810
05/10/2013  08:59:00        2.505       -4.583       34.207       35.600       28.701       27.622     1267.361      823.721      763.001        0.203        0.143        5.222       19.345       13.722      343.158       19.072      867.801
05/10/2013  09:00:00       15.400       -2.985       39.644       27.121       34.818       23.325      735.525     1212.278      544.062        0.215        0.125       15.687       15.908        1.028      343.261       19.248      867.792
05/10/2013  09:01:00       25.802       -9.768       45.956       36.279       45.436       31.192     1316.166     2064.388      972.938        0.361        0.218       27.589       25.317        0.842      342.771       18.415      867.801
05/10/2013  09:02:00       -4.254       -1.241       40.076       21.880       37.098       22.330      478.738     1376.238      498.640        0.199        0.118        4.431       14.906       11.314      342.785       18.440      867.791
05/10/2013  09:03:00       45.827       56.048       36.087       29.121       22.287       28.629      848.061      496.725      819.606        0.435        0.108       72.398       12.345        0.029      342.599       18.121      867.795
05/10/2013  09:04:00       18.384      -30.035       15.610       54.750       62.877       36.378     2997.547     3953.456     1323.357        0.488        0.414       35.215       30.524        0.751      342.708       18.308      867.789
05/10/2013  09:05:00       15.133      -72.827       26.133       29.720       76.433       51.639      883.268     5841.984     2666.566        0.780        0.470       74.382       52.067        0.490      342.798       18.460      867.789
05/10/2013  09:06:00       16.189      -39.363       18.402       38.550       67.552       51.600     1486.079     4563.309     2662.583        0.543        0.436       42.562       53.317        1.569      342.707       18.306      867.794
05/10/2013  09:07:00       15.410        8.905       57.308       42.264       45.583       31.245     1786.263     2077.836      976.235        0.422        0.242       17.798       16.842        0.895      343.188       19.123      867.784
05/10/2013  09:08:00       58.678       -5.979       23.591       54.836       42.034       44.742     3007.010     1766.870     2001.874        0.540        0.339       58.982       42.612        0.522      343.048       18.885      867.786
05/10/2013  09:09:00       -2.959       33.972       60.883       36.402       40.146       28.477     1325.103     1611.703      810.945        0.431        0.187       34.101       14.867        0.190      343.212       19.165      867.782
05/10/2013  09:10:00       14.074       17.792       42.976       48.769       44.746       42.571     2378.456     2002.213     1812.308        0.428        0.310       22.685       31.955        1.984      342.997       18.798      867.780
05/10/2013  09:11:00       32.062      -19.609       23.570       63.930       36.197       36.142     4087.059     1310.244     1306.230        0.433        0.335       37.583       31.843        0.718      343.026       18.849      867.782
05/10/2013  09:12:00       37.027        4.509       31.811       49.123       48.007       45.218     2413.114     2304.648     2044.639        0.458        0.338       37.301       36.240        0.944      343.054       18.895      867.772
05/10/2013  09:13:00       16.607      -22.004       52.888       35.038       75.192       40.777     1227.692     5653.764     1662.764        0.605        0.427       27.567       44.759        2.636      343.277       19.274      867.756
05/10/2013  09:14:00       30.072       -7.535       40.354       57.110       82.187       36.650     3261.507     6754.666     1343.207        0.697        0.568       31.002       29.256        0.891      343.175       19.102      867.745
05/10/2013  09:15:00       39.427      -29.230       24.575       47.691       90.856       42.258     2274.425     8254.847     1785.735        0.766        0.616       49.081       54.218        1.220      343.023       18.843      867.756
05/10/2013  09:16:00       15.521       43.562       15.100       37.048       59.731       31.895     1372.534     3567.797     1017.280        0.416        0.298       46.245       17.666        0.146      343.039       18.870      867.740
05/10/2013  09:17:00       57.022       51.123       13.460       25.859       28.259       28.569      668.684      798.556      816.193        0.416        0.114       76.584       11.462        0.022      342.726       18.337      867.726
05/10/2013  09:18:00       20.323       18.663       20.307       28.720       33.481       27.150      824.849     1120.964      737.120        0.193        0.134       27.592       13.171        0.228      343.060       18.907      867.729
05/10/2013  09:19:00       12.615      -13.382       40.428       30.876       58.045       31.834      953.305     3369.219     1013.395        0.365        0.267       18.390       26.407        2.062      343.221       19.180      867.716
05/10/2013  09:20:00       21.189      -78.914       13.821       49.806       92.093       38.401     2480.612     8481.096     1474.608        0.965        0.622       81.710       47.326        0.335      343.140       19.043      867.709
05/10/2013  09:21:00       -7.468       -9.553       13.160       32.077       45.128       34.980     1028.963     2036.493     1223.593        0.230        0.214       12.126       28.812        5.646      343.446       19.564      867.706
05/10/2013  09:22:00       23.113      -44.328        9.114      103.897       65.553       49.017    10794.489     4297.183     2402.626        1.004        0.875       49.992       53.673        1.153      343.053       18.894      867.695
05/10/2013  09:23:00       27.233      -52.812       23.661       56.431       78.820       41.138     3184.412     6212.619     1692.331        0.759        0.554       59.420       45.176        0.578      343.103       18.979      867.697
05/10/2013  09:24:00       40.716       20.714        9.428       37.801       59.738       37.554     1428.905     3568.596     1410.308        0.429        0.320       45.682       26.745        0.343      342.913       18.655      867.695
05/10/2013  09:25:00      109.347       83.032       38.230       45.974       28.517       36.749     2113.590      813.233     1350.484        1.229        0.214      137.299       17.399        0.016      342.946       18.710      867.703
05/10/2013  09:26:00      104.495      104.728        9.162       43.600       58.832       43.105     1900.936     3461.219     1858.063        1.459        0.361      147.943       23.590        0.025      342.677       18.255      867.712
05/10/2013  09:27:00       60.512       89.349       16.239       32.842       25.795       37.717     1078.606      665.386     1422.601        0.754        0.158      107.912       23.561        0.048      342.841       18.533      867.724
05/10/2013  09:28:00       70.897       98.174       -1.076       45.850       28.343       33.339     2102.259      803.329     1111.464        0.934        0.201      121.097       16.294        0.018      343.110       18.991      867.727
05/10/2013  09:29:00      131.524       95.297        8.482       40.879       26.738       29.159     1671.095      714.906      850.220        1.484        0.162      162.419       14.456        0.008      342.840       18.531      867.730
05/10/2013  09:30:00       84.065       69.033        0.529       25.280       25.298       32.051      639.088      639.990     1027.291        0.707        0.115      108.777       14.012        0.017      343.085       18.947      867.738
05/10/2013  09:31:00      100.027       79.178       -0.762       36.421       24.578       31.406     1326.518      604.093      986.323        0.960        0.146      127.571        4.958        0.002      342.869       18.580      867.738
05/10/2013  09:32:00       30.411       66.652       62.535       40.100       33.743       27.230     1607.983     1138.571      741.480        0.638        0.174       73.262       18.638        0.065      343.453       19.575      867.740
05/10/2013  09:33:00      -12.505      129.515       -6.941       29.151       38.231       28.996      849.776     1461.604      840.778        1.006        0.158      130.117       21.361        0.027      343.154       19.065      867.736
05/10/2013  09:34:00      -21.282      114.016       14.469       35.438       51.671       31.003     1255.867     2669.933      961.183        0.927        0.244      115.985       29.982        0.067      343.721       20.033      867.747
05/10/2013  09:35:00       26.279       32.005       46.935       31.024       35.781       21.534      962.513     1280.282      463.697        0.331        0.135       41.411       14.221        0.118      344.033       20.566      867.740
05/10/2013  09:36:00       58.797       47.762       21.301       36.472       22.616       37.495     1330.196      511.477     1405.851        0.472        0.162       75.752       14.857        0.038      343.594       19.816      867.747
05/10/2013  09:37:00       18.698      -11.937      -35.501       17.640       56.689       16.844      311.170     3213.589      283.718        0.278        0.190       22.183       20.309        0.838      343.088       18.953      867.741
05/10/2013  09:38:00       -5.365      -30.661       23.140       16.018       35.437       19.291      256.566     1255.781      372.132        0.169        0.094       31.127       18.949        0.371      343.790       20.150      867.734
05/10/2013  09:39:00      -28.211       21.870       17.893       32.010       26.949       27.290     1024.638      726.262      744.744        0.204        0.125       35.696       21.424        0.360      343.758       20.097      867.733
05/10/2013  09:40:00       -1.943        2.759        4.806       23.795       33.993       17.967      566.209     1155.500      322.801        0.104        0.102        3.374       12.034       12.718      343.963       20.446      867.730
05/10/2013  09:41:00       32.628       62.111        3.233       44.850       46.811       40.306     2011.495     2191.252     1624.547        0.538        0.291       70.160       34.323        0.239      343.781       20.135      867.726
05/10/2013  09:42:00       23.770       -2.623        8.316       47.030       16.127       21.220     2211.840      260.065      450.294        0.178        0.146       23.914       20.492        0.734      343.359       19.416      867.732
05/10/2013  09:43:00      -51.022       27.008        9.635       39.066       29.638       23.629     1526.180      878.422      558.314        0.319        0.148       57.729        7.561        0.017      343.462       19.591      867.733
05/10/2013  09:44:00        3.277        2.926       35.312       34.256       77.187       32.808     1173.497     5957.895     1076.371        0.474        0.410        4.393       39.166       79.485      344.087       20.658      867.730
05/10/2013  09:45:00       51.101     -127.039        0.734       58.915       43.580       44.559     3470.925     1899.245     1985.509        1.305        0.368      136.932       32.777        0.057      343.608       19.839      867.718
05/10/2013  09:46:00       31.525      -69.181       23.178       51.621       57.684       49.363     2664.745     3327.488     2436.692        0.737        0.421       76.026       31.977        0.177      343.894       20.327      867.713
05/10/2013  09:47:00       22.241       -5.549       56.389       48.407       48.052       34.729     2343.212     2309.040     1206.093        0.478        0.293       22.923       11.242        0.241      344.339       21.089      867.711
05/10/2013  09:48:00       45.799      -47.818       11.050       58.330       62.225       59.279     3402.379     3871.931     3513.963        0.765        0.539       66.212       53.029        0.641      343.986       20.485      867.718
05/10/2013  09:49:00       45.192        7.887       56.066       55.946       81.390       64.606     3129.904     6624.360     4173.884        0.959        0.696       45.875       58.758        1.640      344.062       20.615      867.726
05/10/2013  09:50:00       46.178       96.997       72.688       63.084       52.221       54.643     3979.618     2727.062     2985.818        1.326        0.485      107.428       38.993        0.132      343.674       19.953      867.730
05/10/2013  09:51:00       79.556       72.443       21.817       32.769       28.949       27.251     1073.836      838.019      742.600        0.735        0.133      107.597       14.506        0.018      343.362       19.421      867.737
05/10/2013  09:52:00       28.491       15.042       21.463       42.338       61.192       31.609     1792.540     3744.427      999.125        0.402        0.327       32.218       26.985        0.702      343.813       20.190      867.739
05/10/2013  09:53:00       -5.305      -46.366       18.558       31.595       48.176       35.813      998.220     2320.888     1282.541        0.356        0.230       46.668       16.921        0.131      344.163       20.787      867.748
05/10/2013  09:54:00       30.263      -55.950       29.257       42.302       40.167       31.515     1789.432     1613.352      993.200        0.465        0.220       63.610       26.440        0.173      344.091       20.663      867.753
05/10/2013  09:55:00       -2.524       -3.350       18.342       28.438       28.153       29.861      808.704      792.615      891.702        0.142        0.125        4.195       17.852       18.113      344.332       21.077      867.759
05/10/2013  09:56:00       24.354     -111.280       -5.946       39.256       62.587       37.188     1541.055     3917.191     1382.923        0.993        0.342      113.914       41.559        0.133      343.904       20.345      867.764
05/10/2013  09:57:00       -4.009       -2.032       52.851       18.573       30.051       22.320      344.951      903.080      498.197        0.228        0.087        4.495       18.067       16.155      344.476       21.323      867.764
05/10/2013  09:58:00      -18.981       23.225       63.109       18.370       33.179       21.926      337.455     1100.825      480.732        0.340        0.096       29.995       16.988        0.321      344.704       21.712      867.776
05/10/2013  09:59:00      -16.061      -12.258       20.629       19.346       25.269       21.092      374.250      638.518      444.859        0.115        0.073       20.204       16.053        0.631      344.366       21.134      867.777
05/10/2013  10:00:00      -44.813       14.043       11.681       34.084       14.293       18.457     1161.725      204.277      340.652        0.202        0.085       46.962       18.965        0.163      343.981       20.478      867.791
05/10/2013  10:01:00      -54.718      -13.207        3.667       27.875       28.612       26.452      776.995      818.643      699.731        0.274        0.115       56.290        7.706        0.019      343.705       20.006      867.800
05/10/2013  10:02:00      -70.696      -36.932        7.319       26.579       23.844       18.280      706.423      568.531      334.158        0.401        0.080       79.761       10.599        0.018      343.754       20.088      867.805
05/10/2013  10:03:00      -55.635      -11.773       -2.887       27.131       26.316       16.599      736.106      692.550      275.513        0.247        0.085       56.867       15.594        0.075      343.896       20.330      867.802
05/10/2013  10:04:00       -5.915      -18.608       13.206       37.702       29.624       28.142     1421.451      877.580      791.962        0.182        0.155       19.526       22.266        1.300      344.381       21.159      867.806
05/10/2013  10:05:00       -6.193      -45.136       17.976       51.893       40.224       26.993     2692.835     1617.990      728.633        0.372        0.252       45.559       30.293        0.442      344.234       20.910      867.797
05/10/2013  10:06:00       43.013      -91.446       -7.589       35.734       45.798       31.248     1276.918     2097.497      976.458        0.731        0.218      101.057       27.482        0.074      344.116       20.706      867.800
05/10/2013  10:07:00       27.089      -12.718       34.675       51.033       62.139       33.867     2604.365     3861.245     1146.961        0.485        0.381       29.925       30.127        1.014      344.413       21.214      867.795
05/10/2013  10:08:00        4.268      -27.760       17.794       31.048       51.061       24.750      963.968     2607.207      612.545        0.264        0.209       28.086       23.329        0.690      344.609       21.550      867.809
05/10/2013  10:09:00       -9.360       57.039       -2.416       54.045       31.845       26.447     2920.826     1014.101      699.420        0.399        0.232       57.802       25.952        0.202      344.237       20.914      867.814
05/10/2013  10:10:00       40.537       45.168       28.586       62.296       47.427       36.529     3880.770     2249.323     1334.345        0.598        0.373       60.691       28.801        0.225      344.488       21.341      867.823
05/10/2013  10:11:00       83.858       62.404       14.023       48.119       41.945       36.256     2315.458     1759.368     1314.465        0.826        0.269      104.529       17.324        0.027      344.299       21.020      867.825
05/10/2013  10:12:00      -10.454        9.458       46.076       32.512       54.118       47.528     1057.009     2928.723     2258.874        0.428        0.312       14.098       39.325        7.781      344.599       21.532      867.828
05/10/2013  10:13:00       51.092       61.290       78.610       56.115       54.779       45.074     3148.872     3000.709     2031.626        1.036        0.409       79.793       35.343        0.196      344.275       20.979      867.847
05/10/2013  10:14:00       92.855      100.605       65.195       47.308       39.575       37.624     2238.037     1566.172     1415.602        1.411        0.261      136.907       16.003        0.014      344.060       20.612      867.845
05/10/2013  10:15:00       76.264       70.742       69.201       54.561       35.955       40.433     2976.955     1292.774     1634.806        1.076        0.295      104.022       31.870        0.094      344.408       21.207      867.850
05/10/2013  10:16:00       72.884       57.620       37.714       45.875       36.110       43.971     2104.550     1303.934     1933.471        0.770        0.267       92.910       28.985        0.097      344.397       21.187      867.860
05/10/2013  10:17:00      109.321       73.490       48.424       40.363       34.766       43.228     1629.134     1208.653     1868.625        1.220        0.235      131.727       24.603        0.035      343.858       20.267      867.860
05/10/2013  10:18:00       36.426       48.366      -15.130       53.580       24.929       19.190     2870.806      621.454      368.254        0.388        0.193       60.549       21.195        0.123      343.878       20.301      867.871
05/10/2013  10:19:00      -23.372       46.293      -19.611       46.678       45.078       26.020     2178.824     2032.011      677.045        0.398        0.244       51.858       21.050        0.165      343.887       20.315      867.864
05/10/2013  10:20:00      -23.011       -1.991        2.590       45.523       18.408       26.474     2072.307      338.856      700.873        0.183        0.156       23.097       28.863        1.562      344.186       20.827      867.862
05/10/2013  10:21:00      -23.586       16.653       33.428       28.515       23.837       23.353      813.087      568.226      545.385        0.194        0.096       28.873       17.778        0.379      344.933       22.105      867.852
05/10/2013  10:22:00      -53.967       27.221        2.753       35.600       23.172       28.026     1267.371      536.958      785.482        0.312        0.129       60.443       19.965        0.109      344.433       21.250      867.861
05/10/2013  10:23:00       13.995       60.370       22.330       28.854       48.358       41.215      832.540     2338.501     1698.702        0.460        0.243       61.970       39.851        0.414      344.675       21.663      867.857
05/10/2013  10:24:00       20.615       45.917       36.146       39.582       30.269       24.207     1566.743      916.184      586.003        0.345        0.153       50.333       26.265        0.272      344.454       21.284      867.847
05/10/2013  10:25:00       -1.077       58.652       36.381       33.983       42.456       48.450     1154.845     1802.550     2347.416        0.503        0.265       58.662        7.298        0.015      344.623       21.573      867.844
05/10/2013  10:26:00      -60.673       32.372        7.830       23.804       17.794       25.214      566.611      316.634      635.737        0.315        0.076       68.769       15.026        0.048      344.382       21.160      867.840
05/10/2013  10:27:00      -57.135       58.222        9.288       36.018       75.022       40.312     1297.293     5628.333     1625.053        0.764        0.428       81.574       22.240        0.074      344.496       21.356      867.835
05/10/2013  10:28:00       -8.885      119.359        5.019       43.690       57.909       32.207     1908.840     3353.508     1037.277        1.032        0.315      119.689       32.410        0.073      344.964       22.158      867.825
05/10/2013  10:29:00      -17.457       86.871        6.081       43.675       59.794       31.148     1907.466     3575.368      970.192        0.717        0.323       88.608       25.172        0.081      344.971       22.170      867.819
05/10/2013  10:30:00       -8.445       45.620       16.127       34.800       40.283       30.197     1211.060     1622.760      911.869        0.308        0.187       46.396       23.994        0.267      345.303       22.739      867.813
05/10/2013  10:31:00       26.430       56.706        7.637       62.238       46.437       38.933     3873.572     2156.379     1515.798        0.576        0.377       62.563       27.555        0.194      344.861       21.981      867.805
05/10/2013  10:32:00       14.205      116.673      -16.918       58.066      103.118       39.741     3371.700    10633.299     1579.374        1.484        0.779      117.535       44.471        0.143      344.808       21.888      867.802
05/10/2013  10:33:00       22.471      132.917        3.388       40.625      100.642       44.779     1650.407    10128.737     2005.201        1.598        0.689      134.804       55.296        0.168      344.708       21.718      867.787
05/10/2013  10:34:00        5.537      189.803      -17.573       34.394       45.642       31.689     1182.962     2083.148     1004.211        2.032        0.214      189.884       22.992        0.015      344.304       21.026      867.801
05/10/2013  10:35:00       17.798       84.146        4.785       40.719       62.401       37.227     1658.058     3893.915     1385.813        0.718        0.347       86.008       32.913        0.146      344.841       21.947      867.795
05/10/2013  10:36:00       34.818       25.145       -4.553       27.543       29.583       24.261      758.602      875.180      588.610        0.204        0.111       42.949       20.494        0.228      344.599       21.534      867.796
05/10/2013  10:37:00       24.152       91.765      -16.245       26.957       64.705       30.607      726.655     4186.771      936.776        0.756        0.293       94.890       33.056        0.121      344.496       21.356      867.793
05/10/2013  10:38:00       43.540       67.466       16.570       42.299       53.715       40.292     1789.201     2885.327     1623.476        0.651        0.315       80.296       38.117        0.225      344.850       21.962      867.786
05/10/2013  10:39:00       67.891       80.017        2.490       35.564       35.305       32.112     1264.808     1246.435     1031.170        0.728        0.177      104.937       18.900        0.032      344.458       21.291      867.779
05/10/2013  10:40:00        5.379        1.240       26.614       27.022       27.960       20.530      730.176      781.783      421.490        0.134        0.097        5.520       11.676        4.474      344.993       22.206      867.773
05/10/2013  10:41:00       22.632      -51.602       20.599       45.856       55.487       37.916     2102.809     3078.757     1437.641        0.511        0.331       56.347       38.735        0.473      345.094       22.380      867.768
05/10/2013  10:42:00      -16.886       14.316       43.516       36.271       56.632       41.209     1315.606     3207.162     1698.169        0.430        0.311       22.138       37.215        2.826      345.316       22.761      867.763
05/10/2013  10:43:00      -12.678       32.649       49.541       40.320       36.242       33.323     1625.732     1313.503     1110.423        0.386        0.202       35.024       17.881        0.261      345.430       22.956      867.770
05/10/2013  10:44:00       63.534       52.006       36.803       58.532       61.269       47.533     3426.040     3753.840     2259.368        0.877        0.472       82.105       25.425        0.096      345.382       22.873      867.773
05/10/2013  10:45:00       81.451       49.329       38.127       78.959       64.974       58.930     6234.535     4221.585     3472.772        1.222        0.696       95.224       32.991        0.120      345.302       22.735      867.754
05/10/2013  10:46:00       71.310       74.371       71.542       69.557       55.031       34.447     4838.129     3028.388     1186.563        1.239        0.453      103.035       30.086        0.085      344.964       22.157      867.766
05/10/2013  10:47:00        2.887       19.350       32.902       26.525       34.533       30.223      703.568     1192.517      913.404        0.214        0.140       19.564        9.632        0.242      345.624       23.288      867.751
05/10/2013  10:48:00       44.715       57.860       27.574       53.026       35.754       37.744     2811.770     1278.369     1424.630        0.581        0.276       73.125       17.102        0.055      344.848       21.960      867.751
05/10/2013  10:49:00      -12.230       25.266       -9.170       32.635       38.040       30.361     1065.029     1447.076      921.777        0.215        0.172       28.071       21.214        0.571      344.691       21.690      867.732
05/10/2013  10:50:00       17.358       30.661       14.383       23.879       33.560       25.022      570.215     1126.244      626.080        0.189        0.116       35.234       18.800        0.285      345.233       22.619      867.731
05/10/2013  10:51:00      -12.247       26.460        3.442       30.989       23.942       27.698      960.288      573.225      767.159        0.158        0.115       29.157       12.384        0.180      345.169       22.509      867.727
05/10/2013  10:52:00      -12.990       19.801       11.202       27.035       33.243       24.470      730.894     1105.127      598.765        0.156        0.122       23.681       18.390        0.603      345.737       23.482      867.740
05/10/2013  10:53:00       -3.968       19.443       33.929       16.659       28.453       17.423      277.511      809.589      303.567        0.147        0.070       19.844        9.660        0.237      345.980       23.899      867.737
05/10/2013  10:54:00       40.647      -57.368       22.471       74.693       70.268       45.993     5579.083     4937.539     2115.314        0.904        0.632       70.308       40.154        0.326      345.298       22.727      867.740
05/10/2013  10:55:00      110.127     -145.331       -4.825       39.056       51.031       25.614     1525.343     2604.213      656.099        1.903        0.239      182.343       22.102        0.015      344.397       21.185      867.751
05/10/2013  10:56:00       57.492      -90.791       -9.867       55.454       49.327       36.674     3075.140     2433.146     1344.966        0.925        0.343      107.464       20.922        0.038      344.815       21.902      867.748
05/10/2013  10:57:00        2.340      -23.747       23.601       48.968       32.095       34.943     2397.856     1030.068     1220.996        0.289        0.232       23.862       31.090        1.698      345.590       23.230      867.749
05/10/2013  10:58:00       -7.719      -43.345       22.720       22.713       29.574       26.124      515.858      874.608      682.484        0.226        0.104       44.027       12.997        0.087      345.358       22.831      867.758
05/10/2013  10:59:00       40.921       62.937       51.334       62.587       42.551       33.947     3917.085     1810.630     1152.387        0.757        0.344       75.071       28.705        0.146      345.518       23.108      867.764
05/10/2013  11:00:00       49.541       72.049       76.979       53.991       47.615       50.892     2915.079     2267.176     2590.038        1.067        0.389       87.438       39.317        0.202      345.122       22.427      867.763
05/10/2013  11:01:00       45.951       49.266       74.038       47.586       39.467       24.989     2264.444     1557.663      624.469        0.723        0.222       67.370       21.612        0.103      345.265       22.673      867.755
05/10/2013  11:02:00       48.548       73.599       24.562       51.425       69.682       56.551     2644.568     4855.634     3198.028        0.954        0.535       88.168       33.629        0.145      345.432       22.957      867.759
05/10/2013  11:03:00       93.680       87.007        9.150       47.690       37.586       37.368     2274.364     1412.674     1396.389        1.076        0.254      127.853       23.581        0.034      344.706       21.714      867.770
05/10/2013  11:04:00      -65.199       78.415       -9.923       55.039       39.973       27.744     3029.322     1597.871      769.709        0.795        0.270      101.979       18.184        0.032      344.791       21.861      867.785
05/10/2013  11:05:00      -61.831       41.806        1.602       41.474       33.737       31.366     1720.101     1138.212      983.805        0.471        0.192       74.638       26.848        0.129      344.976       22.179      867.783
05/10/2013  11:06:00      -61.509      -45.559        0.941       29.200       38.535       21.487      852.624     1484.919      461.685        0.433        0.140       76.544       13.910        0.033      344.689       21.686      867.782
05/10/2013  11:07:00        1.357      -49.734        6.562       29.011       34.637       27.273      841.657     1199.751      743.841        0.265        0.139       49.752       16.336        0.108      344.855       21.969      867.778
05/10/2013  11:08:00      -20.149      -24.058      -32.656       26.728       36.307       16.730      714.402     1318.206      279.907        0.218        0.116       31.381       17.002        0.294      344.833       21.932      867.778
05/10/2013  11:09:00      -20.117       17.361      -10.845       34.538       24.825       20.903     1192.871      616.302      436.915        0.153        0.112       26.573       13.575        0.261      345.070       22.338      867.773
05/10/2013  11:10:00        6.099      -84.654       -2.724       76.401       99.666       65.040     5837.143     9933.301     4230.181        1.360        1.000       84.873       67.443        0.631      345.185       22.535      867.763
05/10/2013  11:11:00       18.321       -5.983       71.779       67.442      132.653       78.223     4548.439    17596.847     6118.873        1.689        1.413       19.273       95.371       24.487      345.231       22.614      867.751
05/10/2013  11:12:00      130.574     -189.418      -51.973       70.658       85.618       42.788     4992.484     7330.473     1830.838        3.489        0.708      230.063       36.653        0.025      345.198       22.555      867.738
05/10/2013  11:13:00      151.388     -165.343      -49.808       67.124       86.345       42.362     4505.569     7455.444     1794.548        3.324        0.688      224.180       47.522        0.045      344.929       22.095      867.736
05/10/2013  11:14:00       30.908     -131.466      -23.245       65.892       41.393       31.286     4341.779     1713.382      978.842        1.291        0.352      135.050       20.128        0.022      344.881       22.015      867.741
05/10/2013  11:15:00      -43.798      -38.852        0.657       51.640       52.758       29.766     2666.713     2783.410      886.040        0.488        0.317       58.547        9.005        0.024      345.237       22.625      867.726
05/10/2013  11:16:00       11.715      -58.065       38.874       38.583       74.475       44.864     1488.638     5546.525     2012.789        0.703        0.452       59.235       41.807        0.498      345.673       23.370      867.723
05/10/2013  11:17:00      -26.603      -38.448       37.241       59.529       61.752       34.668     3543.651     3813.270     1201.836        0.606        0.428       46.755       37.062        0.628      345.689       23.400      867.722
05/10/2013  11:18:00       30.906      -43.238       52.055       72.089      108.036       72.213     5196.822    11671.696     5214.749        1.381        1.104       53.148       75.972        2.043      345.708       23.432      867.718
05/10/2013  11:19:00       96.801      -84.307       -1.570       79.653      100.621       68.956     6344.555    10124.617     4754.981        1.885        1.061      128.367       71.792        0.313      345.422       22.939      867.715
05/10/2013  11:20:00       68.997      -40.380       46.307       74.956      102.319       82.617     5618.454    10469.226     6825.642        1.572        1.146       79.945       81.699        1.044      345.654       23.338      867.727
05/10/2013  11:21:00       66.755      -84.215       18.372       63.697       90.768       35.536     4057.295     8238.903     1262.795        1.272        0.678      107.464       39.660        0.136      345.350       22.817      867.739
05/10/2013  11:22:00       84.480       72.096       15.561       68.680       44.788       38.398     4716.924     2005.922     1474.406        1.039        0.410      111.062       27.370        0.061      345.268       22.678      867.732
05/10/2013  11:23:00       45.147       17.681        8.460       55.545       43.523       40.530     3085.218     1894.248     1642.704        0.452        0.331       48.486       29.897        0.380      345.632       23.302      867.735
05/10/2013  11:24:00      -14.840       -9.069      -19.849       49.135       29.531       28.423     2414.287      872.075      807.841        0.239        0.205       17.392       21.671        1.553      344.962       22.154      867.719
05/10/2013  11:25:00       -4.720        1.871       23.178       23.917       16.324       18.056      572.044      266.472      326.009        0.086        0.058        5.077       14.284        7.915      346.231       24.330      867.715
05/10/2013  11:26:00        5.660       19.577       40.523       52.243       44.618       34.020     2729.340     1990.765     1157.361        0.397        0.294       20.379       37.967        3.471      346.030       23.987      867.717
05/10/2013  11:27:00       68.675       55.033       56.365       42.991       79.493       40.823     1848.199     6319.091     1666.545        1.038        0.492       88.005       29.765        0.114      345.329       22.782      867.713
05/10/2013  11:28:00       46.167       -0.164       15.318       61.568       46.100       46.528     3790.659     2125.191     2164.888        0.522        0.404       46.167       37.007        0.643      345.692       23.405      867.699
05/10/2013  11:29:00       68.145      -77.771       22.806      100.873      117.200       71.539    10175.266    13735.952     5117.803        2.012        1.451      103.403       84.583        0.669      345.530       23.125      867.694
05/10/2013  11:30:00       58.272      -56.423       39.953       62.594      125.313       65.367     3917.955    15703.387     4272.822        1.603        1.195       81.112       81.782        1.017      345.606       23.256      867.692
05/10/2013  11:31:00      115.865     -200.838      -25.204       82.766      120.072       58.357     6850.179    14417.190     3405.568        3.953        1.234      231.863       67.616        0.085      345.274       22.684      867.677
05/10/2013  11:32:00      103.567      -73.129        5.197       77.673      115.432       75.037     6033.073    13324.625     5630.599        2.054        1.249      126.783       83.399        0.433      345.219       22.590      867.681
05/10/2013  11:33:00       87.580      -91.595       -6.564       70.301      101.815       71.502     4942.199    10366.365     5112.503        1.826        1.021      126.728       68.358        0.291      345.523       23.114      867.681
05/10/2013  11:34:00       61.115      -83.047        8.426       80.591       94.931       59.502     6494.891     9011.837     3540.468        1.487        0.952      103.111       53.732        0.272      345.436       22.966      867.679
05/10/2013  11:35:00        2.417       -7.778       60.860       32.012       83.134       37.577     1024.749     6911.228     1412.015        0.656        0.467        8.145       39.880       23.975      345.679       23.382      867.665
05/10/2013  11:36:00       20.818       69.126       36.579       47.131       32.054       50.247     2221.311     1027.470     2524.808        0.616        0.289       72.193       37.027        0.263      345.431       22.958      867.664
05/10/2013  11:37:00       71.445       76.429       10.845       52.942       43.696       30.802     2802.829     1909.347      948.754        0.836        0.283      104.622       24.945        0.057      345.225       22.603      867.649
05/10/2013  11:38:00       78.497       38.251        1.321       44.640       49.876       27.700     1992.762     2487.576      767.298        0.644        0.262       87.321       13.010        0.022      344.946       22.126      867.649
05/10/2013  11:39:00      155.128      114.907        9.574       63.796       44.321       60.777     4069.873     1964.376     3693.868        2.354        0.486      193.050       22.087        0.013      344.994       22.206      867.619
05/10/2013  11:40:00      117.839       79.311       19.995       83.775       50.956       41.200     7018.271     2596.473     1697.412        1.594        0.566      142.043       37.173        0.068      345.607       23.257      867.599
05/10/2013  11:41:00      128.305       89.225       59.591       67.198       46.758       44.044     4515.545     2186.296     1939.894        1.831        0.432      156.280       24.723        0.025      345.431       22.955      867.603
05/10/2013  11:42:00       59.117       50.502       28.559       57.692       48.439       51.167     3328.419     2346.322     2618.019        0.758        0.415       77.751       34.088        0.192      345.720       23.453      867.603
05/10/2013  11:43:00       93.585       93.851       11.158       99.543       66.588       46.798     9908.873     4433.973     2190.024        1.711        0.827      132.537       31.999        0.058      345.731       23.469      867.602
05/10/2013  11:44:00      153.405      103.998        5.510       82.948       60.030       55.109     6880.305     3603.589     3036.983        2.395        0.676      185.334       29.330        0.025      345.208       22.573      867.604
05/10/2013  11:45:00      127.433       84.303       26.475       55.575       57.351       48.070     3088.569     3289.162     2310.768        1.637        0.434      152.795        9.943        0.004      345.294       22.721      867.612
05/10/2013  11:46:00       53.266       27.672       36.296       61.036       84.265       63.647     3725.348     7100.565     4050.937        0.990        0.744       60.025       55.933        0.868      345.252       22.651      867.609
05/10/2013  11:47:00       51.521       49.147       52.269       41.484       34.203       26.048     1720.960     1169.849      678.514        0.568        0.178       71.203       13.132        0.034      345.668       23.363      867.605
05/10/2013  11:48:00       58.080       65.280       26.325       53.166       39.745       47.877     2826.668     1579.660     2292.213        0.751        0.335       87.377       23.534        0.073      345.495       23.067      867.594
05/10/2013  11:49:00       62.238       63.109       74.066       85.736       77.726       51.412     7350.653     6041.257     2643.151        1.469        0.802       88.635       41.726        0.222      345.649       23.330      867.582
05/10/2013  11:50:00      103.288       91.557       68.681       68.549       52.504       53.344     4698.968     2756.658     2845.604        1.703        0.515      138.026       47.435        0.118      345.551       23.160      867.574
05/10/2013  11:51:00       77.108       23.305       12.470       55.535      108.840       59.614     3084.083    11846.119     3553.868        1.256        0.924       80.552       52.917        0.432      345.531       23.129      867.569
05/10/2013  11:52:00       52.515     -142.134      -13.203       47.007       35.019       32.485     2209.627     1226.324     1055.259        1.381        0.225      151.526       28.491        0.035      345.208       22.574      867.551
05/10/2013  11:53:00       53.642       30.934        5.004       44.577       96.037       43.594     1987.104     9223.171     1900.394        0.848        0.656       61.923       31.520        0.259      345.703       23.424      867.561
05/10/2013  11:54:00       15.176      244.437      -28.095       46.213       85.816       46.619     2135.685     7364.348     2173.317        3.622        0.584      244.908       49.858        0.041      345.388       22.879      867.553
05/10/2013  11:55:00      168.029       89.089       27.578      113.743       77.444       64.638    12937.535     5997.620     4178.020        3.002        1.156      190.186       49.432        0.068      345.766       23.530      867.538
05/10/2013  11:56:00      159.616      114.169       15.719       82.276       64.029       61.912     6769.344     4099.770     3833.119        2.673        0.735      196.245       43.220        0.049      345.470       23.020      867.546
05/10/2013  11:57:00       56.063      118.365        4.406       64.696       97.899       55.302     4185.586     9584.232     3058.329        1.700        0.841      130.971       53.411        0.166      345.729       23.467      867.545
05/10/2013  11:58:00       -9.820       99.701        6.228       41.568       64.074       33.839     1727.880     4105.440     1145.070        0.853        0.349      100.183       33.897        0.114      345.723       23.459      867.530
05/10/2013  11:59:00      -18.545       87.344        7.119       33.067       73.752       35.986     1093.441     5439.363     1295.021        0.792        0.391       89.291       36.894        0.171      345.817       23.618      867.522
05/10/2013  12:00:00       59.118       66.172       16.392       55.151       62.089       39.907     3041.615     3855.071     1592.532        0.831        0.424       88.734       33.020        0.138      345.872       23.713      867.515
05/10/2013  12:01:00       74.900      130.578      -14.790       65.309       83.544       47.641     4265.274     6979.612     2269.678        1.819        0.676      150.534       44.457        0.087      345.657       23.344      867.501
05/10/2013  12:02:00       55.140      101.776       -0.786       62.552       72.091       51.763     3912.743     5197.042     2679.403        1.259        0.589      115.753       45.826        0.157      345.474       23.030      867.498
05/10/2013  12:03:00      107.002       72.854       19.802      110.362       71.068       51.985    12179.684     5050.647     2702.431        1.854        0.997      129.449       41.342        0.102      345.615       23.272      867.489
05/10/2013  12:04:00      198.531      147.310       50.820       78.307       67.663       65.670     6131.969     4578.261     4312.613        3.936        0.751      247.214       41.734        0.028      345.654       23.336      867.465
05/10/2013  12:05:00      119.750      112.564       20.918       48.865       37.455       53.998     2387.818     1402.874     2915.782        1.708        0.335      164.350       35.177        0.046      345.594       23.238      867.469
05/10/2013  12:06:00       94.211       72.854        4.089       38.540       35.614       19.508     1485.335     1268.378      380.565        0.867        0.157      119.094        8.338        0.005      345.118       22.420      867.474
05/10/2013  12:07:00       45.206       21.642       -6.218       17.440       19.970       29.611      304.167      398.802      876.815        0.206        0.079       50.120       14.069        0.079      345.272       22.684      867.456
05/10/2013  12:08:00       12.523       61.272      -18.269       24.627       22.485       18.320      606.509      505.584      335.639        0.285        0.072       62.539       15.843        0.064      345.135       22.450      867.443
05/10/2013  12:09:00      -68.632        8.727      -19.921       32.975       24.426       15.992     1087.337      596.613      255.733        0.356        0.097       69.185       11.587        0.028      345.457       23.001      867.430
05/10/2013  12:10:00     -118.108      -47.309      -26.002       45.754       37.218       26.078     2093.383     1385.172      680.045        1.051        0.208      127.231       21.406        0.028      345.206       22.573      867.412
05/10/2013  12:11:00      -54.953       82.008       -3.142       54.791       54.960       37.901     3002.072     3020.553     1436.517        0.861        0.373       98.717       37.133        0.141      345.692       23.405      867.402
05/10/2013  12:12:00      -44.412       73.334        3.078       43.633       65.005       30.497     1903.822     4225.620      930.061        0.721        0.353       85.733       40.772        0.226      346.275       24.405      867.391
05/10/2013  12:13:00      -81.132       91.637       -0.627       74.776       69.849       41.225     5591.434     4878.863     1699.506        1.357        0.608      122.392       48.293        0.156      345.959       23.861      867.376
05/10/2013  12:14:00     -150.989      111.169      -34.386       57.992       67.249       38.808     3363.116     4522.404     1506.044        2.286        0.470      187.500       34.976        0.035      345.410       22.920      867.362
05/10/2013  12:15:00     -141.322       96.812      -22.138       60.761       69.481       45.692     3691.951     4827.667     2087.759        2.022        0.530      171.303       40.391        0.056      345.598       23.240      867.350
05/10/2013  12:16:00     -133.377       86.619      -21.355       53.289       74.580       40.095     2839.688     5562.107     1607.634        1.788        0.500      159.035       32.494        0.042      345.776       23.548      867.337
05/10/2013  12:17:00     -249.330     -115.544      -19.275       80.350       66.304       41.698     6456.192     4396.231     1738.765        4.424        0.630      274.801       36.155        0.017      345.545       23.147      867.319
05/10/2013  12:18:00     -187.982      -43.860      -13.771       46.374       50.796       35.946     2150.569     2580.254     1292.134        2.174        0.301      193.031       28.391        0.022      345.679       23.381      867.335
05/10/2013  12:19:00     -173.506      -75.534       -3.851       75.415       48.590       31.684     5687.371     2361.011     1003.849        2.244        0.453      189.235       30.566        0.026      345.628       23.293      867.318
05/10/2013  12:20:00     -199.104      -50.048      -15.960       35.879       41.985       23.707     1287.282     1762.721      562.011        2.301        0.181      205.298       15.738        0.006      345.432       22.957      867.325
05/10/2013  12:21:00      -99.822        5.160      -16.140       38.958       36.018       23.249     1517.752     1297.287      540.525        0.680        0.168       99.956       20.131        0.041      345.786       23.564      867.338
05/10/2013  12:22:00      -75.255      -29.277      -12.114       21.179       28.902       15.358      448.532      835.324      235.864        0.409        0.076       80.749       12.154        0.023      345.487       23.050      867.331
05/10/2013  12:23:00       -0.029       67.388       22.907       97.217       48.152       49.501     9451.156     2318.638     2450.386        0.964        0.711       67.388       44.039        0.427      346.090       24.087      867.308
05/10/2013  12:24:00       43.092        0.658       45.818       83.948       56.417       40.895     7047.212     3182.908     1672.415        0.793        0.595       43.097       46.925        1.186      346.625       25.007      867.309
05/10/2013  12:25:00        3.433      -78.515       14.272       70.624       84.733       58.944     4987.762     7179.742     3474.454        1.101        0.782       78.590       58.058        0.546      346.454       24.711      867.298
05/10/2013  12:26:00      -53.495      -18.167       28.391       52.089       56.444       45.958     2713.273     3185.909     2112.149        0.600        0.401       56.495       44.661        0.625      346.602       24.969      867.291
05/10/2013  12:27:00      -21.567      -42.262        5.895       31.051       50.188       26.635      964.166     2518.850      709.431        0.324        0.210       47.447       13.202        0.077      346.634       25.022      867.286
05/10/2013  12:28:00      -37.259      -25.557      -24.175       57.772       72.734       44.659     3337.551     5290.284     1994.392        0.662        0.531       45.182       38.237        0.716      346.263       24.384      867.280
05/10/2013  12:29:00      -46.754      -32.394        1.193       68.574       38.654       32.101     4702.451     1494.106     1030.506        0.523        0.361       56.880       19.742        0.120      346.168       24.222      867.275
05/10/2013  12:30:00      -82.317      -43.717        0.489       47.969       36.312       29.317     2301.067     1318.594      859.493        0.658        0.224       93.206       25.381        0.074      345.764       23.529      867.289
05/10/2013  12:31:00        5.050        7.043       12.150       43.751       32.278       35.972     1914.114     1041.885     1293.969        0.224        0.212        8.666       26.360        9.252      346.243       24.352      867.289
05/10/2013  12:32:00       -0.387      -19.779        7.683       38.670       35.254       36.329     1495.370     1242.878     1319.789        0.225        0.203       19.783       17.665        0.797      346.379       24.583      867.266
05/10/2013  12:33:00       20.849        6.649       19.215       37.642       49.092       29.353     1416.903     2410.042      861.627        0.277        0.234       21.884       19.826        0.821      346.775       25.266      867.253
05/10/2013  12:34:00      101.365       92.822        4.148       88.869       55.453       55.441     7897.628     3075.018     3073.751        1.647        0.702      137.443       30.520        0.049      346.100       24.104      867.238
05/10/2013  12:35:00       36.187        2.185       30.323       77.274       66.965       47.186     5971.268     4484.316     2226.495        0.746        0.634       36.253       35.320        0.949      346.502       24.797      867.218
05/10/2013  12:36:00       31.182      111.820      112.092       63.299       63.156       43.963     4006.751     3988.664     1932.755        1.798        0.496      116.086       41.910        0.130      346.418       24.650      867.207
05/10/2013  12:37:00      132.702       80.788       74.694       91.643       73.238       52.261     8398.464     5363.850     2731.260        2.310        0.825      155.359       37.004        0.057      346.117       24.131      867.210
05/10/2013  12:38:00       36.296       84.765       90.617       84.411       72.696       42.461     7125.271     5284.647     1802.962        1.546        0.711       92.209       29.141        0.100      346.677       25.096      867.185
05/10/2013  12:39:00      122.346      122.269       63.329      112.141       82.327       99.639    12575.620     6777.668     9927.972        3.160        1.464      172.969       73.206        0.179      346.152       24.193      867.188
05/10/2013  12:40:00       82.741     -126.214       24.139       90.314      130.894       74.147     8156.551    17133.315     5497.730        2.707        1.539      150.918       72.713        0.232      346.388       24.599      867.181
05/10/2013  12:41:00       99.623      -39.507       70.083       96.262      155.934      100.425     9266.343    24315.313    10085.107        3.002        2.183      107.171      109.985        1.053      346.356       24.543      867.158
05/10/2013  12:42:00       63.005      -20.792       77.707       79.391      106.802       78.694     6302.994    11406.760     6192.799        1.717        1.195       66.347       49.442        0.555      346.595       24.955      867.141
05/10/2013  12:43:00        5.593      -92.514       41.074       80.404      115.321       88.969     6464.827    13298.882     7915.426        1.897        1.384       92.683       75.853        0.670      346.469       24.738      867.140
05/10/2013  12:44:00       38.156     -153.547      -13.205       74.742       62.968       50.975     5586.366     3964.988     2598.477        1.868        0.607      158.217       40.526        0.066      346.500       24.791      867.170
05/10/2013  12:45:00       62.827     -192.041       -8.324       94.581       91.545       52.975     8945.542     8380.460     2806.328        3.051        1.007      202.057       54.815        0.074      346.149       24.185      867.179
05/10/2013  12:46:00      -35.888      -90.734       19.154       45.829      121.670       56.647     2100.332    14803.590     3208.833        1.500        1.006       97.573       72.215        0.548      346.451       24.708      867.179
05/10/2013  12:47:00      -29.823      -30.853       22.927       45.256       39.319       31.946     2048.139     1546.018     1020.567        0.349        0.231       42.910       13.550        0.100      346.709       25.151      867.142
05/10/2013  12:48:00      -57.853      -45.720       19.645       95.919       62.729       43.936     9200.511     3934.866     1930.332        1.044        0.753       73.738       49.306        0.447      346.560       24.895      867.129
05/10/2013  12:49:00     -119.713      -78.976       12.346       99.774       73.510       41.759     9954.833     5403.787     1743.833        1.891        0.855      143.417       41.837        0.085      346.197       24.271      867.139
05/10/2013  12:50:00      -80.526      -49.555       10.984       81.719       53.168       28.940     6678.066     2826.822      837.498        0.970        0.517       94.552       41.540        0.193      346.506       24.804      867.122
05/10/2013  12:51:00       -9.434       35.850       17.855       77.334       47.393       36.965     5980.540     2246.133     1366.399        0.564        0.480       37.071       44.525        1.443      346.599       24.962      867.113
05/10/2013  12:52:00      170.125       84.467       16.561       77.734       61.627       50.867     6042.570     3797.887     2587.492        2.439        0.621      189.940       29.006        0.023      346.430       24.668      867.114
05/10/2013  12:53:00      183.410      116.730        9.944       83.192       65.376       52.440     6920.944     4274.036     2749.969        3.065        0.697      217.406       48.047        0.049      346.118       24.133      867.118
05/10/2013  12:54:00       37.877       38.455       39.508       59.966       51.512       46.276     3595.871     2653.442     2141.473        0.643        0.420       53.977       32.186        0.356      346.243       24.352      867.100
05/10/2013  12:55:00      143.949       95.421       58.152       92.668       77.761       80.737     8587.301     6046.782     6518.537        2.718        1.058      172.704       63.594        0.136      346.111       24.121      867.106
05/10/2013  12:56:00      -39.123       74.378      -16.774       52.795       57.482       25.625     2787.298     3304.208      656.633        0.704        0.337       84.040       18.452        0.048      346.444       24.695      867.120
05/10/2013  12:57:00      -22.844       75.385       15.409       50.914       75.780       38.584     2592.265     5742.653     1488.722        0.813        0.491       78.770       46.282        0.345      346.878       25.442      867.112
05/10/2013  12:58:00       40.240       37.659       38.382       58.190       41.899       25.932     3386.047     1755.562      672.468        0.516        0.291       55.113       18.912        0.118      346.512       24.812      867.111
05/10/2013  12:59:00      130.232      148.204      143.279       94.636       93.744       79.372     8956.061     8787.934     6299.924        4.174        1.202      197.294       69.894        0.126      346.235       24.333      867.099
05/10/2013  13:00:00      116.318      100.563       87.090       96.521       67.054       60.164     9316.330     4496.240     3619.649        2.433        0.872      153.762       40.631        0.070      346.301       24.447      867.095
05/10/2013  13:01:00       40.276      -69.884       12.397       70.870      108.416       77.347     5022.585    11753.959     5982.617        1.471        1.138       80.659       74.286        0.848      346.551       24.880      867.061
05/10/2013  13:02:00        1.132      -36.477       45.536       35.318       88.850       50.706     1247.386     7894.248     2571.123        0.756        0.586       36.494       55.773        2.336      346.838       25.375      867.065
05/10/2013  13:03:00       40.234       32.068       62.771       50.281       64.424       45.797     2528.181     4150.398     2097.391        0.768        0.439       51.450       45.205        0.772      346.649       25.049      867.071
05/10/2013  13:04:00      119.127       62.099       36.167       91.378       77.996       66.855     8349.967     6083.398     4469.632        1.913        0.945      134.341       39.823        0.088      346.488       24.770      867.072
05/10/2013  13:05:00       95.412       43.689       42.836       86.233       84.107       56.165     7436.173     7074.057     3154.497        1.525        0.883      104.939       25.091        0.057      346.585       24.938      867.044
05/10/2013  13:06:00      240.341      144.214       29.122      127.829      100.777       67.123    16340.153    10156.101     4505.555        5.520        1.550      280.289       54.209        0.037      346.483       24.759      867.051
05/10/2013  13:07:00      234.929      167.683       19.016      128.285      113.107       73.507    16456.952    12793.176     5403.238        5.916        1.733      288.633       59.540        0.043      346.430       24.670      867.064
05/10/2013  13:08:00      198.289      154.125       -4.261       98.257       81.308       63.801     9654.523     6611.046     4070.580        4.171        1.017      251.143       47.305        0.035      346.358       24.543      867.072
05/10/2013  13:09:00       80.127       81.811       15.132      100.061       73.202       63.773    10012.195     5358.516     4066.946        1.639        0.972      114.513       49.078        0.184      346.308       24.462      867.095
05/10/2013  13:10:00      165.408      121.947       20.506       79.405       52.633       47.922     6305.143     2770.246     2296.509        2.701        0.569      205.501       28.856        0.020      346.210       24.291      867.089
05/10/2013  13:11:00      130.268       85.248       46.460       84.726       77.781       56.581     7178.501     6049.919     3201.406        2.141        0.821      155.682       48.477        0.097      346.299       24.444      867.080
05/10/2013  13:12:00      131.760      108.331       15.551       57.783       52.443       53.413     3338.896     2750.264     2852.955        1.914        0.447      170.576       36.985        0.047      346.063       24.039      867.083
05/10/2013  13:13:00       52.760       32.836       33.964       52.359       73.838       51.077     2741.500     5452.086     2608.891        0.791        0.540       62.143       50.285        0.655      346.088       24.084      867.075
05/10/2013  13:14:00       55.305     -141.326       -6.088       39.834       35.710       25.962     1586.771     1275.224      674.010        1.330        0.177      151.762       16.187        0.011      345.828       23.636      867.050
05/10/2013  13:15:00      105.184       79.543       22.736       94.965       60.026       44.403     9018.387     3603.130     1971.660        1.625        0.730      131.874       41.068        0.097      346.507       24.804      867.045
05/10/2013  13:16:00      193.408      119.584       17.958       64.692       47.269       39.422     4185.114     2234.380     1554.128        3.000        0.399      227.392       26.417        0.013      346.214       24.297      867.040
05/10/2013  13:17:00      136.628       98.635        5.061       55.275       39.389       30.749     3055.328     1551.472      945.509        1.699        0.278      168.511       27.113        0.026      345.831       23.642      867.038
05/10/2013  13:18:00       48.678       50.005       16.595       51.295       60.652       33.552     2631.141     3678.607     1125.704        0.629        0.372       69.786       28.833        0.171      346.077       24.066      867.025
05/10/2013  13:19:00       80.334       68.802       25.175       27.199       26.227       28.211      739.775      687.830      795.844        0.702        0.111      105.770       11.796        0.012      345.934       23.817      867.024
05/10/2013  13:20:00       30.951      -25.626       11.659       34.475       50.318       31.488     1188.536     2531.892      991.496        0.323        0.236       40.183       34.637        0.743      346.243       24.352      867.026
05/10/2013  13:21:00       24.240      -58.692      -10.568       31.278       40.072       31.948      978.322     1605.748     1020.673        0.387        0.180       63.501       28.997        0.209      346.137       24.169      867.003
05/10/2013  13:22:00       22.788       37.651       49.904       36.288       39.065       24.433     1316.809     1526.053      596.996        0.393        0.172       44.010       19.813        0.203      346.318       24.479      867.007
05/10/2013  13:23:00      124.075       80.652       20.718       72.783       56.104       46.449     5297.414     3147.706     2157.492        1.646        0.530      147.984       35.913        0.059      346.202       24.280      867.010
05/10/2013  13:24:00       81.379       80.430       80.864       72.671       64.106       50.437     5281.071     4109.529     2543.909        1.578        0.597      114.418       37.400        0.107      346.430       24.670      867.013
05/10/2013  13:25:00      133.687      101.698       62.210       88.065       51.667       53.016     7755.527     2669.456     2810.709        2.266        0.662      167.972       50.730        0.091      346.260       24.377      867.034
05/10/2013  13:26:00       77.865       39.990       10.889       80.242       74.033       40.302     6438.846     5480.857     1624.225        1.066        0.677       87.534       45.127        0.266      346.170       24.225      867.049
05/10/2013  13:27:00       36.039      -34.418       17.842       31.476       32.887       28.199      990.742     1081.532      795.191        0.283        0.143       49.834       19.877        0.159      346.555       24.887      867.025
05/10/2013  13:28:00        8.802     -121.191       10.137       54.688       44.817       44.238     2990.808     2008.577     1957.031        1.091        0.348      121.510       31.863        0.069      346.375       24.577      867.001
05/10/2013  13:29:00       45.202      -40.331       26.399       54.606       90.478       46.262     2981.805     8186.264     2140.188        0.884        0.665       60.579       53.363        0.776      346.669       25.083      866.986
05/10/2013  13:30:00       21.328      -86.640        9.475       49.396      114.455       47.583     2440.006    13099.865     2264.121        1.292        0.890       89.227       58.516        0.430      346.614       24.989      866.964
05/10/2013  13:31:00      117.069     -205.454      -42.419       57.058       43.201       43.279     3255.624     1866.347     1873.090        3.235        0.350      236.467       34.882        0.022      346.252       24.362      866.930
05/10/2013  13:32:00       33.260      -99.108      -26.761       58.162       59.373       46.548     3382.772     3525.199     2166.718        1.036        0.454      104.540       32.100        0.094      346.668       25.081      866.915
05/10/2013  13:33:00      -23.863      -87.513      -10.351       58.569       86.973       50.928     3430.286     7564.378     2593.617        1.096        0.679       90.708       46.926        0.268      346.891       25.464      866.907
05/10/2013  13:34:00      -11.195     -129.799      -15.867       59.607       43.989       38.629     3553.029     1934.997     1492.166        1.210        0.349      130.281       25.866        0.039      346.824       25.350      866.916
05/10/2013  13:35:00      -26.895      -74.480       18.113       51.822       72.511       41.286     2685.542     5257.795     1704.501        0.812        0.482       79.188       16.593        0.044      347.242       26.069      866.906
05/10/2013  13:36:00      -15.383     -137.635       -2.455       85.052       85.001       45.680     7233.871     7225.140     2086.676        1.786        0.827      138.492       38.146        0.076      347.001       25.653      866.918
05/10/2013  13:37:00       75.431      -72.826        0.456       59.353       80.392       41.863     3522.784     6462.841     1752.473        1.136        0.587      104.850       45.130        0.185      346.561       24.897      866.936
05/10/2013  13:38:00       -4.027       -4.995       37.846       22.269       30.795       22.211      495.926      948.318      493.346        0.171        0.097        6.416       20.778       10.487      347.186       25.973      866.908
05/10/2013  13:39:00      -49.567      -69.435       -5.527       34.851       39.739       27.069     1214.602     1579.189      732.758        0.542        0.176       85.312       21.094        0.061      346.386       24.597      866.872
05/10/2013  13:40:00      -16.306      -17.023       11.846       21.608       32.195       26.069      466.903     1036.487      679.586        0.144        0.109       23.572       23.847        1.023      347.194       25.988      866.850
05/10/2013  13:41:00      -13.672        6.308       32.194       20.029       33.721       24.149      401.153     1137.119      583.160        0.169        0.106       15.057       18.217        1.464      347.218       26.029      866.848
05/10/2013  13:42:00       91.862      -33.728       26.803       53.377       46.675       42.294     2849.103     2178.541     1788.792        0.855        0.341       97.858       29.334        0.090      346.464       24.730      866.841
05/10/2013  13:43:00       92.418     -158.519       -1.129       68.204       84.055       48.155     4651.820     7065.245     2318.892        2.385        0.702      183.492       48.656        0.070      346.472       24.741      866.794
05/10/2013  13:44:00      -17.343      -62.595       -3.370      135.388      142.228       44.269    18329.884    20228.834     1959.779        2.237        2.026       64.953       14.689        0.051      346.979       25.615      866.746
05/10/2013  13:45:00      -26.968      -39.272       39.929       82.273      122.146       62.512     6768.775    14919.600     3907.777        1.473        1.280       47.640       74.253        2.429      347.307       26.181      866.753
05/10/2013  13:46:00      119.299      105.964      118.518      106.419      110.182       79.852    11324.979    12140.008     6376.269        3.467        1.492      159.564       71.286        0.200      346.855       25.400      866.775
05/10/2013  13:47:00       73.477      112.707      147.474      114.720      116.946       96.673    13160.605    13676.415     9345.654        3.801        1.809      134.543       97.320        0.523      346.949       25.561      866.764
05/10/2013  13:48:00      242.617      140.599       31.539      104.597       67.900       62.810    10940.495     4610.357     3945.093        4.956        0.975      280.412       22.873        0.007      346.427       24.662      866.799
05/10/2013  13:49:00      128.379       78.283        9.777       97.055       84.791       59.086     9419.683     7189.464     3491.165        2.140        1.005      150.364       39.586        0.069      346.399       24.616      866.796
05/10/2013  13:50:00       86.035      131.288       -5.764       89.377      102.720       62.183     7988.323    10551.419     3866.734        2.354        1.120      156.967       53.479        0.116      346.516       24.818      866.794
05/10/2013  13:51:00      108.706       84.697       83.373      126.438       89.994       92.051    15986.473     8098.936     8473.307        2.924        1.628      137.806       82.747        0.361      346.780       25.272      866.787
05/10/2013  13:52:00      100.804       81.862       40.662      105.859       91.295       74.530    11206.191     8334.733     5554.694        2.180        1.255      129.857       27.882        0.046      346.574       24.919      866.782
05/10/2013  13:53:00       93.043      105.599        8.911       85.651       69.631       54.030     7336.012     4848.462     2919.293        1.749        0.755      140.741       35.353        0.063      346.384       24.591      866.797
05/10/2013  13:54:00      120.689      116.344        8.025       84.159       60.429       50.133     7082.794     3651.662     2513.312        2.070        0.662      167.636       28.815        0.030      346.424       24.660      866.791
05/10/2013  13:55:00       45.601       47.959       32.123      112.619       55.383       31.366    12683.063     3067.253      983.811        1.107        0.837       66.178       38.051        0.331      347.132       25.879      866.764
05/10/2013  13:56:00      104.596      155.294        5.230      114.012      110.367       70.918    12998.751    12180.771     5029.398        3.264        1.510      187.234       67.440        0.130      346.697       25.128      866.775
05/10/2013  13:57:00      124.096      146.513       -6.943       96.314       67.753       61.645     9276.447     4590.452     3800.098        2.729        0.883      192.005       49.602        0.067      346.501       24.790      866.791
05/10/2013  13:58:00       90.459      189.969       -5.232      111.470      104.069       57.698    12425.634    10830.348     3329.035        3.544        1.329      210.406       57.990        0.076      346.634       25.019      866.798
05/10/2013  13:59:00      -35.079      156.282      -24.282       78.738       62.106       40.517     6199.694     3857.209     1641.640        1.897        0.585      160.171       37.197        0.054      346.328       24.496      866.784
05/10/2013  14:00:00      -38.721      148.747      -16.694       61.740       82.205       56.881     3811.869     6757.629     3235.436        1.885        0.690      153.704       48.788        0.101      346.419       24.651      866.763
05/10/2013  14:01:00       51.655      226.575      -24.189       77.044       86.308       58.365     5935.833     7449.018     3406.485        3.569        0.840      232.388       57.716        0.062      346.481       24.756      866.761
05/10/2013  14:02:00       56.645      134.782       -8.934       69.378       95.022       55.301     4813.263     9029.148     3058.177        1.917        0.845      146.201       65.265        0.199      346.711       25.154      866.759
05/10/2013  14:03:00       43.350       85.828       15.797       48.424       61.069       44.848     2344.873     3729.435     2011.371        0.879        0.404       96.154       39.879        0.172      346.895       25.470      866.732
05/10/2013  14:04:00      101.311       67.412       22.493       55.952       50.972       48.213     3130.584     2598.190     2324.538        1.168        0.403      121.690       32.958        0.073      346.484       24.765      866.711
05/10/2013  14:05:00      230.772       88.661       39.761      115.326       87.134       71.618    13300.199     7592.251     5129.173        4.436        1.301      247.218       30.097        0.015      346.755       25.229      866.709
05/10/2013  14:06:00      225.207      174.095       12.865      103.664       76.743       57.684    10746.278     5889.472     3327.402        5.057        0.998      284.653       41.748        0.022      346.400       24.618      866.713
05/10/2013  14:07:00      154.135      111.989       -0.263       72.003       65.547       56.961     5184.390     4296.444     3244.561        2.451        0.636      190.524       41.722        0.048      346.967       25.593      866.715
05/10/2013  14:08:00      127.283       86.942       18.115       70.613       48.314       45.101     4986.188     2334.216     2034.103        1.672        0.468      154.143       39.523        0.066      346.706       25.145      866.718
05/10/2013  14:09:00      116.283       59.217       16.534       73.177       54.985       54.739     5354.874     3023.331     2996.307        1.434        0.569      130.493       20.721        0.025      347.069       25.771      866.712
05/10/2013  14:10:00      100.180       95.465       42.067       66.379       63.786       45.935     4406.107     4068.604     2109.997        1.575        0.529      138.382       30.074        0.047      346.855       25.403      866.710
05/10/2013  14:11:00      116.069      110.040       62.692      107.452       89.590       76.437    11545.956     8026.360     5842.649        2.746        1.271      159.940       47.643        0.089      346.943       25.552      866.716
05/10/2013  14:12:00       72.230      107.167      104.196       99.863      100.808       79.683     9972.552    10162.328     6349.323        2.702        1.324      129.236       72.680        0.316      347.277       26.128      866.711
05/10/2013  14:13:00       82.613      108.160      145.645       97.830       99.553       83.400     9570.625     9910.707     6955.570        3.308        1.322      136.101       80.010        0.346      346.930       25.530      866.702
05/10/2013  14:14:00      104.855       62.442       52.430      119.289      105.959       66.021    14229.857    11227.327     4358.718        2.372        1.491      122.039       52.367        0.184      346.877       25.440      866.708
05/10/2013  14:15:00       85.413       45.196       68.859      112.573       92.719       53.280    12672.792     8596.734     2838.758        1.909        1.205       96.634       41.465        0.184      347.067       25.768      866.712
05/10/2013  14:16:00       59.079      -53.420       13.094       68.483       78.517       54.176     4689.895     6164.887     2935.084        1.015        0.689       79.650       55.792        0.491      346.903       25.487      866.721
05/10/2013  14:17:00       40.332       16.296       60.674       76.957      115.350       49.593     5922.347    13305.627     2459.433        1.363        1.084       43.500       56.469        1.685      347.069       25.771      866.714
05/10/2013  14:18:00       95.628     -108.309       26.956      153.279      130.031       79.304    23494.482    16908.084     6289.132        3.414        2.335      144.484       76.522        0.281      346.956       25.575      866.698
05/10/2013  14:19:00       36.435     -100.622       16.817      115.367      140.294       70.696    13309.466    19682.356     4997.897        2.486        1.899      107.015       77.050        0.518      347.218       26.028      866.696
05/10/2013  14:20:00      143.841     -173.418       17.361      131.712      190.113      102.006    17347.989    36142.924    10405.267        5.747        3.195      225.309      123.210        0.299      346.949       25.564      866.721
05/10/2013  14:21:00       42.813     -164.786       -6.844      103.855       93.101       84.075    10785.860     8667.742     7068.602        2.777        1.326      170.257       57.148        0.113      346.768       25.250      866.730
05/10/2013  14:22:00       93.589     -133.553        9.992       78.625      119.986       91.258     6181.820    14396.726     8328.069        2.780        1.445      163.081       80.997        0.247      346.797       25.302      866.757
05/10/2013  14:23:00      119.740      -70.637       19.795       99.578      124.566       82.829     9915.809    15516.681     6860.577        2.600        1.615      139.022      103.275        0.552      346.681       25.101      866.762
05/10/2013  14:24:00      115.656     -210.159      -19.507       64.310       82.479       35.258     4135.775     6802.746     1243.106        3.505        0.609      239.881       40.487        0.028      346.341       24.513      866.757
05/10/2013  14:25:00       30.089     -105.264       12.860       24.443       77.649       47.107      597.454     6029.404     2219.083        1.050        0.442      109.480       49.178        0.202      346.420       24.657      866.757
05/10/2013  14:26:00       85.458       63.224       47.054       81.635       75.080       54.826     6664.320     5637.020     3005.892        1.441        0.765      106.304       38.796        0.133      346.717       25.164      866.731
05/10/2013  14:27:00       68.659       55.920       44.216       57.420       41.147       37.482     3297.053     1693.112     1404.867        0.809        0.320       88.550       24.736        0.078      346.530       24.844      866.728
05/10/2013  14:28:00       58.236     -133.039      -16.055       48.337       68.088       23.054     2336.448     4635.940      531.468        1.442        0.375      145.227       17.227        0.014      346.375       24.577      866.741
05/10/2013  14:29:00       63.156       13.010       29.012       33.598       41.412       33.639     1128.806     1714.983     1131.606        0.449        0.199       64.482       29.485        0.209      346.761       25.241      866.728
05/10/2013  14:30:00       71.101      -22.875       13.236       65.713       66.502       56.085     4318.165     4422.553     3145.513        0.882        0.594       74.690       53.817        0.519      346.697       25.132      866.720
05/10/2013  14:31:00      -57.345      -27.572        9.373       64.025       54.996       41.417     4099.180     3024.509     1715.386        0.649        0.442       63.630       32.523        0.261      346.546       24.871      866.719
05/10/2013  14:32:00      -62.023       18.421       -5.339       62.028       63.961       36.734     3847.488     4090.947     1349.363        0.675        0.464       64.701       16.585        0.066      346.745       25.215      866.721
05/10/2013  14:33:00     -119.614      -53.265       -0.041       46.578       53.998       28.145     2169.548     2915.798      792.138        1.151        0.294      130.938       20.851        0.025      346.702       25.140      866.719
05/10/2013  14:34:00      -85.568      -54.538       -1.410       45.168       43.570       25.341     2040.125     1898.323      642.172        0.744        0.229      101.471       25.224        0.062      346.472       24.743      866.759
05/10/2013  14:35:00        4.514       30.387       12.483       35.265       57.969       29.718     1243.649     3360.378      883.178        0.329        0.274       30.721       36.207        1.389      346.990       25.636      866.801
05/10/2013  14:36:00       -3.187       13.774       -0.722       51.733       54.874       30.330     2676.344     3011.111      919.879        0.340        0.330       14.138       21.978        2.417      346.910       25.498      866.783
05/10/2013  14:37:00       59.173       76.353       66.108       78.756       73.712      102.377     6202.546     5433.435    10481.133        1.791        1.106       96.598       41.082        0.181      346.746       25.214      866.758
05/10/2013  14:38:00      126.643       94.011       50.531      116.774      107.864       97.671    13636.051    11634.727     9539.546        3.111        1.741      157.723       49.070        0.097      346.864       25.416      866.710
05/10/2013  14:39:00       92.282       80.727       62.343      114.975       95.099       75.232    13219.289     9043.901     5659.843        2.342        1.396      122.608       63.962        0.272      347.044       25.727      866.742
05/10/2013  14:40:00      140.242       82.529       23.774       84.736       68.353       57.409     7180.159     4672.156     3295.762        2.109        0.757      162.723       43.370        0.071      346.780       25.272      866.740
05/10/2013  14:41:00      128.387      117.746       97.509      123.057       96.551       95.946    15143.058     9322.047     9205.689        3.676        1.684      174.205       77.378        0.197      346.633       25.019      866.736
05/10/2013  14:42:00      145.802      104.088       37.092      101.186       73.067       58.116    10238.666     5338.797     3377.458        2.621        0.948      179.144       53.686        0.090      346.476       24.749      866.730
05/10/2013  14:43:00      103.753       89.933       11.877      100.280       56.838       48.060    10056.047     3230.535     2309.754        1.729        0.780      137.305       21.848        0.025      346.655       25.057      866.728
05/10/2013  14:44:00       57.315       67.953        4.596       76.085       49.115       37.363     5788.989     2412.268     1395.986        0.876        0.480       88.897       27.606        0.096      346.886       25.457      866.718
05/10/2013  14:45:00       90.495       79.230       17.481       99.788       77.877       67.468     9957.711     6064.899     4551.995        1.767        1.029      120.278       55.183        0.210      346.890       25.460      866.715
05/10/2013  14:46:00      256.881      159.220       83.836      132.778       92.396       86.323    17629.889     8537.098     7451.577        6.599        1.681      302.223       66.141        0.048      346.549       24.874      866.718
05/10/2013  14:47:00      263.156      187.828       52.767      104.881       59.893       58.290    11000.058     3587.154     3397.672        6.265        0.899      323.312       33.822        0.011      346.183       24.244      866.730
05/10/2013  14:48:00      229.457      166.540       14.799      101.073       87.309       70.145    10215.651     7622.882     4920.280        5.168        1.138      283.524       25.934        0.008      346.202       24.277      866.722
05/10/2013  14:49:00      100.355       81.771       27.141       89.531       66.098       44.495     8015.735     4368.954     1979.766        1.593        0.718      129.451       38.184        0.087      346.466       24.731      866.698
05/10/2013  14:50:00       42.369      189.360      -19.578       64.337      103.844       52.534     4139.188    10783.473     2759.852        2.786        0.884      194.043       51.533        0.071      346.445       24.696      866.703
05/10/2013  14:51:00       38.938      248.801      -35.351       61.883      104.176       55.277     3829.449    10852.614     3055.505        4.120        0.887      251.830       56.564        0.050      346.396       24.610      866.691
05/10/2013  14:52:00       16.265      228.788      -12.587       72.832       86.447       57.030     5304.494     7473.050     3252.451        3.440        0.801      229.366       48.887        0.045      346.418       24.648      866.681
05/10/2013  14:53:00      -52.340      251.634      -32.408       51.785       69.670       34.953     2681.643     4853.960     1221.686        3.793        0.438      257.020       33.593        0.017      346.245       24.349      866.690
05/10/2013  14:54:00      -16.172      175.354      -19.662       41.741       48.896       32.246     1742.339     2390.839     1039.784        1.828        0.259      176.099       30.205        0.029      346.357       24.545      866.678
05/10/2013  14:55:00       75.848      107.760       14.594       91.040       61.349       47.202     8288.358     3763.664     2228.020        1.593        0.714      131.777       44.502        0.114      346.534       24.850      866.665
05/10/2013  14:56:00       97.205       26.207       45.355       92.055       75.839       58.170     8474.114     5751.597     3383.794        1.490        0.880      100.676       49.800        0.245      346.496       24.786      866.646
05/10/2013  14:57:00      136.737       86.792      100.498      106.504      102.217       80.618    11343.206    10448.287     6499.309        3.231        1.415      161.956       80.190        0.245      346.318       24.476      866.620
05/10/2013  14:58:00       63.114       75.085       89.266       91.083       93.918       73.601     8296.096     8820.643     5417.036        2.006        1.127       98.088       67.439        0.473      346.375       24.576      866.617
05/10/2013  14:59:00       74.480       92.699       80.426       75.715       74.616       61.505     5732.835     5567.515     3782.822        1.784        0.754      118.913       61.157        0.265      346.440       24.689      866.611
05/10/2013  15:00:00       43.782       16.708       52.548       51.894       65.794       35.949     2692.978     4328.840     1292.320        0.663        0.416       46.862       28.406        0.367      346.353       24.540      866.617
05/10/2013  15:01:00       18.174       24.988       63.100       42.994       65.582       34.946     1848.452     4300.950     1221.244        0.615        0.369       30.898       42.237        1.869      346.340       24.518      866.615
05/10/2013  15:02:00       33.727       26.718       26.836       36.594       41.564       29.466     1339.147     1727.532      868.264        0.325        0.197       43.028       22.101        0.264      346.345       24.526      866.612
05/10/2013  15:03:00       37.900       31.989       55.687       38.643       26.467       23.092     1493.297      700.515      533.247        0.414        0.136       49.596       11.616        0.055      346.325       24.491      866.603
05/10/2013  15:04:00       36.971       -3.262       16.916       17.455       22.859       19.423      304.689      522.551      377.271        0.143        0.060       37.115       18.549        0.250      346.304       24.458      866.610
05/10/2013  15:05:00        4.516      -44.616       -0.214       32.729       24.299       18.284     1071.211      590.428      334.287        0.200        0.100       44.844       14.293        0.102      346.206       24.287      866.600
05/10/2013  15:06:00       12.012      -54.646       -7.668       14.721       17.663       14.063      216.717      311.998      197.755        0.196        0.036       55.950        7.214        0.017      346.385       24.594      866.585
05/10/2013  15:07:00       22.062      -54.147        5.087       56.576       40.550       31.514     3200.872     1644.305      993.144        0.464        0.292       58.469       17.795        0.093      346.516       24.822      866.573
05/10/2013  15:08:00       64.178     -115.789      -17.914       39.412       20.288       13.229     1553.342      411.593      175.006        0.999        0.107      132.385        9.316        0.005      346.142       24.177      866.571
05/10/2013  15:09:00       38.581     -102.961      -16.495       26.699       26.965       24.141      712.836      727.120      582.772        0.719        0.101      109.952       14.684        0.018      346.303       24.453      866.552
05/10/2013  15:10:00       68.615     -106.692      -26.852       30.906       32.142       17.985      955.192     1033.098      323.471        0.956        0.116      126.851       16.481        0.017      346.327       24.495      866.552
05/10/2013  15:11:00       42.716      -41.659        7.287       28.791       33.797       20.729      828.912     1142.212      429.689        0.301        0.120       59.667       21.592        0.131      346.405       24.630      866.539
05/10/2013  15:12:00       64.831      -51.462      -14.558       19.633       31.950       25.334      385.463     1020.814      641.788        0.456        0.102       82.774       21.160        0.065      346.286       24.424      866.531
05/10/2013  15:13:00       17.212      -15.940       -5.741       24.084       23.247       15.633      580.033      540.430      244.376        0.097        0.068       23.459       13.339        0.323      346.372       24.572      866.523
05/10/2013  15:14:00       -2.321      -48.433        3.778       36.113       42.330       27.544     1304.154     1791.846      758.646        0.311        0.193       48.489       16.652        0.118      346.522       24.830      866.503
05/10/2013  15:15:00       65.234      -76.455      -25.290       48.997       48.681       28.251     2400.754     2369.866      798.138        0.815        0.278      100.502       27.443        0.075      346.508       24.806      866.500
05/10/2013  15:16:00       -3.276       24.718       72.341       22.885       35.839       19.458      523.744     1284.427      378.626        0.402        0.109       24.935       18.000        0.521      346.616       24.992      866.487
05/10/2013  15:17:00       -2.618        4.474       52.430       16.751       34.520       23.025      280.610     1191.600      530.159        0.239        0.100        5.184       11.980        5.340      346.641       25.035      866.480
05/10/2013  15:18:00       17.092      -24.674      -11.169       18.687       26.553       24.511      349.188      705.075      600.767        0.134        0.083       30.016       17.597        0.344      346.444       24.696      866.475
05/10/2013  15:19:00      -16.558       11.628       24.381       26.229       27.230       16.242      687.965      741.477      263.810        0.135        0.085       20.234       13.573        0.450      346.820       25.343      866.457
05/10/2013  15:20:00      -64.434       18.603       -5.492       35.222       24.930       18.160     1240.562      621.528      329.793        0.336        0.110       67.066       18.922        0.080      346.641       25.035      866.447
05/10/2013  15:21:00      -58.019       40.307       -3.657       24.594       21.949       20.659      604.864      481.746      426.782        0.326        0.076       70.646       17.929        0.064      346.648       25.048      866.458
05/10/2013  15:22:00      -79.170      -10.797      -14.581       25.912       28.265       20.361      671.411      798.910      414.574        0.424        0.094       79.903       12.570        0.025      346.556       24.889      866.446
05/10/2013  15:23:00     -172.949        5.210      -16.394       63.476       54.338       30.893     4029.227     2952.597      954.374        1.907        0.397      173.027       28.734        0.028      346.664       25.074      866.427
05/10/2013  15:24:00     -200.414        6.627      -19.131       71.677       45.986       40.545     5137.640     2114.726     1643.916        2.473        0.445      200.524       38.226        0.036      346.701       25.136      866.409
05/10/2013  15:25:00      -92.332      -24.768       -3.835       92.187       56.321       30.115     8498.454     3172.091      906.908        1.086        0.629       95.596       41.548        0.189      347.059       25.753      866.387
05/10/2013  15:26:00     -224.037       28.260      -30.252       97.531       54.791       45.182     9512.257     3002.099     2041.374        3.323        0.728      225.813       53.790        0.057      346.874       25.432      866.382
05/10/2013  15:27:00     -160.212        2.987       -7.699       71.810       69.950       51.895     5156.616     4892.984     2693.090        1.924        0.637      160.240       49.926        0.097      346.985       25.626      866.365
05/10/2013  15:28:00      -86.525       60.709        2.473       85.477      102.956       58.401     7306.272    10599.987     3410.636        1.624        1.066      105.698       44.131        0.174      347.263       26.106      866.353
05/10/2013  15:29:00     -146.745      164.762      -26.939       70.505       88.090       44.197     4970.940     7759.903     1953.338        3.204        0.734      220.637       50.242        0.052      346.736       25.194      866.360
05/10/2013  15:30:00     -116.626      162.369       -9.558       80.633       68.749       45.766     6501.615     4726.483     2094.532        2.669        0.666      199.913       30.657        0.024      347.024       25.690      866.334
05/10/2013  15:31:00     -182.533      186.334      -40.244       72.104       77.603       48.778     5199.034     6022.187     2379.275        4.163        0.680      260.842       41.372        0.025      346.839       25.372      866.332
05/10/2013  15:32:00     -126.023      195.202      -22.024       55.587       44.414       37.033     3089.885     1972.631     1371.446        3.045        0.322      232.349       33.542        0.021      346.735       25.195      866.329
05/10/2013  15:33:00     -100.759      129.864      -11.949       52.407       56.554       41.686     2746.546     3198.392     1737.726        1.742        0.384      164.368       37.612        0.052      346.884       25.451      866.304
05/10/2013  15:34:00      -62.788      149.145        2.395       53.049       86.853       48.577     2814.167     7543.492     2359.731        1.945        0.636      161.823       42.845        0.070      347.078       25.785      866.288
05/10/2013  15:35:00     -122.118       44.170      -24.572       79.314       94.700       52.824     6290.656     8968.052     2790.399        1.776        0.902      129.861       39.007        0.090      347.008       25.665      866.260
05/10/2013  15:36:00      -62.693       35.106       10.847       71.189       44.342       36.048     5067.908     1966.195     1299.424        0.681        0.417       71.853       37.952        0.279      347.377       26.301      866.251
05/10/2013  15:37:00      -58.010       29.984        3.420       54.904       63.785       32.846     3014.430     4068.500     1078.886        0.622        0.408       65.300       25.366        0.151      347.098       25.820      866.246
05/10/2013  15:38:00      -66.117      -13.741       33.586      102.486       58.022       55.413    10503.382     3366.591     3070.572        1.131        0.847       67.530       55.131        0.667      347.217       26.027      866.223
05/10/2013  15:39:00     -210.537     -107.269        6.114       81.288       70.304       49.361     6607.694     4942.697     2436.474        3.493        0.699      236.289       42.364        0.032      346.870       25.423      866.200
05/10/2013  15:40:00     -247.733     -105.788       -5.853      125.302       83.447       41.721    15700.511     6963.344     1740.617        4.850        1.220      269.375       34.447        0.016      346.811       25.323      866.190
05/10/2013  15:41:00     -204.017      -63.931       -0.519      133.272       67.799       45.149    17761.517     4596.713     2038.433        3.505        1.220      213.799       57.444        0.072      346.972       25.601      866.182
05/10/2013  15:42:00      -83.919      -35.237       17.384       91.720       91.529       52.672     8412.533     8377.554     2774.367        1.407        0.978       91.017       57.184        0.395      347.147       25.904      866.179
05/10/2013  15:43:00        9.538        8.905        8.284       58.036       31.727       34.089     3368.144     1006.627     1162.033        0.289        0.277       13.049       21.339        2.674      347.368       26.286      866.193
05/10/2013  15:44:00       41.181      123.876        0.038       55.154       69.015       42.301     3041.927     4763.052     1789.405        1.332        0.480      130.541       38.722        0.088      347.063       25.760      866.189
05/10/2013  15:45:00       -8.550      220.524      -33.019       50.444       62.973       37.125     2544.547     3965.578     1378.234        2.884        0.394      220.690       33.257        0.023      346.725       25.176      866.179
05/10/2013  15:46:00      -42.739       40.125        4.637       82.511       63.600       42.122     6808.016     4044.994     1774.266        0.804        0.631       58.623       49.642        0.717      347.165       25.936      866.178
05/10/2013  15:47:00       12.300      100.550        3.818       49.137       75.378       47.868     2414.396     5681.898     2291.340        1.033        0.519      101.300       35.737        0.124      347.156       25.923      866.178
05/10/2013  15:48:00     -103.544       21.968       21.961       71.176       46.109       49.033     5066.011     2126.014     2404.279        1.064        0.480      105.849       44.767        0.179      347.469       26.461      866.169
05/10/2013  15:49:00       -8.818       35.533        9.439       38.888       46.056       38.358     1512.298     2121.148     1471.360        0.327        0.255       36.611       34.744        0.901      347.594       26.677      866.155
05/10/2013  15:50:00      -98.143       -4.591        1.710       99.233       52.312       44.573     9847.249     2736.556     1986.776        1.211        0.729       98.250       51.494        0.275      347.493       26.501      866.156
05/10/2013  15:51:00     -170.749        0.110      -15.651       63.802       83.172       37.178     4070.728     6917.586     1382.202        2.088        0.619      170.749       32.038        0.035      346.951       25.566      866.139
05/10/2013  15:52:00     -134.646        1.548       -6.734       84.451       71.672       40.420     7131.955     5136.923     1633.783        1.604        0.695      134.655       31.962        0.056      347.423       26.379      866.119
05/10/2013  15:53:00      -98.153        1.373        4.505       64.299       55.789       31.359     4134.379     3112.427      983.371        0.894        0.412       98.163       35.356        0.130      347.261       26.104      866.114
05/10/2013  15:54:00     -174.565       53.870      -16.271       97.019       70.124       46.785     9412.737     4917.438     2188.833        2.508        0.826      182.689       45.288        0.061      347.109       25.838      866.093
05/10/2013  15:55:00     -203.327      -33.789      -14.612      114.739       82.007       50.696    13165.044     6725.175     2570.073        3.257        1.123      206.115       44.810        0.047      347.218       26.026      866.065
05/10/2013  15:56:00       15.529      -98.557       13.397       60.129       81.622       54.928     3615.482     6662.177     3017.124        1.171        0.665       99.773       44.739        0.201      346.925       25.522      866.069
05/10/2013  15:57:00      -64.244      -41.154        3.337      107.527       77.367       38.450    11561.964     5985.643     1478.436        1.243        0.951       76.295       16.238        0.045      347.107       25.837      866.053
05/10/2013  15:58:00     -142.733      -69.294        8.980       87.853       76.399       44.075     7718.173     5836.857     1942.575        2.037        0.775      158.665       36.919        0.054      346.997       25.644      866.033
05/10/2013  15:59:00      -79.572       22.411      -15.334       67.554       47.646       43.827     4563.536     2270.133     1920.791        0.791        0.438       82.668       24.845        0.090      347.016       25.680      866.015
05/10/2013  16:00:00     -133.070      -63.259       13.402      111.807       81.232       62.222    12500.840     6598.663     3871.575        2.243        1.149      147.341       54.832        0.138      347.054       25.745      865.995
05/10/2013  16:01:00     -184.839      -23.216        4.877       88.563      102.877       47.291     7843.352    10583.661     2236.394        2.769        1.033      186.292       27.299        0.021      347.074       25.778      865.981
05/10/2013  16:02:00      -33.650       69.078      -12.193       44.317       24.409       23.462     1964.022      595.807      550.461        0.458        0.156       76.838       12.883        0.028      346.703       25.141      865.980
05/10/2013  16:03:00       10.257       18.970        4.613       27.255       27.322       25.747      742.823      746.491      662.905        0.132        0.108       21.565       21.607        1.004      346.899       25.479      865.964
05/10/2013  16:04:00       35.993       56.881        5.782       21.191       31.330       25.242      449.037      981.587      637.139        0.332        0.103       67.312       19.181        0.081      346.774       25.264      865.930
05/10/2013  16:05:00       19.848        9.219       13.028       29.589       43.777       29.981      875.523     1916.430      898.835        0.217        0.185       21.884       20.882        0.910      347.065       25.763      865.927
05/10/2013  16:06:00      -13.926      -18.493       20.362       51.782       58.141       38.099     2681.393     3380.393     1451.517        0.423        0.376       23.150       29.141        1.585      347.355       26.265      865.915
05/10/2013  16:07:00      -65.232      -51.750       -0.637       41.828       36.737       27.766     1749.583     1349.623      770.934        0.540        0.194       83.266       18.643        0.050      347.342       26.242      865.903
05/10/2013  16:08:00       19.398      -64.315       42.197       98.137       86.862       50.737     9630.805     7544.975     2574.225        1.302        0.988       67.176       51.284        0.583      347.374       26.296      865.887
05/10/2013  16:09:00      101.512     -199.123      -18.687       85.638       70.036       49.968     7333.937     4904.985     2496.767        3.252        0.737      223.506       45.645        0.042      346.774       25.260      865.874
05/10/2013  16:10:00       62.529     -118.564       24.542       68.796       78.542       59.842     4732.937     6168.867     3581.103        1.652        0.724      134.042       61.096        0.208      346.941       25.549      865.849
05/10/2013  16:11:00       58.898     -160.153      -26.834       62.959       79.544       56.164     3963.801     6327.291     3154.434        2.164        0.672      170.640       51.984        0.093      347.002       25.654      865.852
05/10/2013  16:12:00      -36.300      -59.881       -9.680       98.420       35.983       37.619     9686.418     1294.796     1415.206        0.869        0.620       70.025       20.629        0.087      347.066       25.766      865.853
05/10/2013  16:13:00       -4.534      -83.676      -30.020       56.870       50.108       23.858     3234.232     2510.774      569.221        0.712        0.316       83.799       12.088        0.021      347.140       25.894      865.855
05/10/2013  16:14:00      -40.316     -124.824       -6.300       74.094       75.448       35.543     5489.883     5692.458     1263.340        1.484        0.622      131.173       32.399        0.061      347.217       26.025      865.847
05/10/2013  16:15:00      -54.687     -153.902        3.163       86.662       59.669       40.259     7510.281     3560.348     1620.808        1.969        0.635      163.329       43.182        0.070      346.971       25.602      865.835
05/10/2013  16:16:00     -120.600     -117.930        7.960      105.898       84.220       53.104    11214.292     7093.038     2820.040        2.482        1.056      168.677       52.749        0.098      347.212       26.014      865.820
05/10/2013  16:17:00     -146.300     -130.501       10.339       99.947       74.658       47.581     9989.397     5573.799     2263.934        2.818        0.891      196.046       47.523        0.059      347.105       25.833      865.817
05/10/2013  16:18:00      -76.181      -60.034        1.459       74.737       56.046       32.611     5585.636     3141.195     1063.470        0.960        0.490       96.993       26.162        0.073      347.234       26.056      865.812
05/10/2013  16:19:00       -5.896      -30.327       11.759       28.640       41.274       26.945      820.230     1703.513      726.054        0.217        0.162       30.895       12.666        0.168      347.610       26.704      865.793
05/10/2013  16:20:00       14.360     -117.332        1.493       50.738       83.970       46.145     2574.394     7051.003     2129.373        1.286        0.588      118.207       27.343        0.054      347.387       26.320      865.774
05/10/2013  16:21:00       36.751      -48.416       27.515       68.614       89.853       62.168     4707.934     8073.635     3864.890        1.055        0.832       60.784       47.615        0.614      347.348       26.251      865.763
05/10/2013  16:22:00       40.888     -102.984       28.229       62.793      103.447       63.307     3943.020    10701.262     4007.819        1.586        0.933      110.804       68.468        0.382      347.110       25.841      865.743
05/10/2013  16:23:00       57.750      -81.594       -4.086       64.443       94.314       56.846     4152.871     8895.102     3231.460        1.314        0.814       99.964       64.320        0.414      347.113       25.847      865.745
05/10/2013  16:24:00       68.593      -90.173        7.523       63.498       81.285       54.654     4032.018     6607.210     2987.096        1.326        0.681      113.297       63.758        0.317      347.111       25.843      865.742
05/10/2013  16:25:00       81.373     -126.983      -28.647       51.512       61.019       36.208     2653.487     3723.302     1311.010        1.563        0.384      150.819       24.416        0.026      346.987       25.628      865.737
05/10/2013  16:26:00       64.272     -118.689      -12.386       79.900       81.765       35.943     6384.065     6685.510     1291.896        1.636        0.718      134.975       35.578        0.069      347.015       25.677      865.729
05/10/2013  16:27:00       72.907     -122.803      -25.041       72.867       84.384       51.963     5309.626     7120.585     2700.105        1.807        0.757      142.815       44.816        0.098      346.895       25.469      865.735
05/10/2013  16:28:00       29.054      -76.758      -16.332       50.289       70.798       53.274     2528.948     5012.299     2838.164        0.869        0.519       82.073       32.094        0.153      346.927       25.526      865.734
05/10/2013  16:29:00       57.824      -91.203       -8.333       86.363       80.128       67.154     7458.528     6420.546     4509.634        1.506        0.919      107.989       70.763        0.429      347.022       25.690      865.712
05/10/2013  16:30:00       90.152     -194.746      -34.510       66.598       52.315       39.660     4435.249     2736.826     1572.918        2.799        0.437      214.600       32.869        0.023      346.877       25.438      865.703
05/10/2013  16:31:00       57.013     -163.316      -17.715       58.116       44.827       36.361     3377.469     2009.457     1322.130        1.847        0.335      172.981       27.672        0.026      346.882       25.449      865.690
05/10/2013  16:32:00       47.162     -113.060      -18.031       49.791       64.908       40.791     2479.182     4213.017     1663.934        1.184        0.418      122.502       35.889        0.086      347.105       25.831      865.676
05/10/2013  16:33:00       60.372        4.884       30.992       50.295       96.575       56.015     2529.608     9326.794     3137.677        0.981        0.750       60.569       47.854        0.624      347.103       25.830      865.669
05/10/2013  16:34:00        1.364      -31.992       10.921       42.562       39.533       32.286     1811.489     1562.822     1042.374        0.278        0.221       32.021       17.653        0.304      347.226       26.043      865.658
05/10/2013  16:35:00       49.271      -39.886       15.853       57.717       37.405       28.447     3331.231     1399.169      809.233        0.490        0.277       63.392       26.413        0.174      347.206       26.007      865.645
05/10/2013  16:36:00       50.216      -33.006       31.654       53.508       78.507       38.956     2863.133     6163.294     1517.555        0.758        0.527       60.092       42.134        0.492      347.432       26.397      865.637
05/10/2013  16:37:00       89.418      -87.803        3.970       55.819       80.861       45.055     3115.809     6538.573     2029.985        1.370        0.584      125.319       56.761        0.205      347.442       26.413      865.634
05/10/2013  16:38:00      -23.722      -13.836       13.766       86.409       55.698       36.827     7466.507     3102.323     1356.256        0.643        0.596       27.462       28.127        1.049      347.760       26.962      865.631
05/10/2013  16:39:00     -142.539       47.281       -4.993       70.847       58.278       32.952     5019.340     3396.345     1085.851        1.604        0.475      150.176       25.163        0.028      347.401       26.342      865.630
05/10/2013  16:40:00      -86.611      -47.172       20.127      111.851       84.596       38.159    12510.662     7156.515     1456.087        1.562        1.056       98.624       33.422        0.115      347.586       26.661      865.631
05/10/2013  16:41:00     -111.809      -43.990        5.028       94.515       55.535       40.328     8933.138     3084.124     1626.313        1.405        0.682      120.151       51.428        0.183      347.335       26.229      865.628
05/10/2013  16:42:00     -107.672       63.003      -32.458       66.969       99.345       31.954     4484.873     9869.476     1021.056        1.599        0.769      124.751       27.986        0.050      347.054       25.744      865.619
05/10/2013  16:43:00       84.749       55.661       44.367       49.025       59.463       59.006     2403.467     3535.852     3481.656        1.083        0.471      101.393       44.073        0.189      346.973       25.606      865.596
05/10/2013  16:44:00      -23.960       29.408       63.494       44.725       73.846       50.370     2000.294     5453.185     2537.166        0.773        0.500       37.933       55.027        2.104      347.322       26.208      865.565
05/10/2013  16:45:00       22.166        9.281        8.397       23.506       49.669       22.844      552.524     2466.987      521.846        0.209        0.177       24.031       17.175        0.511      347.547       26.595      865.591
05/10/2013  16:46:00       60.078       67.989       54.688       80.728       80.391       64.619     6517.088     6462.679     4175.568        1.419        0.858       90.730       53.420        0.347      347.240       26.066      865.571
05/10/2013  16:47:00     -154.564     -130.580        1.645      122.310       87.493       50.059    14959.730     7654.985     2505.883        3.303        1.256      202.339       43.796        0.047      347.486       26.487      865.567
05/10/2013  16:48:00     -160.766      -47.956       -7.322       86.888       74.054       49.324     7549.488     5483.984     2432.872        2.183        0.773      167.767       51.522        0.094      347.511       26.530      865.593
05/10/2013  16:49:00     -156.725      -26.799       -2.538       75.563       74.252       43.542     5709.691     5513.414     1895.899        1.920        0.656      159.000       43.842        0.076      347.609       26.701      865.596
05/10/2013  16:50:00     -179.358      -95.350       -8.132       67.902       50.984       42.579     4610.705     2599.404     1812.934        2.517        0.451      203.128       37.774        0.035      347.530       26.563      865.600
05/10/2013  16:51:00     -158.472      -73.880        3.657       87.215       64.383       45.473     7606.516     4145.128     2067.752        2.220        0.691      174.848       39.710        0.052      347.454       26.432      865.598
05/10/2013  16:52:00     -166.129      -95.668       -5.126       96.899       91.045       43.970     9389.497     8289.227     1933.376        2.819        0.981      191.706       38.872        0.041      347.509       26.527      865.591
05/10/2013  16:53:00     -204.242       54.284      -28.373       77.200       92.509       50.262     5959.773     8557.869     2526.276        3.125        0.852      211.332       48.350        0.052      347.326       26.210      865.587
05/10/2013  16:54:00     -133.059      -54.384        3.963      106.461      110.569       65.633    11333.942    12225.402     4307.675        2.427        1.393      143.744       53.867        0.140      347.563       26.620      865.568
05/10/2013  16:55:00     -166.229      -55.955       -7.322      116.104       93.329       50.606    13480.228     8710.383     2560.959        2.778        1.238      175.394       56.516        0.104      347.577       26.645      865.566
05/10/2013  16:56:00     -176.222       37.439      -14.643       79.900       60.828       36.910     6384.080     3700.095     1362.359        2.206        0.572      180.155       29.106        0.026      347.495       26.504      865.554
05/10/2013  16:57:00     -319.193      -44.146      -20.282      127.068       85.387       58.702    16146.351     7290.869     3445.937        6.556        1.344      322.231       61.983        0.037      347.373       26.293      865.569
05/10/2013  16:58:00     -261.578       52.363      -26.152       83.943       57.743       42.598     7046.357     3334.233     1814.599        4.202        0.610      266.768       36.034        0.018      347.187       25.972      865.583
05/10/2013  16:59:00     -154.358      -84.824      -14.193       89.023      105.839       51.446     7925.017    11201.980     2646.686        2.649        1.089      176.130       61.626        0.122      346.946       25.555      865.589
05/10/2013  17:00:00     -169.339       -0.852      -20.010       80.180       46.226       36.032     6428.835     2136.819     1298.328        1.947        0.493      169.341       34.940        0.043      347.258       26.094      865.566
05/10/2013  17:01:00     -129.340      -55.138       -7.563      128.893       72.517       36.903    16613.483     5258.657     1361.862        2.153        1.162      140.603       45.930        0.107      347.443       26.414      865.578
05/10/2013  17:02:00     -146.287      -64.300        3.482       88.695       55.588       42.402     7866.758     3090.054     1797.912        1.915        0.638      159.795       46.896        0.086      347.352       26.257      865.587
05/10/2013  17:03:00      -87.032      -59.942        4.182       59.631       54.826       41.757     3555.871     3005.901     1743.674        0.974        0.415      105.677       33.920        0.103      347.549       26.597      865.587
05/10/2013  17:04:00      -74.573      -94.471       -2.933       81.740       52.103       33.582     6681.398     2714.701     1127.732        1.251        0.526      120.357       33.848        0.079      347.403       26.347      865.579
05/10/2013  17:05:00      -58.120      -57.721      -11.613       32.968       41.077       25.837     1086.863     1687.354      667.531        0.514        0.172       81.912       19.188        0.055      347.110       25.841      865.585
05/10/2013  17:06:00      -46.534       14.717       20.485       53.234       19.462       19.769     2833.847      378.781      390.815        0.320        0.180       48.806       18.385        0.142      347.514       26.539      865.572
05/10/2013  17:07:00      -20.152      -17.964       17.554       39.594       36.570       22.883     1567.723     1337.379      523.625        0.223        0.171       26.996       20.075        0.553      347.739       26.926      865.578
05/10/2013  17:08:00      -19.229       31.439       20.964       34.218       53.094       27.803     1170.851     2818.948      773.018        0.328        0.238       36.853       24.796        0.453      347.470       26.464      865.576
05/10/2013  17:09:00      -33.761      130.758       -5.055       54.008       72.293       37.398     2916.874     5226.340     1398.581        1.390        0.477      135.046       52.537        0.151      347.227       26.043      865.579
05/10/2013  17:10:00      -40.177      147.921      -10.763       32.668       62.793       37.877     1067.201     3942.974     1434.635        1.503        0.322      153.280       35.110        0.052      347.155       25.918      865.558
05/10/2013  17:11:00      -42.814      154.142      -26.310       43.377       66.986       23.681     1881.600     4487.191      560.778        1.661        0.346      159.978       26.467        0.027      347.101       25.824      865.550
05/10/2013  17:12:00        5.042      142.005      -26.589       20.839       49.051       12.980      434.261     2405.959      168.490        1.195        0.150      142.095       10.525        0.005      346.979       25.615      865.538
05/10/2013  17:13:00        0.575       66.136        1.376       27.215       30.768       25.924      740.662      946.691      672.066        0.337        0.118       66.138       11.274        0.029      347.205       26.007      865.525
05/10/2013  17:14:00      -58.415      108.252      -12.111       37.688       38.692       31.551     1420.407     1497.091      995.443        0.959        0.196      123.007       24.739        0.040      347.346       26.249      865.528
05/10/2013  17:15:00     -121.218      122.366      -27.680       38.325       36.557       23.329     1468.775     1336.442      544.234        1.689        0.167      172.242       19.266        0.013      347.094       25.814      865.518
05/10/2013  17:16:00      -61.804       63.912       -6.896       45.687       35.404       27.155     2087.338     1253.459      737.371        0.601        0.204       88.907       15.976        0.032      347.273       26.124      865.508
05/10/2013  17:17:00       67.901       50.417       12.104       50.003       38.333       29.431     2500.345     1469.421      866.191        0.607        0.242       84.572       13.748        0.026      347.126       25.870      865.487
05/10/2013  17:18:00       26.791       -4.276      -10.673       39.949       27.947       13.639     1595.937      781.020      186.026        0.171        0.128       27.131       16.609        0.375      347.093       25.813      865.475
05/10/2013  17:19:00       15.571       -4.951       27.503       22.578       34.810       19.880      509.769     1211.750      395.202        0.157        0.106       16.339       20.034        1.503      347.262       26.105      865.459
05/10/2013  17:20:00        6.547        8.241       27.278       21.733       14.848       15.024      472.316      220.459      225.723        0.089        0.046       10.525       11.271        1.147      346.958       25.582      865.455
05/10/2013  17:21:00       -4.387       30.594       36.093       21.711       19.369       14.392      471.374      375.165      207.137        0.166        0.053       30.907        7.613        0.061      346.777       25.269      865.441
05/10/2013  17:22:00        6.417       10.867        2.355       18.650       18.944       13.062      347.815      358.870      170.615        0.052        0.044       12.621        8.708        0.476      347.167       25.940      865.435
05/10/2013  17:23:00     -100.691       -6.186       -4.058       52.304       32.732       23.428     2735.704     1071.373      548.858        0.727        0.218      100.881       19.095        0.036      347.581       26.654      865.422
05/10/2013  17:24:00      -35.608        5.724        7.649       80.616       42.729       32.272     6498.948     1825.755     1041.455        0.536        0.468       36.065       36.024        0.998      347.732       26.914      865.417
05/10/2013  17:25:00      -50.979      123.614        4.085       97.222       88.424       49.750     9452.070     7818.805     2475.043        1.882        0.987      133.714       54.731        0.168      347.544       26.588      865.418
05/10/2013  17:26:00      -67.667       86.079      -18.067       75.861       69.621       36.115     5754.953     4847.102     1304.270        1.211        0.595      109.492       31.845        0.085      347.593       26.676      865.424
05/10/2013  17:27:00     -172.732      166.523      -37.360       79.310      106.544       50.709     6290.075    11351.722     2571.441        3.958        1.011      239.930       51.499        0.046      347.381       26.307      865.424
05/10/2013  17:28:00     -137.739      206.098      -45.939       75.591       94.398       45.153     5713.963     8910.898     2038.833        4.011        0.833      247.888       51.468        0.043      347.239       26.060      865.430
05/10/2013  17:29:00      -93.033       60.504      -14.033       71.016       67.129       33.144     5043.310     4506.311     1098.516        1.158        0.532      110.977       24.231        0.048      347.451       26.429      865.412
05/10/2013  17:30:00     -100.109       97.106      -10.736       65.002       74.168       49.029     4225.281     5500.906     2403.868        1.585        0.607      139.468       46.528        0.111      347.507       26.525      865.397
05/10/2013  17:31:00     -205.005      350.941      -53.839       99.670      126.568       66.011     9934.163    16019.468     4357.439        9.919        1.516      406.432       65.993        0.026      347.318       26.197      865.392
05/10/2013  17:32:00     -184.296      223.692      -22.307       89.957      130.652       61.558     8092.242    17070.041     3789.381        5.672        1.448      289.833       48.796        0.028      347.397       26.334      865.386
05/10/2013  17:33:00      -75.459      323.211      -41.173       80.238      152.510       53.478     6438.216    23259.149     2859.915        7.220        1.628      331.902       68.295        0.042      347.318       26.198      865.398
05/10/2013  17:34:00      -33.188      426.145      -52.918       56.781       75.066       32.577     3224.121     5634.902     1061.240        9.771        0.496      427.435       21.339        0.002      347.121       25.857      865.408
05/10/2013  17:35:00     -114.213      294.882      -39.635       62.506       95.049       38.525     3907.014     9034.345     1484.189        5.800        0.721      316.227       24.973        0.006      347.212       26.014      865.420
05/10/2013  17:36:00      -23.139      203.368      -29.995       56.676       50.506       34.575     3212.120     2550.827     1195.439        2.487        0.348      204.680       31.108        0.023      347.259       26.095      865.410
05/10/2013  17:37:00      -22.560      120.650      -14.498       62.957       47.241       32.438     3963.535     2231.717     1052.248        1.126        0.362      122.742       23.108        0.035      347.404       26.348      865.406
05/10/2013  17:38:00      -63.643       95.805      -22.314       54.129       38.966       26.313     2929.977     1518.363      692.396        0.943        0.257      115.018       23.372        0.041      347.371       26.292      865.401
05/10/2013  17:39:00      -58.446      124.932      -17.064       51.259       66.368       28.614     2627.472     4404.716      818.747        1.358        0.393      137.927       26.529        0.037      347.252       26.086      865.386
05/10/2013  17:40:00      -55.827       46.943        6.624       58.681       55.764       34.733     3443.464     3109.596     1206.361        0.656        0.388       72.940       32.496        0.198      347.466       26.456      865.366
05/10/2013  17:41:00      -88.612      -56.411       -9.254       75.313       49.876       38.837     5671.989     2487.637     1508.291        1.039        0.483      105.044       38.143        0.132      347.484       26.487      865.353
05/10/2013  17:42:00     -158.102      -56.804      -20.715       60.202       58.498       33.204     3624.335     3422.006     1102.498        1.840        0.407      167.997       25.562        0.023      347.360       26.272      865.353
05/10/2013  17:43:00      -77.123       95.141      -10.824       52.130       85.611       33.452     2717.485     7329.230     1119.030        1.314        0.558      122.473       31.131        0.065      347.421       26.379      865.344
05/10/2013  17:44:00     -121.130      139.557      -18.705       58.637       64.070       42.325     3438.329     4104.947     1791.368        2.192        0.467      184.793       42.606        0.053      347.384       26.312      865.336
05/10/2013  17:45:00      -66.910      110.867       -6.009       50.214       48.841       28.954     2521.411     2385.423      838.322        1.127        0.287      129.493       32.804        0.064      347.266       26.109      865.327
05/10/2013  17:46:00      -63.299       53.634       -0.331       28.298       32.762       21.556      800.786     1073.357      464.660        0.461        0.117       82.967       12.885        0.024      347.527       26.562      865.323
05/10/2013  17:47:00     -116.988        9.057      -14.497       64.768       47.523       35.906     4194.867     2258.416     1289.236        1.086        0.387      117.338       30.695        0.068      347.483       26.484      865.324
05/10/2013  17:48:00     -181.327      -31.077      -17.430       55.073       67.612       30.002     3032.998     4571.380      900.147        2.133        0.425      183.970       12.754        0.005      347.360       26.271      865.315
05/10/2013  17:49:00      -57.178       39.202        6.539       64.898       32.564       37.867     4211.729     1060.387     1433.945        0.578        0.335       69.326       32.269        0.217      347.706       26.871      865.324
05/10/2013  17:50:00     -121.746      -93.176        8.965      115.006       76.969       57.468    13226.411     5924.233     3302.619        2.301        1.123      153.310       69.678        0.207      347.471       26.462      865.321
05/10/2013  17:51:00     -159.539      -89.457       -7.358      108.529       66.371       43.539    11778.620     4405.106     1895.665        2.579        0.904      182.907       34.774        0.036      347.279       26.130      865.319
05/10/2013  17:52:00     -140.414     -145.897       -4.428       86.160       77.361       43.665     7423.606     5984.705     1906.624        2.817        0.766      202.490       50.963        0.063      347.192       25.980      865.314
05/10/2013  17:53:00      -61.980      -39.795        1.854       71.504       58.627       30.747     5112.793     3437.151      945.394        0.746        0.475       73.656       23.782        0.104      347.356       26.265      865.300
05/10/2013  17:54:00      -54.142       52.698      -14.116       96.188       59.223       35.607     9252.203     3507.375     1267.881        0.997        0.701       75.554       46.759        0.383      347.401       26.342      865.307
05/10/2013  17:55:00     -144.597       89.462      -17.112      130.693      208.009       84.774    17080.789    43267.896     7186.666        4.836        3.377      170.034       58.712        0.119      347.492       26.497      865.271
05/10/2013  17:56:00      -80.207      131.932      -23.268       47.710       42.391       35.924     2276.215     1797.018     1290.555        1.487        0.268      154.400       28.260        0.034      347.428       26.388      865.350
05/10/2013  17:57:00      -21.764       86.183      -17.640       38.199       39.546       17.939     1459.157     1563.852      321.801        0.578        0.167       88.888       17.505        0.039      347.387       26.321      865.351
05/10/2013  17:58:00      -31.874      161.741      -18.939       58.310      110.015       42.590     3400.107    12103.389     1813.896        2.242        0.866      164.851       56.147        0.116      347.402       26.344      865.367
05/10/2013  17:59:00      -17.020      297.282      -37.854       60.989      103.097       41.781     3719.688    10629.051     1745.613        5.309        0.805      297.769       47.447        0.025      347.157       25.919      865.380
05/10/2013  18:00:00      -42.178      273.043      -34.384       88.928      131.121       54.846     7908.154    17192.688     3008.050        5.281        1.405      276.282       64.695        0.055      347.313       26.188      865.351
05/10/2013  18:01:00      -13.994      238.463      -16.104       87.843      158.122       51.244     7716.470    25002.700     2625.986        4.633        1.767      238.873       65.681        0.076      347.453       26.428      865.332
05/10/2013  18:02:00       33.699      302.632      -34.258       96.484      167.938       67.017     9309.144    28203.129     4491.323        6.794        2.100      304.502       80.122        0.069      347.371       26.288      865.337
05/10/2013  18:03:00      115.280      194.859       -2.095      109.106      132.695       74.840    11904.207    17607.892     5600.999        4.318        1.756      226.406       80.500        0.126      347.262       26.100      865.340
05/10/2013  18:04:00       65.770      173.059       -8.988       79.167       83.551       51.808     6267.369     6980.704     2684.111        2.514        0.797      185.135       55.146        0.089      347.187       25.974      865.342
05/10/2013  18:05:00        2.880      196.900      -21.826       57.032       86.522       44.025     3252.670     7486.009     1938.166        2.596        0.634      196.921       47.694        0.059      347.256       26.090      865.334
05/10/2013  18:06:00       38.738      163.809      -13.183       69.272       70.421       51.196     4798.669     4959.052     2621.043        2.044        0.619      168.327       37.278        0.049      347.343       26.241      865.333
05/10/2013  18:07:00      124.770      136.233        4.496       96.742       84.133       60.969     9358.968     7078.396     3717.253        2.715        1.008      184.735       51.443        0.078      347.364       26.278      865.341
05/10/2013  18:08:00      111.069      102.692        5.130       90.306       74.421       62.287     8155.233     5538.414     3879.616        2.024        0.879      151.268       47.181        0.097      347.185       25.971      865.339
05/10/2013  18:09:00       86.155       70.955        1.634       61.883       65.588       39.024     3829.498     4301.797     1522.865        1.106        0.483      111.612       28.525        0.065      347.260       26.099      865.347
05/10/2013  18:10:00      115.637      107.385       16.002      100.398       71.912       49.703    10079.734     5171.362     2470.360        2.144        0.886      157.808       25.165        0.025      347.333       26.224      865.348
05/10/2013  18:11:00       77.980       78.166       33.709       81.022       60.122       39.807     6564.526     3614.633     1584.588        1.254        0.588      110.412       27.997        0.064      347.419       26.373      865.360
05/10/2013  18:12:00      113.716       72.309       22.911       74.870       57.648       51.833     5605.460     3323.248     2686.613        1.515        0.581      134.759       33.915        0.063      347.293       26.156      865.365
05/10/2013  18:13:00       78.459       37.577       33.546       89.031       53.091       50.885     7926.434     2818.637     2589.273        1.101        0.667       86.993       27.108        0.097      347.183       25.967      865.360
05/10/2013  18:14:00      145.982       95.758        8.136       72.513       52.996       44.686     5258.170     2808.568     1996.804        2.030        0.503      174.586       32.746        0.035      347.145       25.900      865.365
05/10/2013  18:15:00       35.220       21.374       50.489       56.445       55.152       37.846     3186.070     3041.779     1432.334        0.595        0.383       41.198       27.400        0.442      347.196       25.991      865.363
05/10/2013  18:16:00       61.956        7.473       37.875       54.082       32.107       31.048     2924.916     1030.869      963.994        0.512        0.246       62.405       23.399        0.141      347.077       25.784      865.361
05/10/2013  18:17:00       44.203        7.009       29.687       33.888       43.135       21.907     1148.378     1860.641      479.905        0.319        0.174       44.755       21.607        0.233      347.159       25.927      865.363
05/10/2013  18:18:00       37.909       25.341        2.783       27.253       25.952       24.872      742.729      673.490      618.606        0.206        0.102       45.599       18.795        0.170      346.865       25.421      865.373
05/10/2013  18:19:00       45.001       47.282       -6.168       39.092       50.559       26.536     1528.219     2556.196      704.186        0.454        0.239       65.274       28.883        0.196      347.246       26.077      865.385
05/10/2013  18:20:00      -32.722       74.945       -8.773       36.326       38.650       17.899     1319.575     1493.820      320.381        0.495        0.157       81.777       15.602        0.036      347.243       26.072      865.393
05/10/2013  18:21:00      -11.440       34.112        1.013       33.444       41.490       21.838     1118.490     1721.439      476.888        0.231        0.166       35.980       15.332        0.182      347.315       26.195      865.368
05/10/2013  18:22:00       33.380       21.971       16.811       23.944       18.371       16.857      573.324      337.508      284.147        0.154        0.060       39.961        2.006        0.003      347.210       26.015      865.348
05/10/2013  18:23:00      148.793       67.399       11.035       64.430       53.831       46.911     4151.277     2897.742     2200.660        1.803        0.462      163.346       33.540        0.042      347.075       25.780      865.350
05/10/2013  18:24:00      120.429       49.215       10.679       92.894       54.882       45.390     8629.207     3012.085     2060.294        1.537        0.685      130.097       39.648        0.093      347.103       25.828      865.385
05/10/2013  18:25:00       48.002      111.902      -11.769       37.983       60.457       39.929     1442.693     3654.994     1594.301        1.083        0.335      121.763       40.664        0.112      347.105       25.831      865.403
05/10/2013  18:26:00       42.168       27.417       42.976       52.295       44.060       33.572     2734.791     1941.296     1127.075        0.509        0.290       50.298       37.475        0.555      347.013       25.677      865.381
05/10/2013  18:27:00       -6.239       49.417        1.938       27.989       25.279       20.562      783.404      639.007      422.811        0.216        0.092       49.809       14.310        0.083      346.979       25.616      865.376
05/10/2013  18:28:00      -26.522       58.973       -1.916       32.601       54.880       24.006     1062.818     3011.868      576.285        0.442        0.233       64.662       28.606        0.196      347.285       26.144      865.374
05/10/2013  18:29:00      -25.976      106.339       -9.525       30.799       39.394       20.666      948.584     1551.902      427.069        0.750        0.146      109.465       18.756        0.029      347.153       25.916      865.377
05/10/2013  18:30:00       29.647      107.642        2.660       94.274       54.537       37.608     8887.613     2974.327     1414.347        1.287        0.664      111.650       30.838        0.076      347.195       25.988      865.359
05/10/2013  18:31:00       11.073      364.847      -52.206       52.478      145.175       42.060     2753.982    21075.814     1769.002        8.078        1.280      365.015       54.312        0.022      347.211       26.013      865.350
05/10/2013  18:32:00      -71.079      341.700      -37.309       65.371      108.387       38.466     4273.411    11747.769     1479.608        7.035        0.875      349.015       40.443        0.013      347.203       26.000      865.368
05/10/2013  18:33:00     -102.479      220.946      -28.926       59.412      105.312       41.442     3529.839    11090.615     1717.471        3.824        0.817      243.555       44.448        0.033      347.230       26.045      865.388
05/10/2013  18:34:00      -20.512       92.554       -3.312       65.413       71.291       41.141     4278.913     5082.420     1692.586        1.002        0.553       94.800       34.823        0.135      347.220       26.032      865.390
05/10/2013  18:35:00     -108.959      222.625      -29.353       67.303       77.746       43.693     4529.731     6044.370     1909.088        3.739        0.624      247.858       43.046        0.030      347.157       25.919      865.405
05/10/2013  18:36:00     -101.966      210.793      -25.500       41.065       77.070       39.143     1686.294     5939.776     1532.140        3.232        0.458      234.160       39.105        0.028      347.087       25.798      865.404
05/10/2013  18:37:00      -65.541      107.238      -18.926       50.863       51.753       33.121     2587.028     2678.378     1097.003        1.126        0.318      125.680       34.352        0.075      347.162       25.932      865.401
05/10/2013  18:38:00      -94.804      158.829      -28.478       53.526       59.392       35.136     2864.983     3527.361     1234.539        2.132        0.381      184.971       39.424        0.045      347.137       25.886      865.399
05/10/2013  18:39:00      -37.048      223.268      -28.292       40.364       77.938       26.567     1629.245     6074.278      705.784        3.021        0.420      226.321       26.986        0.014      347.189       25.976      865.401
05/10/2013  18:40:00      115.456      174.594        4.350      114.660       98.802       65.666    13146.977     9761.767     4311.971        3.552        1.361      209.316       61.435        0.086      347.119       25.854      865.402
05/10/2013  18:41:00       54.046      127.872        9.165       73.635       74.291       45.733     5422.182     5519.147     2091.530        1.619        0.652      138.824       41.269        0.088      347.141       25.894      865.399
05/10/2013  18:42:00       31.163      122.246        7.187       63.054       92.211       49.957     3975.826     8502.813     2495.734        1.547        0.749      126.156       47.417        0.141      347.195       25.987      865.402
05/10/2013  18:43:00       66.738      176.709      -20.995       82.704       95.670       54.875     6840.015     9152.683     3011.308        2.756        0.950      188.892       44.360        0.055      347.070       25.772      865.407
05/10/2013  18:44:00       40.186      206.317      -22.327       60.241       77.419       53.450     3628.970     5993.637     2856.861        2.858        0.624      210.194       43.433        0.043      347.049       25.734      865.399
05/10/2013  18:45:00        7.234      182.428      -19.951       37.252       61.176       36.288     1387.684     3742.559     1316.797        2.009        0.322      182.572       32.412        0.032      347.054       25.743      865.392
05/10/2013  18:46:00       12.526      107.950       -9.060       53.175       70.991       30.948     2827.608     5039.751      957.765        1.036        0.441      108.674       32.507        0.089      347.126       25.868      865.386
05/10/2013  18:47:00       24.436      182.071      -27.622       38.948       54.009       31.639     1516.919     2916.961     1001.052        1.997        0.272      183.703       27.472        0.022      347.107       25.834      865.408
05/10/2013  18:48:00       15.030      300.642      -46.495       54.749       87.845       36.531     2997.466     7716.819     1334.548        5.241        0.602      301.017       40.124        0.018      347.093       25.808      865.415
05/10/2013  18:49:00       37.085      161.659      -24.646       39.519       42.286       29.061     1561.743     1788.088      844.543        1.615        0.210      165.858       27.144        0.027      347.129       25.875      865.418
05/10/2013  18:50:00       35.410       63.841        2.303       52.495       49.838       48.132     2755.710     2483.869     2316.643        0.644        0.378       73.003       36.712        0.253      347.134       25.882      865.416
05/10/2013  18:51:00      -34.863      147.272      -19.435       43.156       88.743       32.092     1862.436     7875.401     1029.900        1.702        0.538      151.342       34.467        0.052      347.134       25.884      865.417
05/10/2013  18:52:00      -29.398      136.062       -5.562       47.437       85.225       38.435     2250.300     7263.330     1477.286        1.520        0.550      139.202       37.429        0.072      347.095       25.815      865.420
05/10/2013  18:53:00       81.402      146.664      -17.799       89.863       59.663       50.787     8075.332     3559.615     2579.338        2.133        0.711      167.740       35.536        0.045      347.073       25.777      865.433
05/10/2013  18:54:00       96.133      231.166       -8.735      128.801      142.695       78.271    16589.604    20361.754     6126.361        5.291        2.154      250.359       85.937        0.118      346.967       25.593      865.420
05/10/2013  18:55:00      111.931      169.582       -6.631      100.922       92.787       82.570    10185.319     8609.488     6817.727        3.347        1.281      203.191       72.168        0.126      346.950       25.565      865.423
05/10/2013  18:56:00       41.961      160.658       -6.053       72.288      113.740       66.621     5225.583    12936.765     4438.342        2.510        1.130      166.047       71.510        0.185      346.960       25.582      865.432
05/10/2013  18:57:00       28.735      234.606      -17.053       97.163      127.197       62.496     9440.663    16179.136     3905.750        4.284        1.476      236.359       64.404        0.074      346.951       25.565      865.434
05/10/2013  18:58:00       40.202      240.778      -29.675       69.757      128.435       52.660     4866.076    16495.465     2773.075        4.230        1.207      244.111       65.494        0.072      346.977       25.610      865.438
05/10/2013  18:59:00       94.209      239.638      -17.005       94.537      134.024       77.916     8937.292    17962.351     6070.974        4.978        1.649      257.491       81.797        0.101      346.928       25.525      865.442
05/10/2013  19:00:00       51.002      201.403       -7.185      152.573      111.136       83.191    23278.520    12351.190     6920.660        4.288        2.128      207.761       69.363        0.111      346.933       25.533      865.439
05/10/2013  19:01:00       44.055      199.428       -5.426       71.569      109.087       59.358     5122.096    11899.989     3523.431        3.114        1.027      204.236       62.043        0.092      346.908       25.490      865.452
05/10/2013  19:02:00       52.128       93.607       13.053       96.689       86.573       56.291     9348.690     7494.929     3168.633        1.583        1.001      107.143       52.385        0.239      346.900       25.480      865.445
05/10/2013  19:03:00       58.762      156.255        2.183       61.285       78.385       59.152     3755.863     6144.147     3499.003        2.063        0.670      166.939       51.139        0.094      346.906       25.490      865.439
05/10/2013  19:04:00       64.967      138.693      -10.561       56.531       75.822       49.212     3195.746     5749.022     2421.838        1.747        0.568      153.155       45.425        0.088      346.934       25.536      865.441
05/10/2013  19:05:00       50.672      221.793      -25.252       61.741      174.345       61.660     3811.960    30396.065     3801.894        4.520        1.900      227.508       84.767        0.139      346.926       25.524      865.454
05/10/2013  19:06:00       29.457      243.038      -31.962       60.458       93.900       48.568     3655.129     8817.256     2358.828        3.789        0.742      244.817       46.067        0.035      346.911       25.496      865.467
05/10/2013  19:07:00      -15.889      274.689      -33.949       77.435      138.193       59.186     5996.126    19097.270     3502.937        5.272        1.430      275.148       71.110        0.067      346.904       25.482      865.476
05/10/2013  19:08:00      -87.478      353.159      -39.924       84.523       79.714       49.635     7144.210     6354.301     2463.611        7.496        0.798      363.832       39.980        0.012      346.897       25.472      865.488
05/10/2013  19:09:00      -26.282      409.523      -55.967       82.842      114.150       51.659     6862.714    13030.301     2668.672        9.704        1.128      410.366       52.587        0.016      346.899       25.474      865.501
05/10/2013  19:10:00       -5.790      363.178      -43.463       85.223      102.368       58.539     7263.025    10479.244     3426.867        7.749        1.058      363.224       63.761        0.031      346.874       25.431      865.506
05/10/2013  19:11:00       38.263      191.556      -11.468       73.505      140.624       62.582     5402.962    19775.136     3916.445        3.369        1.455      195.340       75.282        0.149      346.867       25.422      865.505
05/10/2013  19:12:00        8.884      119.566      -10.828       57.993       66.482       45.139     3363.148     4419.872     2037.491        1.215        0.491      119.896       33.349        0.077      346.870       25.426      865.511
05/10/2013  19:13:00       75.944      176.112       -7.924       69.908      106.354       60.963     4887.075    11311.264     3716.457        2.838        0.996      191.789       59.921        0.098      346.844       25.382      865.507
05/10/2013  19:14:00       17.593      209.729      -40.834       68.862       78.971       36.570     4741.921     6236.417     1337.371        2.914        0.616      210.465       31.387        0.022      346.822       25.342      865.527
05/10/2013  19:15:00        9.177      310.275      -21.814       70.786       98.543       58.530     5010.624     9710.692     3425.714        5.749        0.907      310.411       56.627        0.033      346.803       25.310      865.516
05/10/2013  19:16:00       34.666      144.816       -3.189       49.610       76.811       49.608     2461.170     5899.897     2460.972        1.650        0.541      148.907       46.437        0.097      346.769       25.254      865.522
05/10/2013  19:17:00       99.707       89.527        7.177      117.617       98.707       55.829    13833.728     9743.132     3116.855        2.235        1.335      134.002       30.637        0.052      346.785       25.282      865.537
05/10/2013  19:18:00       88.523      101.832        5.233       92.882       71.892       51.980     8627.116     5168.518     2701.950        1.736        0.825      134.929       38.782        0.083      346.782       25.275      865.556
05/10/2013  19:19:00      146.131      153.452        3.407      111.532       89.541       64.527    12439.430     8017.597     4163.686        3.476        1.231      211.901       54.789        0.067      346.757       25.231      865.561
05/10/2013  19:20:00      110.409      135.817       16.711      104.320      102.854       70.306    10882.734    10578.916     4942.928        2.866        1.320      175.032       59.401        0.115      346.730       25.186      865.564
05/10/2013  19:21:00       57.326      192.933       -9.807       92.803      132.823       78.419     8612.345    17642.054     6149.494        3.650        1.620      201.270       84.625        0.177      346.726       25.178      865.582
05/10/2013  19:22:00       52.271      174.762      -14.385       88.535      118.474       76.111     7838.528    14036.017     5792.894        3.057        1.383      182.411       74.923        0.169      346.703       25.137      865.579
05/10/2013  19:23:00       57.294      158.009       -5.159       59.037      100.871       57.423     3485.335    10174.980     3297.369        2.261        0.848      168.076       60.628        0.130      346.684       25.106      865.577
05/10/2013  19:24:00       60.515      169.967      -16.710       56.617       82.894       54.579     3205.464     6871.409     2978.886        2.294        0.653      180.419       54.028        0.090      346.696       25.126      865.591
05/10/2013  19:25:00       38.753      161.939       -8.135       47.039       80.582       43.138     2212.681     6493.488     1860.875        1.918        0.528      166.512       42.358        0.065      346.671       25.082      865.594
05/10/2013  19:26:00       71.492      167.792        0.564       79.792      135.140       73.292     6366.792    18262.846     5371.691        3.163        1.500      182.388       77.040        0.178      346.670       25.083      865.591
05/10/2013  19:27:00       60.564      177.866      -25.844       78.815      145.713       63.035     6211.816    21232.380     3973.423        3.369        1.571      187.894       70.205        0.140      346.663       25.069      865.600
05/10/2013  19:28:00       42.778      315.975      -56.756       66.109       90.651       40.737     4370.440     8217.543     1659.476        5.957        0.712      318.857       43.784        0.019      346.657       25.057      865.611
05/10/2013  19:29:00       43.286      234.975      -19.208       75.279      153.983       73.987     5666.956    23710.721     5474.068        4.615        1.743      238.929       91.728        0.147      346.618       24.992      865.618
05/10/2013  19:30:00       70.822      134.488        0.212       87.491       92.166       54.056     7654.703     8494.640     2922.010        2.108        0.954      151.996       54.826        0.130      346.599       24.960      865.633
05/10/2013  19:31:00       76.701      107.982        7.648       83.152       65.058       42.080     6914.276     4232.599     1770.714        1.526        0.646      132.450       32.672        0.061      346.577       24.923      865.654
05/10/2013  19:32:00       32.873      230.566      -29.502       55.897      103.080       48.172     3124.490    10625.395     2320.526        3.559        0.804      232.897       54.302        0.054      346.548       24.873      865.667
05/10/2013  19:33:00       51.682      240.713      -33.624       64.563      100.914       50.542     4168.406    10183.550     2554.510        3.932        0.845      246.198       60.809        0.061      346.542       24.859      865.671
05/10/2013  19:34:00       14.564      113.457       -2.659       51.491       66.979       40.832     2651.323     4486.202     1667.259        1.095        0.440      114.388       41.945        0.134      346.478       24.753      865.687
05/10/2013  19:35:00       39.436       85.308       -3.176       54.042       52.925       35.661     2920.511     2801.032     1271.716        0.792        0.350       93.982       30.257        0.104      346.447       24.701      865.701
05/10/2013  19:36:00       49.031      226.620      -25.824       67.220      106.706       55.647     4518.515    11386.105     3096.630        3.671        0.950      231.864       57.321        0.061      346.468       24.733      865.704
05/10/2013  19:37:00       23.767      216.058      -26.702       54.228      102.941       51.247     2940.714    10596.937     2626.220        3.206        0.808      217.361       56.708        0.068      346.442       24.688      865.717
05/10/2013  19:38:00       33.565      178.903      -17.213       50.653       79.748       36.243     2565.707     6359.758     1313.576        2.183        0.512      182.025       34.281        0.035      346.403       24.624      865.740
05/10/2013  19:39:00       41.828      120.079       -3.116       50.930      120.614       47.090     2593.901    14547.733     2217.476        1.777        0.968      127.155       63.246        0.247      346.369       24.566      865.748
05/10/2013  19:40:00       41.774      230.763      -18.746       64.821       99.058       54.814     4201.718     9812.528     3004.534        3.618        0.851      234.514       60.745        0.067      346.379       24.581      865.756
05/10/2013  19:41:00       42.107      236.250      -20.834       80.541       99.001       54.361     6486.867     9801.186     2955.154        3.863        0.962      239.973       53.416        0.050      346.401       24.620      865.770
05/10/2013  19:42:00       23.392      132.052      -11.758       70.239       79.713       41.306     4933.539     6354.129     1706.156        1.556        0.650      134.108       44.588        0.111      346.357       24.545      865.789
05/10/2013  19:43:00       23.995       81.885        0.114       59.398       85.960       49.555     3528.075     7389.158     2455.729        1.032        0.669       85.329       49.203        0.333      346.325       24.491      865.800
05/10/2013  19:44:00       46.240      189.640      -25.518       59.776       83.258       45.536     3573.178     6931.903     2073.483        2.566        0.629      195.196       48.046        0.061      346.332       24.500      865.814
05/10/2013  19:45:00       21.771      228.229      -11.257       73.640      119.105       59.711     5422.819    14185.991     3565.431        3.793        1.159      229.265       66.934        0.085      346.346       24.524      865.830
05/10/2013  19:46:00       15.562      145.251      -11.357       56.926       74.863       45.689     3240.618     5604.421     2087.493        1.620        0.547      146.082       46.611        0.102      346.298       24.444      865.840
05/10/2013  19:47:00       27.810      162.507      -24.898       41.700       65.559       33.557     1738.915     4298.015     1126.065        1.748        0.358      164.869       35.873        0.047      346.307       24.458      865.858
05/10/2013  19:48:00        6.813      187.832      -21.807       55.577       60.603       37.849     3088.820     3672.756     1432.526        2.200        0.410      187.956       32.398        0.030      346.270       24.395      865.869
05/10/2013  19:49:00       43.077      163.846      -23.298       51.113       60.992       37.189     2612.556     3720.046     1383.014        1.848        0.386      169.414       34.915        0.042      346.269       24.392      865.868
05/10/2013  19:50:00       45.009      194.214      -18.546       70.421      104.311       62.636     4959.182    10880.827     3923.275        2.992        0.988      199.361       61.345        0.095      346.272       24.398      865.881
05/10/2013  19:51:00       43.522      184.448      -17.921       61.847       80.652       55.980     3825.111     6504.783     3133.796        2.485        0.673      189.513       53.518        0.080      346.243       24.348      865.880
05/10/2013  19:52:00       41.091      194.294       -6.132       68.381       85.574       58.624     4676.001     7322.952     3436.798        2.745        0.772      198.592       52.530        0.070      346.267       24.388      865.898
05/10/2013  19:53:00       21.369      156.867       -8.877       54.042      124.214       58.349     2920.507    15429.059     3404.609        2.344        1.088      158.316       71.721        0.205      346.239       24.342      865.911
05/10/2013  19:54:00       24.624      113.382       -7.851       53.434       86.970       49.467     2855.198     7563.717     2446.980        1.319        0.643      116.025       50.610        0.190      346.186       24.251      865.910
05/10/2013  19:55:00       50.318      121.156       -4.704       71.910       67.507       48.665     5171.023     4557.170     2368.292        1.466        0.605      131.189       43.443        0.110      346.188       24.255      865.935
05/10/2013  19:56:00       35.167      219.387      -27.346       61.141      121.194       50.894     3738.191    14688.012     2590.202        3.556        1.051      222.188       65.021        0.086      346.222       24.311      865.943
05/10/2013  19:57:00       29.858      187.011      -20.011       51.575      118.909       47.041     2659.970    14139.302     2212.891        2.764        0.951      189.380       61.806        0.107      346.201       24.274      865.963
05/10/2013  19:58:00       16.027      209.792      -28.547       46.538       69.605       30.063     2165.745     4844.917      903.796        2.650        0.396      210.403       26.640        0.016      346.205       24.281      865.966
05/10/2013  19:59:00       53.503      219.196      -35.636       56.570       76.488       47.892     3200.115     5850.379     2293.682        3.176        0.567      225.631       47.575        0.044      346.196       24.264      865.983
05/10/2013  20:00:00       18.082      229.912      -24.627       48.964       83.031       40.632     2397.489     6894.223     1650.945        3.237        0.547      230.622       31.814        0.019      346.207       24.284      865.997
05/10/2013  20:01:00        9.596      140.435        0.880       57.073      105.603       49.472     3257.308    11151.902     2447.506        1.833        0.843      140.763       57.851        0.169      346.101       24.104      866.009
05/10/2013  20:02:00       25.070      165.625       -8.996       60.712      106.609       51.950     3685.933    11365.396     2698.828        2.294        0.888      167.511       60.685        0.131      346.120       24.137      866.021
05/10/2013  20:03:00       22.599      114.143       -8.584       45.979       78.150       43.331     2114.087     6107.359     1877.615        1.185        0.505      116.359       45.926        0.156      346.124       24.144      866.018
05/10/2013  20:04:00       13.481      198.517       -9.424       46.138      101.310       43.428     2128.683    10263.667     1885.959        2.698        0.714      198.974       45.111        0.051      346.131       24.154      866.032
05/10/2013  20:05:00       30.471      161.590      -21.503       37.279       46.425       35.671     1389.699     2155.310     1272.448        1.616        0.241      164.438       29.346        0.032      346.106       24.114      866.033
05/10/2013  20:06:00       21.328       80.923        0.526       28.600       64.533       30.424      817.972     4164.500      925.597        0.645        0.295       83.686       33.787        0.163      346.023       23.972      866.045
05/10/2013  20:07:00       17.669      208.932      -31.427       44.130       50.394       28.393     1947.442     2539.544      806.142        2.512        0.265      209.678       25.045        0.014      346.166       24.215      866.054
05/10/2013  20:08:00        7.293      136.674       -9.691       33.424       58.012       33.568     1117.154     3365.352     1126.793        1.222        0.280      136.869       35.122        0.066      346.079       24.069      866.065
05/10/2013  20:09:00       20.578      153.998      -21.014       35.830       55.637       29.613     1283.823     3095.516      876.919        1.492        0.263      155.367       31.629        0.041      346.125       24.147      866.082
05/10/2013  20:10:00      -16.459      136.225      -16.294       33.140       42.522       28.167     1098.240     1808.134      793.381        1.140        0.185      137.216       23.167        0.029      346.116       24.132      866.090
05/10/2013  20:11:00        9.922      176.346      -16.281       40.365       57.995       29.730     1629.309     3363.395      883.885        1.867        0.294      176.625       31.188        0.031      346.125       24.145      866.108
05/10/2013  20:12:00       -6.977      215.538      -35.170       42.595       32.271       24.785     1814.349     1041.446      614.318        2.561        0.174      215.651       19.860        0.008      346.163       24.210      866.115
05/10/2013  20:13:00        0.999      157.643      -10.046       53.741       64.883       37.437     2888.100     4209.855     1401.556        1.672        0.425      157.646       33.682        0.046      346.066       24.045      866.131
05/10/2013  20:14:00       10.533      160.408      -17.220       38.694       76.035       37.223     1497.251     5781.281     1385.563        1.740        0.433      160.753       42.562        0.070      346.065       24.042      866.131
05/10/2013  20:15:00        9.484      219.336      -27.707       36.450       47.353       27.574     1328.597     2242.280      760.316        2.665        0.217      219.541       27.174        0.015      346.142       24.172      866.131
05/10/2013  20:16:00       26.264      144.266      -16.528       36.077       55.443       30.880     1301.516     3073.959      953.552        1.355        0.266      146.638       30.519        0.043      346.022       23.970      866.129
05/10/2013  20:17:00       14.550      166.640       -9.031       36.984       71.886       43.407     1367.836     5167.544     1884.163        1.824        0.421      167.274       47.029        0.079      345.995       23.923      866.134
05/10/2013  20:18:00       16.770      182.031      -23.240       45.082       70.200       33.441     2032.371     4928.061     1118.288        2.102        0.404      182.802       34.992        0.037      346.050       24.017      866.137
05/10/2013  20:19:00       26.935      104.121       -5.705       54.034       60.108       41.092     2919.690     3612.958     1688.554        0.991        0.411      107.548       32.558        0.092      345.996       23.925      866.143
05/10/2013  20:20:00       26.657      120.996       -9.976       44.098       45.458       43.307     1944.653     2066.437     1875.511        1.067        0.294      123.898       34.732        0.079      345.980       23.896      866.141
05/10/2013  20:21:00       20.570      119.109        1.711       38.057       78.577       36.823     1448.352     6174.349     1355.926        1.179        0.449      120.872       42.331        0.123      345.990       23.915      866.147
05/10/2013  20:22:00        1.701      168.955       -9.528       41.750       55.446       30.669     1743.079     3074.308      940.586        1.720        0.288      168.964       23.796        0.020      345.941       23.831      866.144
05/10/2013  20:23:00       24.518      147.844      -14.086       38.214       40.159       30.342     1460.307     1612.738      920.622        1.332        0.200      149.863       21.502        0.021      345.916       23.789      866.164
05/10/2013  20:24:00       14.528       95.086        4.481       37.790       49.853       31.746     1428.114     2485.329     1007.783        0.710        0.246       96.189       29.205        0.092      345.874       23.716      866.152
05/10/2013  20:25:00       22.593      172.671      -19.396       49.808       91.602       36.942     2480.861     8390.987     1364.696        2.147        0.612      174.143       42.620        0.060      345.930       23.811      866.166
05/10/2013  20:26:00       16.205      186.582      -21.814       45.284       67.515       38.689     2050.671     4558.229     1496.857        2.183        0.405      187.284       39.909        0.045      345.992       23.916      866.167
05/10/2013  20:27:00       15.768      100.484        0.908       45.822       76.967       39.131     2099.651     5923.996     1531.241        0.995        0.478      101.713       39.837        0.153      345.879       23.725      866.176
05/10/2013  20:28:00       16.396      143.883      -13.922       47.536       82.222       43.718     2259.640     6760.506     1911.263        1.605        0.547      144.814       48.111        0.110      345.945       23.835      866.181
05/10/2013  20:29:00       27.502      228.269      -24.542       54.980       84.904       46.652     3022.794     7208.711     2176.439        3.293        0.620      229.919       50.159        0.048      345.962       23.865      866.195
05/10/2013  20:30:00       13.446      187.082      -16.831       51.159       70.004       34.349     2617.234     4900.585     1179.821        2.208        0.435      187.565       32.371        0.030      345.938       23.824      866.196
05/10/2013  20:31:00       35.057      185.991      -13.483       61.165       67.488       41.435     3741.136     4554.627     1716.847        2.301        0.501      189.266       40.471        0.046      345.948       23.844      866.205
05/10/2013  20:32:00       29.550      192.032      -15.462       60.142       62.492       42.014     3617.112     3905.241     1765.152        2.364        0.464      194.292       39.803        0.042      345.934       23.817      866.218
05/10/2013  20:33:00       18.440      144.321      -11.849       35.787       55.046       35.567     1280.711     3030.031     1265.005        1.344        0.279      145.494       34.721        0.057      345.906       23.770      866.226
05/10/2013  20:34:00       21.236      211.881      -23.532       41.639       57.070       36.718     1733.846     3256.948     1348.216        2.612        0.317      212.943       31.690        0.022      345.955       23.853      866.245
05/10/2013  20:35:00       19.673      190.183      -23.871       35.465       49.018       30.252     1257.765     2402.753      915.191        2.085        0.229      191.198       26.855        0.020      345.973       23.885      866.254
05/10/2013  20:36:00        7.087      180.192      -19.405       35.204       42.530       26.254     1239.293     1808.819      689.257        1.832        0.187      180.332       26.557        0.022      345.975       23.889      866.265
05/10/2013  20:37:00        0.186      191.576      -18.342       50.271       55.529       32.510     2527.162     3083.416     1056.898        2.185        0.333      191.576       23.755        0.015      346.017       23.959      866.271
05/10/2013  20:38:00       23.880      155.629      -17.718       36.490       57.006       34.376     1331.519     3249.708     1181.704        1.543        0.288      157.451       30.297        0.037      345.973       23.887      866.279
05/10/2013  20:39:00        8.604      146.360      -14.994       39.232       45.538       25.530     1539.176     2073.738      651.767        1.299        0.213      146.613       24.402        0.028      345.983       23.903      866.287
05/10/2013  20:40:00        9.735      133.467      -14.612       23.395       32.505       18.290      547.310     1056.560      334.526        1.003        0.097      133.822       17.449        0.017      345.951       23.849      866.293
05/10/2013  20:41:00        0.551      133.284      -15.922       25.430       22.639       15.108      646.679      512.541      228.250        0.970        0.069      133.285       12.741        0.009      345.948       23.843      866.307
05/10/2013  20:42:00      -28.200      129.236      -18.505       39.684       34.750       19.953     1574.796     1207.541      398.109        1.051        0.159      132.277       17.372        0.017      345.930       23.813      866.315
05/10/2013  20:43:00      -75.559       69.875      -21.068       33.355       34.820       20.217     1112.580     1212.410      408.730        0.688        0.137      102.916       12.080        0.014      345.897       23.756      866.330
05/10/2013  20:44:00      -79.318       12.149       -8.441       28.788       20.219       20.470      828.768      408.798      419.011        0.408        0.083       80.243       17.042        0.045      345.673       23.371      866.338
05/10/2013  20:45:00      -63.281       -8.047       -2.893       32.238       32.630       18.568     1039.263     1064.692      344.755        0.326        0.122       63.790       16.565        0.067      345.356       22.827      866.361
05/10/2013  20:46:00     -150.961        5.320      -18.198       58.591       39.599       21.694     3432.853     1568.078      470.620        1.431        0.274      151.055       24.359        0.026      345.284       22.702      866.378
05/10/2013  20:47:00     -169.779       56.114      -29.260       45.711       34.015       24.729     2089.469     1156.990      611.506        1.834        0.193      178.812       21.481        0.014      345.276       22.689      866.393
05/10/2013  20:48:00     -112.785       46.282      -18.487       34.700       54.990       26.206     1204.059     3023.946      686.760        1.006        0.246      121.912       23.494        0.037      345.289       22.711      866.412
05/10/2013  20:49:00     -101.268       44.346      -16.506       40.638       42.163       27.971     1651.440     1777.744      782.396        0.835        0.211      110.552       23.745        0.046      345.264       22.670      866.427
05/10/2013  20:50:00     -125.684       40.171       -8.146       40.238       28.134       22.112     1619.084      791.549      488.960        1.019        0.145      131.948       19.544        0.022      345.314       22.755      866.449
05/10/2013  20:51:00     -122.894       29.015      -20.453       21.106       31.097       21.443      445.457      967.054      459.794        0.912        0.094      126.272       15.198        0.014      345.264       22.671      866.461
05/10/2013  20:52:00     -123.964       40.945      -21.898       29.808       43.732       22.267      888.489     1912.481      495.803        1.041        0.165      130.551       11.181        0.007      345.240       22.628      866.483
05/10/2013  20:53:00     -118.268      -14.596      -12.662       32.020       58.537       23.929     1025.312     3426.592      572.578        0.969        0.251      119.165       15.265        0.016      345.172       22.513      866.490
05/10/2013  20:54:00     -121.740      -36.608      -21.323       34.241       43.975       23.941     1172.448     1933.836      573.171        1.015        0.184      127.125       11.523        0.008      345.067       22.334      866.503
05/10/2013  20:55:00     -143.181       57.315      -16.903       42.722       58.694       32.477     1825.195     3445.023     1054.758        1.520        0.316      154.227       22.981        0.022      345.025       22.261      866.520
05/10/2013  20:56:00     -159.206       41.990      -21.295       57.866       65.788       27.713     3348.478     4328.100      768.004        1.800        0.422      164.650       19.989        0.015      345.006       22.227      866.538
05/10/2013  20:57:00     -101.732        6.589      -10.329       48.684       59.240       40.371     2370.152     3509.333     1629.850        0.900        0.375      101.945       28.817        0.080      344.974       22.174      866.571
05/10/2013  20:58:00     -107.357      -21.617      -15.114       43.634       32.174       24.539     1903.962     1035.191      602.158        0.788        0.177      109.512       16.329        0.022      344.914       22.072      866.583
05/10/2013  20:59:00     -141.720       26.505      -24.092       54.169       60.276       37.731     2934.299     3633.232     1423.664        1.468        0.400      144.177       30.084        0.044      344.933       22.103      866.608
05/10/2013  21:00:00     -115.452       24.511      -11.696       46.393       59.421       26.181     2152.283     3530.801      685.449        1.022        0.318      118.025       19.501        0.027      344.894       22.037      866.618
05/10/2013  21:01:00      -94.881       71.303      -12.144       46.655       80.386       43.070     2176.710     6461.853     1855.012        1.236        0.525      118.687       40.995        0.119      344.911       22.066      866.645
05/10/2013  21:02:00      -46.753       30.434        4.274       32.697       52.692       25.434     1069.112     2776.488      646.892        0.381        0.225       55.786       26.317        0.223      344.893       22.036      866.645
05/10/2013  21:03:00      -78.105       18.578        1.440       49.161       33.094       23.051     2416.815     1095.193      531.353        0.524        0.202       80.284       27.389        0.116      344.889       22.028      866.666
05/10/2013  21:04:00      -26.462       55.050       16.454       27.926       44.466       25.232      779.887     1977.209      636.671        0.370        0.170       61.080       27.673        0.205      344.782       21.845      866.678
05/10/2013  21:05:00      -48.961       82.918      -10.422       28.882       26.491       21.282      834.189      701.760      452.940        0.568        0.099       96.294       17.647        0.034      344.806       21.885      866.689
05/10/2013  21:06:00      -36.625       60.258       -3.071       31.105       53.219       24.894      967.540     2832.267      619.718        0.470        0.221       70.515       14.807        0.044      344.819       21.907      866.703
05/10/2013  21:07:00      -34.419      102.303       -0.800       25.757       46.733       27.795      663.415     2183.942      772.572        0.763        0.181      107.938       18.892        0.031      344.876       22.006      866.705
05/10/2013  21:08:00      -45.079        9.023       -0.691       27.865       36.391       16.088      776.471     1324.292      258.813        0.224        0.118       45.974       18.022        0.154      344.832       21.932      866.730
05/10/2013  21:09:00      -45.807       38.364      -17.169       55.747       54.975       23.451     3107.675     3022.237      549.967        0.527        0.334       59.750       34.258        0.329      344.878       22.010      866.742
05/10/2013  21:10:00      -99.094       20.578      -21.152       29.259       48.354       19.284      856.084     2338.142      371.886        0.713        0.178      101.208       21.717        0.046      345.013       22.240      866.759
05/10/2013  21:11:00      -86.928       52.717      -12.695       39.542       42.192       20.045     1563.558     1780.178      401.813        0.712        0.187      101.664       14.372        0.020      345.076       22.349      866.754
05/10/2013  21:12:00      -86.189       -8.409      -13.459       15.149       33.118       11.097      229.484     1096.790      123.135        0.456        0.072       86.598        6.573        0.006      344.892       22.034      866.759
05/10/2013  21:13:00      -69.097      -36.281       -4.158       36.857       37.193       15.963     1358.456     1383.308      254.811        0.455        0.150       78.043        8.797        0.013      344.819       21.909      866.772
05/10/2013  21:14:00      -57.843        2.552       -7.136       12.716       15.557       12.475      161.696      242.026      155.635        0.198        0.028       57.899        8.631        0.022      344.807       21.888      866.803
05/10/2013  21:15:00      -68.675       21.074      -13.073       32.518       34.723       18.675     1057.392     1205.693      348.767        0.397        0.131       71.836       12.912        0.032      345.025       22.261      866.816
05/10/2013  21:16:00      -60.793       -4.410       -9.295       32.892       41.035       17.766     1081.887     1683.882      315.614        0.344        0.154       60.953       19.817        0.106      345.041       22.290      866.822
05/10/2013  21:17:00      -91.009      -44.953       -8.260       39.829       37.690       23.590     1586.331     1420.540      556.493        0.697        0.178      101.506       18.214        0.032      345.050       22.302      866.833
05/10/2013  21:18:00      -47.906       42.743       -5.597       24.234       25.261       15.471      587.293      638.132      239.357        0.281        0.073       64.203       10.233        0.025      344.981       22.185      866.857
05/10/2013  21:19:00     -100.139       11.296      -14.448       45.480       31.075       22.387     2068.457      965.664      501.168        0.695        0.177      100.774       24.379        0.059      345.077       22.349      866.889
05/10/2013  21:20:00      -55.865        7.472       -4.731       27.357       29.635       16.401      748.384      878.250      268.988        0.255        0.095       56.363       13.257        0.055      345.060       22.321      866.898
05/10/2013  21:21:00      -49.366      -35.233        3.140       32.595       16.693       11.198     1062.427      278.663      125.405        0.258        0.073       60.649       10.291        0.029      344.904       22.054      866.923
05/10/2013  21:22:00      -46.982      -27.155        4.852       40.118       27.861       17.153     1609.416      776.248      294.218        0.282        0.134       54.265       19.129        0.124      344.842       21.950      866.955
05/10/2013  21:23:00      -48.578      -33.000       -2.084       43.713       25.438       18.366     1910.834      647.095      337.305        0.317        0.145       58.726       16.302        0.077      344.805       21.883      866.977
05/10/2013  21:24:00      -79.029      -47.514       -1.670       54.887       30.231       20.583     3012.634      913.925      423.652        0.643        0.218       92.212       21.979        0.057      344.761       21.810      866.994
05/10/2013  21:25:00      -78.085      -81.701       -0.364       61.306       38.367       24.464     3758.395     1472.006      598.502        0.930        0.291      113.014       26.881        0.057      344.641       21.604      867.021
05/10/2013  21:26:00     -162.080     -103.174       -1.046       45.727       51.062       32.428     2090.997     2607.335     1051.580        2.133        0.287      192.132       29.207        0.023      344.592       21.517      867.038
05/10/2013  21:27:00     -141.537      -87.774       -0.391       51.621       44.341       29.573     2664.744     1966.084      874.538        1.662        0.275      166.544       26.561        0.025      344.632       21.589      867.066
05/10/2013  21:28:00      -83.064      -50.904       -3.729       31.407       30.974       20.846      986.421      959.383      434.541        0.594        0.119       97.421       15.892        0.027      344.735       21.765      867.091
05/10/2013  21:29:00      -69.850      -64.850        5.521       78.350       52.735       27.912     6138.670     2780.949      779.062        0.941        0.485       95.313       34.777        0.133      344.658       21.632      867.095
05/10/2013  21:30:00      -76.872      -85.423        3.994       91.180       72.519       47.734     8313.814     5259.069     2278.574        1.453        0.793      114.919       52.580        0.209      344.733       21.759      867.110
05/10/2013  21:31:00     -148.716     -127.318       -0.195       74.003       56.894       45.880     5476.451     3236.947     2104.969        2.457        0.541      195.771       41.784        0.046      344.789       21.855      867.109
05/10/2013  21:32:00     -154.636      -78.523       -3.630       53.299       50.753       33.829     2840.818     2575.867     1144.393        1.833        0.328      173.431       25.337        0.021      344.757       21.800      867.115
05/10/2013  21:33:00     -155.599      -73.618       -3.042       60.484       41.246       30.893     3658.271     1701.245      954.406        1.798        0.316      172.136       31.806        0.034      344.705       21.712      867.125
05/10/2013  21:34:00     -108.891      -51.588        4.232       51.467       46.605       27.682     2648.855     2171.992      766.279        1.006        0.279      120.493       26.539        0.049      344.627       21.581      867.123
05/10/2013  21:35:00     -160.512      -89.443       -8.311       70.800       42.460       29.764     5012.630     1802.811      885.901        2.077        0.385      183.751       34.804        0.036      344.795       21.865      867.124
05/10/2013  21:36:00     -129.752      -52.422        3.892       68.676       47.877       29.735     4716.373     2292.218      884.199        1.374        0.395      139.942       34.099        0.059      344.674       21.659      867.109
05/10/2013  21:37:00     -135.391     -132.485      -10.014       78.691       48.879       34.021     6192.270     2389.118     1157.460        2.286        0.487      189.428       32.751        0.030      344.699       21.699      867.119
05/10/2013  21:38:00     -103.462      -77.627       10.247       76.341       64.440       41.456     5827.992     4152.494     1718.584        1.427        0.585      129.346       41.417        0.103      344.623       21.572      867.129
05/10/2013  21:39:00     -106.733      -82.039        1.240       60.967       42.812       24.052     3716.964     1832.864      578.506        1.212        0.306      134.619       23.811        0.031      344.651       21.620      867.137
05/10/2013  21:40:00     -129.130      -88.546       -1.519       87.679       51.793       33.371     7687.610     2682.562     1113.596        1.800        0.574      156.573       39.464        0.064      344.589       21.512      867.129
05/10/2013  21:41:00     -117.537      -27.450        7.313       76.566       43.812       26.769     5862.284     1919.470      716.599        1.156        0.425      120.699       27.959        0.054      344.544       21.437      867.138
05/10/2013  21:42:00     -172.990      -35.175       -9.511       53.445       46.021       29.532     2856.410     2117.962      872.144        1.855        0.292      176.530       28.015        0.025      344.589       21.514      867.156
05/10/2013  21:43:00      -83.164      -57.329        2.635       72.061       35.695       31.140     5192.844     1274.108      969.731        0.882        0.372      101.010       36.819        0.133      344.542       21.434      867.147
05/10/2013  21:44:00      -86.188      -74.805        8.639       76.161       70.082       34.634     5800.459     4911.521     1199.540        1.250        0.596      114.123       40.231        0.124      344.573       21.487      867.154
05/10/2013  21:45:00     -143.053      -61.683       -8.227       61.881       43.392       29.862     3829.214     1882.902      891.731        1.547        0.330      155.785       32.630        0.044      344.526       21.408      867.182
05/10/2013  21:46:00     -101.661      -42.222       -0.424       54.721       47.257       25.611     2994.362     2233.223      655.923        0.900        0.294      110.080       18.611        0.029      344.523       21.403      867.184
05/10/2013  21:47:00     -127.842       -2.747       -2.375       63.471       39.823       32.657     4028.563     1585.868     1066.490        1.152        0.334      127.872       35.502        0.077      344.504       21.369      867.197
05/10/2013  21:48:00     -127.962       -2.118       -2.315       46.095       28.498       14.922     2124.710      812.134      222.672        0.977        0.158      127.980       14.508        0.013      344.447       21.272      867.218
05/10/2013  21:49:00      -56.212       53.204       -2.954       26.360       42.603       21.895      694.845     1815.014      479.400        0.449        0.149       77.398       20.543        0.070      344.357       21.117      867.217
05/10/2013  21:50:00      -89.629       45.981      -19.523       24.125       39.093       13.650      582.017     1528.234      186.311        0.641        0.115      100.735       10.427        0.011      344.564       21.472      867.219
05/10/2013  21:51:00     -114.020      -12.486      -14.636       31.752       42.517       19.655     1008.167     1807.669      386.328        0.829        0.160      114.702       14.927        0.017      344.545       21.441      867.228
05/10/2013  21:52:00     -117.832      -28.062       -0.531       64.314       45.680       24.639     4136.337     2086.679      607.093        1.075        0.342      121.128       33.036        0.074      344.602       21.538      867.217
05/10/2013  21:53:00     -121.511      -54.442        5.176       30.959       27.989       17.751      958.460      783.369      315.096        0.991        0.103      133.150       13.727        0.011      344.556       21.457      867.224
05/10/2013  21:54:00      -41.422      -42.976       11.380       41.399       32.803       22.593     1713.917     1076.057      510.431        0.350        0.165       59.689       21.087        0.125      344.446       21.270      867.223
05/10/2013  21:55:00     -108.658      -54.773        1.421       38.010       40.743       21.612     1444.776     1659.966      467.097        0.919        0.179      121.682       19.661        0.026      344.434       21.249      867.250
05/10/2013  21:56:00     -106.124      -55.428        8.265       51.359       51.195       25.987     2637.781     2620.946      675.308        1.017        0.297      119.727       24.697        0.043      344.426       21.236      867.252
05/10/2013  21:57:00     -102.035     -106.182       13.557       82.339       69.260       44.770     6779.687     4796.979     2004.356        1.772        0.679      147.261       41.986        0.081      344.606       21.542      867.240
05/10/2013  21:58:00     -132.423      -63.497        3.487       56.269       52.252       30.346     3166.239     2730.243      920.898        1.420        0.341      146.860       24.531        0.028      344.636       21.596      867.249
05/10/2013  21:59:00     -118.776      -71.693        1.289       57.096       44.234       32.796     3259.931     1956.626     1075.585        1.277        0.315      138.735       31.122        0.050      344.516       21.392      867.268
05/10/2013  22:00:00     -134.866      -54.083       -0.458       69.238       36.991       29.985     4793.943     1368.361      899.075        1.409        0.353      145.306       35.037        0.058      344.537       21.427      867.277
05/10/2013  22:01:00      -88.089      -70.264        1.779       66.799       44.506       28.690     4462.168     1980.773      823.101        0.998        0.363      112.680       31.431        0.078      344.533       21.420      867.276
05/10/2013  22:02:00     -156.347      -99.432       -0.376       62.650       50.298       32.242     3925.033     2529.891     1039.551        2.091        0.375      185.287       29.045        0.025      344.490       21.344      867.289
05/10/2013  22:03:00      -78.254      -27.181        8.679       57.893       43.100       28.851     3351.586     1857.591      832.376        0.649        0.302       82.840       25.161        0.092      344.434       21.251      867.306
05/10/2013  22:04:00     -109.508      -59.651       -2.498       63.795       36.069       28.090     4069.778     1300.978      789.058        1.086        0.308      124.701       31.692        0.065      344.514       21.388      867.311
05/10/2013  22:05:00     -110.922      -76.465        7.448       80.617       47.903       34.787     6499.095     2294.728     1210.108        1.410        0.500      134.724       35.421        0.069      344.536       21.425      867.311
05/10/2013  22:06:00     -144.717     -126.672       -3.537       94.434       93.728       52.629     8917.863     8784.944     2769.820        2.873        1.024      192.325       55.154        0.082      344.540       21.429      867.306
05/10/2013  22:07:00     -111.424      -74.739       -7.396       78.319       73.244       38.374     6133.832     5364.748     1472.582        1.551        0.649      134.169       36.887        0.076      344.623       21.572      867.327
05/10/2013  22:08:00     -112.501      -10.310       10.321       81.301       54.649       32.039     6609.870     2986.505     1026.488        1.174        0.531      112.973       38.497        0.116      344.520       21.396      867.345
05/10/2013  22:09:00     -143.562      -70.156      -16.441       67.925       64.333       29.892     4613.743     4138.757      893.530        1.772        0.482      159.787       29.742        0.035      344.623       21.573      867.343
05/10/2013  22:10:00      -68.067      -15.620        2.423       53.025       39.087       21.463     2811.685     1527.828      460.656        0.484        0.240       69.836       27.948        0.160      344.503       21.369      867.340
05/10/2013  22:11:00     -115.731      -13.970        8.205       64.317       51.829       30.237     4136.705     2686.220      914.255        1.070        0.387      116.571       28.927        0.062      344.606       21.543      867.327
05/10/2013  22:12:00      -61.301      -34.801        3.073       36.882       34.848       21.538     1360.273     1214.386      463.901        0.401        0.152       70.490       19.523        0.077      344.467       21.306      867.349
05/10/2013  22:13:00      -50.418       -9.856        4.175       42.836       32.190       18.635     1834.903     1036.219      347.277        0.294        0.161       51.372       20.823        0.164      344.410       21.207      867.351
05/10/2013  22:14:00      -54.500      -30.075        9.608       44.783       27.580       17.583     2005.489      760.644      309.170        0.352        0.154       62.248       19.500        0.098      344.411       21.210      867.348
05/10/2013  22:15:00      -46.986      -19.230        5.892       44.025       31.982       22.386     1938.201     1022.842      501.119        0.304        0.173       50.769       21.181        0.174      344.425       21.234      867.359
05/10/2013  22:16:00      -60.632      -34.485        7.447       37.539       39.148       22.724     1409.180     1532.575      516.377        0.419        0.173       69.753       17.265        0.061      344.446       21.271      867.381
05/10/2013  22:17:00      -60.776      -21.383        6.891       49.262       39.525       24.952     2426.727     1562.250      622.596        0.440        0.231       64.428       28.777        0.200      344.444       21.266      867.385
05/10/2013  22:18:00     -132.285      -22.754        5.202       75.193       56.245       32.363     5654.038     3163.467     1047.395        1.395        0.493      134.227       32.734        0.059      344.389       21.171      867.397
05/10/2013  22:19:00      -97.128      -56.249        9.218       69.394       50.867       32.040     4815.589     2587.465     1026.563        1.055        0.421      112.240       27.251        0.059      344.411       21.210      867.402
05/10/2013  22:20:00     -162.621      -30.709       -1.066       64.975       42.782       30.661     4221.746     1830.263      940.075        1.719        0.350      165.495       34.081        0.042      344.471       21.313      867.399
05/10/2013  22:21:00      -89.469      -37.259        3.053       60.111       34.454       24.151     3613.298     1187.086      583.275        0.739        0.269       96.918       24.629        0.065      344.377       21.154      867.394
05/10/2013  22:22:00     -143.004      -45.594       -6.343       72.958       40.226       30.834     5322.824     1618.161      950.726        1.523        0.395      150.097       28.037        0.035      344.437       21.253      867.387
05/10/2013  22:23:00     -117.961      -68.535       -3.027       54.056       33.603       26.304     2922.059     1129.195      691.910        1.168        0.237      136.425       27.699        0.041      344.395       21.183      867.384
05/10/2013  22:24:00      -65.011      -50.574        9.659       78.397       38.799       33.041     6146.063     1505.372     1091.700        0.781        0.437       82.366       37.963        0.212      344.355       21.113      867.367
05/10/2013  22:25:00      -90.820      -90.206        0.770       61.710       51.993       33.226     3808.161     2703.288     1103.979        1.200        0.381      128.006       30.686        0.057      344.399       21.189      867.356
05/10/2013  22:26:00     -115.699      -52.432       -4.208       37.423       41.911       22.285     1400.488     1756.532      496.610        0.990        0.183      127.025       13.212        0.011      344.378       21.155      867.369
05/10/2013  22:27:00     -118.131      -49.707       -1.381       34.272       46.958       21.158     1174.591     2205.079      447.646        1.013        0.191      128.163       14.081        0.012      344.342       21.094      867.371
05/10/2013  22:28:00      -72.862        7.781       -2.663       24.953       26.678       16.122      622.631      711.718      259.904        0.349        0.080       73.276       12.849        0.031      344.360       21.122      867.357
05/10/2013  22:29:00      -94.583      -19.319       -4.043       23.911       22.911       15.802      571.740      524.901      249.713        0.534        0.067       96.536        8.650        0.008      344.237       20.913      867.368
05/10/2013  22:30:00      -56.896      -11.377        2.127       56.443       43.554       26.607     3185.798     1896.946      707.936        0.458        0.290       58.022       32.103        0.306      344.124       20.721      867.366
05/10/2013  22:31:00      -52.699      -50.105        4.956       66.089       35.141       23.726     4367.813     1234.908      562.935        0.574        0.308       72.717       25.784        0.126      344.209       20.866      867.348
05/10/2013  22:32:00     -154.114      -88.118      -27.473       56.704       51.008       26.141     3215.394     2601.804      683.331        1.938        0.325      177.527       16.654        0.009      344.319       21.051      867.340
05/10/2013  22:33:00     -130.844     -100.101       -9.616       55.915       51.398       28.510     3126.489     2641.759      812.799        1.691        0.329      164.743       27.549        0.028      344.314       21.044      867.347
05/10/2013  22:34:00      -60.333      -63.853       -2.243       71.392       61.848       28.614     5096.798     3825.137      818.743        0.873        0.487       87.848       17.936        0.042      344.327       21.069      867.336
05/10/2013  22:35:00      -50.451      -15.532       -4.919       45.392       39.303       23.785     2060.468     1544.748      565.720        0.349        0.209       52.788       21.649        0.168      344.275       20.978      867.341
05/10/2013  22:36:00      -70.826      -34.850        6.784       86.627       51.863       36.638     7504.222     2689.790     1342.353        0.890        0.577       78.936       47.489        0.362      344.293       21.010      867.353
05/10/2013  22:37:00     -209.520      -70.667       -3.447       95.618       68.035       41.280     9142.894     4628.742     1704.011        3.219        0.774      221.116       34.900        0.025      344.281       20.987      867.360
05/10/2013  22:38:00     -156.090      -72.163        2.348      137.286       94.646       48.565    18847.353     8957.821     2358.566        2.987        1.508      171.964       65.744        0.146      344.253       20.938      867.354
05/10/2013  22:39:00     -193.658      -30.217        2.852       99.284       70.741       51.371     9857.239     5004.330     2639.028        2.796        0.875      196.001       51.311        0.069      344.358       21.116      867.366
05/10/2013  22:40:00     -230.732     -100.556       -4.368      107.534       87.449       45.701    11563.573     7647.271     2088.614        4.233        1.065      251.692       51.640        0.042      344.355       21.111      867.378
05/10/2013  22:41:00     -116.962     -113.988       -2.314       72.725       57.125       38.829     5288.994     3263.293     1507.695        1.837        0.503      163.320       30.398        0.035      344.292       21.006      867.369
05/10/2013  22:42:00     -146.007     -116.000        2.648       82.806       69.089       49.553     6856.847     4773.264     2455.493        2.443        0.704      186.478       47.021        0.064      344.333       21.076      867.362
05/10/2013  22:43:00     -104.690     -122.185       25.299      106.732       80.225       57.011    11391.793     6436.005     3250.244        2.380        1.054      160.901       61.201        0.145      344.262       20.953      867.372
05/10/2013  22:44:00     -172.620     -112.251      -13.621       75.999       58.074       40.796     5775.793     3372.644     1664.288        2.670        0.541      205.908       40.566        0.039      344.380       21.153      867.384
05/10/2013  22:45:00     -146.149       -9.041       -1.662       77.880       79.068       35.830     6065.301     6251.691     1283.801        1.752        0.680      146.428       37.818        0.067      344.364       21.128      867.389
05/10/2013  22:46:00     -147.880      -87.019       -4.049       68.188       68.124       38.913     4649.566     4640.947     1514.229        2.013        0.540      171.583       32.141        0.035      344.312       21.039      867.401
05/10/2013  22:47:00      -75.901      -28.814        4.031       53.518       43.796       28.217     2864.207     1918.128      796.201        0.609        0.279       81.186       26.843        0.109      344.247       20.931      867.417
05/10/2013  22:48:00      -57.048       -4.149       12.546       47.119       39.333       25.593     2220.238     1547.072      654.996        0.392        0.221       57.199       23.137        0.164      344.207       20.862      867.415
05/10/2013  22:49:00     -100.006        9.833       -6.168       47.395       33.021       23.290     2246.272     1090.361      542.419        0.701        0.194      100.488       23.567        0.055      344.307       21.031      867.418
05/10/2013  22:50:00      -63.551      -12.349       -1.485       26.149       33.204       21.288      683.783     1102.523      453.187        0.322        0.112       64.740       16.547        0.065      344.285       20.996      867.430
05/10/2013  22:51:00      -84.260       -5.412       -7.737       38.199       21.126       19.396     1459.145      446.322      376.191        0.473        0.114       84.434       22.166        0.069      344.237       20.911      867.439
05/10/2013  22:52:00      -42.665        8.627        2.643       23.263       18.910       13.314      541.173      357.597      177.271        0.149        0.054       43.529       10.661        0.060      344.124       20.719      867.436
05/10/2013  22:53:00      -44.378       74.265       -1.666       29.057       41.411       24.595      844.324     1714.845      604.925        0.533        0.158       86.514       22.936        0.070      344.020       20.542      867.455
05/10/2013  22:54:00       -3.841       95.179      -18.839       34.455       18.647       11.104     1187.178      347.710      123.297        0.554        0.083       95.256       10.747        0.013      343.894       20.326      867.472
05/10/2013  22:55:00       42.764       67.713       -6.289       25.766       30.763       19.322      663.910      946.339      373.345        0.422        0.099       80.086       16.874        0.044      343.790       20.150      867.479
05/10/2013  22:56:00       68.619       55.034        2.908       28.250       20.916       21.615      798.046      437.480      467.194        0.472        0.085       87.962       11.569        0.017      343.822       20.205      867.493
05/10/2013  22:57:00       61.745       45.436        1.082       23.377       18.761       19.476      546.473      351.981      379.312        0.358        0.064       76.660       11.708        0.023      343.850       20.254      867.519
05/10/2013  22:58:00       50.565       47.845        3.726       36.605       17.864       14.522     1339.940      319.139      210.886        0.336        0.093       69.613        9.161        0.017      343.823       20.205      867.542
05/10/2013  22:59:00       15.968       50.115       -7.349       30.339       37.626       24.157      920.436     1415.702      583.571        0.287        0.146       52.597       21.528        0.168      343.719       20.028      867.554
05/10/2013  23:00:00      -12.338      124.808      -19.083       21.935       24.052       14.671      481.147      578.496      215.227        0.868        0.064      125.416       12.643        0.010      343.880       20.304      867.594
05/10/2013  23:01:00       36.610       91.875       -8.332       34.321       40.602       19.466     1177.907     1648.542      378.909        0.653        0.160       98.901       21.008        0.045      343.752       20.085      867.589
05/10/2013  23:02:00       42.812       17.564       -0.566       35.932       26.113       13.299     1291.079      681.896      176.853        0.215        0.107       46.275       10.433        0.051      343.602       19.830      867.576
05/10/2013  23:03:00       20.570       25.276       19.342       33.900       28.893       21.678     1149.230      834.810      469.920        0.194        0.123       32.588       20.489        0.395      343.864       20.277      867.585
05/10/2013  23:04:00      -72.741        3.418      -12.401       25.020       15.723       10.332      626.007      247.199      106.757        0.322        0.049       72.821        7.416        0.010      343.671       19.945      867.594
05/10/2013  23:05:00        6.122       81.543       -1.068       20.648       33.790       16.105      426.338     1141.742      259.378        0.426        0.091       81.772        9.557        0.014      344.124       20.720      867.597
05/10/2013  23:06:00        8.859       80.078       -5.756       14.166       25.204       13.478      200.663      635.253      181.659        0.377        0.051       80.566       10.059        0.016      344.122       20.716      867.609
05/10/2013  23:07:00       22.166       90.866       -1.495       31.236       42.244       27.508      975.673     1784.555      756.716        0.613        0.176       93.530       25.077        0.072      343.912       20.360      867.626
05/10/2013  23:08:00       17.488       33.387       -0.575       33.045       51.259       20.249     1091.979     2627.462      410.039        0.277        0.206       37.690       19.490        0.267      343.783       20.139      867.641
05/10/2013  23:09:00       30.432       25.503       -1.549       29.794       36.265       20.455      887.684     1315.173      418.408        0.210        0.131       39.706       16.614        0.175      343.791       20.153      867.654
05/10/2013  23:10:00       75.148       33.669        5.326       24.866       18.883       15.064      618.340      356.553      226.921        0.401        0.060       82.346        7.291        0.008      343.684       19.968      867.655
05/10/2013  23:11:00       62.542       49.039       41.611       46.324       24.711       32.837     2145.953      610.640     1078.294        0.594        0.192       79.476       29.376        0.137      343.856       20.263      867.653
05/10/2013  23:12:00       14.686       -9.416       61.688       29.907       48.089       27.844      894.408     2312.508      775.296        0.405        0.199       17.445       30.139        2.985      343.812       20.188      867.664
05/10/2013  23:13:00       63.983       46.444       66.673       48.847       90.116       53.056     2386.049     8120.981     2814.991        1.201        0.666       79.062       63.801        0.651      343.926       20.381      867.669
05/10/2013  23:14:00       93.019       88.759        5.354       68.976       40.865       29.841     4757.648     1669.931      890.482        1.194        0.366      128.572       25.568        0.040      343.777       20.129      867.690
05/10/2013  23:15:00       55.412       89.869      -10.160       41.375       58.447       34.040     1711.870     3416.043     1158.742        0.877        0.314      105.579       31.379        0.088      343.558       19.754      867.734
05/10/2013  23:16:00       62.061       64.189        0.947       38.198       29.733       20.485     1459.052      884.062      419.642        0.537        0.138       89.285       19.167        0.046      343.642       19.899      867.734
05/10/2013  23:17:00       46.812        4.959       11.255       22.857       23.714       18.284      522.425      562.348      334.304        0.188        0.071       47.074        9.358        0.040      343.613       19.847      867.708
05/10/2013  23:18:00       23.273      -10.599       15.176       25.654       28.903       14.139      658.111      835.406      199.922        0.129        0.085       25.573       19.032        0.554      343.767       20.109      867.685
05/10/2013  23:19:00      -24.754      -58.831        8.071       57.201       41.351       29.771     3271.928     1709.876      886.291        0.500        0.293       63.827       26.859        0.177      343.812       20.186      867.700
05/10/2013  23:20:00        3.712      -57.561       10.296       33.862       57.075       19.283     1146.651     3257.507      371.846        0.410        0.239       57.681       24.036        0.174      343.935       20.397      867.713
05/10/2013  23:21:00       30.041       31.956       -8.566       18.148       19.567       17.902      329.363      382.857      320.497        0.151        0.052       43.860       10.059        0.053      343.532       19.709      867.721
05/10/2013  23:22:00      -14.216       22.846      -14.002       23.553       14.973       10.598      554.732      224.190      112.315        0.091        0.045       26.908        6.966        0.067      343.524       19.696      867.749
05/10/2013  23:23:00       22.602       39.382       -3.795       25.667       29.648       14.154      658.819      879.020      200.324        0.191        0.087       45.406       18.898        0.173      343.480       19.622      867.753
05/10/2013  23:24:00       41.174       37.290        9.825       12.482       13.143       15.787      155.799      172.747      249.241        0.188        0.029       55.550       12.297        0.049      343.426       19.530      867.736
05/10/2013  23:25:00       76.226       58.013        8.282       17.963       14.655       15.679      322.669      214.783      245.833        0.501        0.039       95.791       11.436        0.014      343.559       19.754      867.749
05/10/2013  23:26:00       88.450       68.692        9.486       25.045       20.412       17.877      627.227      416.638      319.601        0.700        0.068      111.991        9.044        0.007      343.294       19.303      867.763
05/10/2013  23:27:00      112.460       46.242        8.774       30.352       29.687       30.494      921.266      881.333      929.872        0.880        0.137      121.596       21.363        0.031      343.297       19.309      867.758
05/10/2013  23:28:00       95.505       50.710       28.770       25.320       19.355       20.155      641.116      374.611      406.233        0.697        0.071      108.133       10.229        0.009      343.423       19.525      867.754
05/10/2013  23:29:00       28.346       17.721       12.270       25.393       21.012       18.861      644.806      441.493      355.753        0.135        0.072       33.430        8.071        0.058      343.473       19.609      867.766
05/10/2013  23:30:00       -6.761      -56.550        4.897       20.110       24.059       17.631      404.416      578.847      310.854        0.228        0.065       56.952       17.823        0.098      343.642       19.897      867.784
05/10/2013  23:31:00        6.539      -57.788       -5.978       23.634       18.260       15.719      558.545      333.436      247.083        0.228        0.057       58.157       12.814        0.049      343.668       19.942      867.783
05/10/2013  23:32:00      -28.386       -8.012       -4.456       19.665       15.330        9.337      386.707      235.000       87.185        0.080        0.035       29.495        7.929        0.072      343.600       19.825      867.789
05/10/2013  23:33:00       29.157       19.553        7.547       39.921       12.042        8.825     1593.723      145.008       77.875        0.155        0.091       35.106       13.315        0.144      343.604       19.834      867.811
05/10/2013  23:34:00       81.522       50.516       -7.281       22.205       32.050       26.943      493.068     1027.221      725.916        0.575        0.112       95.905       19.480        0.041      343.427       19.532      867.807
05/10/2013  23:35:00       87.608       26.861        9.978       45.098       27.903       23.041     2033.808      778.562      530.879        0.592        0.167       91.633       25.920        0.080      343.318       19.344      867.798
05/10/2013  23:36:00       42.180        7.844       15.304       16.554       14.079       14.039      274.022      198.225      197.102        0.137        0.033       42.903        8.816        0.042      343.313       19.336      867.794
05/10/2013  23:37:00      -15.010      -21.560        3.605       32.644       14.392       17.483     1065.603      207.142      305.667        0.114        0.079       26.270       12.169        0.215      343.550       19.740      867.795
05/10/2013  23:38:00      -70.010      -23.063       -3.242       21.025       16.686       12.255      442.051      278.410      150.197        0.316        0.044       73.711        7.335        0.010      343.417       19.513      867.805
05/10/2013  23:39:00      -64.365      -53.399       -1.831       42.617       32.095       24.009     1816.190     1030.118      576.416        0.521        0.171       83.632       19.180        0.053      343.416       19.512      867.815
05/10/2013  23:40:00      -14.757     -113.976       16.052       35.009       79.287       24.150     1225.665     6286.399      583.230        1.078        0.405      114.927       35.382        0.095      343.974       20.464      867.825
05/10/2013  23:41:00       75.496       73.939        7.707       27.751       23.456       22.558      770.130      550.186      508.856        0.653        0.091      105.672        9.326        0.008      343.335       19.376      867.817
05/10/2013  23:42:00       48.442       45.616       -5.322       51.079       38.684       30.463     2609.098     1496.457      927.968        0.474        0.252       66.539       16.853        0.064      342.996       18.797      867.831
05/10/2013  23:43:00       -6.715      127.659      -16.975       31.084       46.604       19.127      966.203     2171.963      365.853        1.007        0.175      127.835       24.095        0.036      343.140       19.043      867.866
05/10/2013  23:44:00      -36.836      102.438      -13.124       19.311       32.237       11.488      372.904     1039.235      131.969        0.678        0.077      108.860       11.629        0.011      343.395       19.478      867.886
05/10/2013  23:45:00      -26.877       43.839       -4.437       17.940       22.515       11.128      321.830      506.905      123.840        0.181        0.048       51.422       11.116        0.047      343.217       19.173      867.881
05/10/2013  23:46:00       34.223       41.231       -5.501       16.755       26.505        9.066      280.744      702.539       82.192        0.198        0.053       53.584        6.698        0.016      343.776       20.122      867.863
05/10/2013  23:47:00       15.169       10.640       21.029       18.273       22.016       24.122      333.920      484.718      581.871        0.109        0.070       18.528       17.934        0.937      343.367       19.429      867.854
05/10/2013  23:48:00       13.750        0.767       21.386       17.924       41.880       25.168      321.253     1753.935      633.431        0.168        0.135       13.771       29.214        4.500      343.086       18.951      867.855
05/10/2013  23:49:00       18.367      -55.024       -6.200       19.919       23.751       11.677      396.777      564.132      136.347        0.225        0.055       58.009       10.598        0.033      343.476       19.614      867.871
05/10/2013  23:50:00        6.465      -23.032       -5.639        8.015       18.820        7.325       64.248      354.175       53.654        0.054        0.024       23.922       10.123        0.179      343.587       19.803      867.893
05/10/2013  23:51:00        4.409       38.641       -5.356       14.366       13.678        8.275      206.377      187.089       68.478        0.100        0.023       38.892        8.454        0.047      343.829       20.216      867.917
05/10/2013  23:52:00      -65.191       22.900       -9.941       20.031       18.304        8.095      401.229      335.026       65.526        0.284        0.040       69.096        5.583        0.007      343.639       19.893      867.943
05/10/2013  23:53:00      -70.436        3.457       -5.823       36.070       18.149       12.442     1301.054      329.375      154.798        0.340        0.089       70.520       15.379        0.048      343.178       19.106      867.956
05/10/2013  23:54:00      -41.765        1.728       -1.139       29.084        8.801        7.941      845.859       77.451       63.052        0.137        0.049       41.801        9.959        0.057      343.472       19.609      867.960
05/10/2013  23:55:00       -3.116        1.577        5.515        7.643       13.994       14.797       58.417      195.842      218.961        0.026        0.024        3.492       13.945       15.947      343.456       19.580      867.968
05/10/2013  23:56:00       -4.534       28.318       43.233       18.163       20.037        9.949      329.891      401.474       98.987        0.176        0.042       28.679        9.720        0.115      343.235       19.205      867.966
05/10/2013  23:57:00       -1.741       35.811       -8.904       15.328       21.702       13.359      234.939      470.984      178.457        0.112        0.044       35.853        9.454        0.070      343.026       18.846      867.981
05/10/2013  23:58:00       -1.474       57.792      -11.612        7.397        9.285        6.685       54.713       86.206       44.685        0.183        0.009       57.811        4.732        0.007      343.230       19.196      867.996
05/10/2013  23:59:00       14.705       70.304       -7.944       15.788       10.646        5.306      249.249      113.333       28.157        0.281        0.020       71.825        3.314        0.002      343.448       19.566      867.995
